[[{"header":{"parameterUnit":"m.s-1","parameterCategory":1,"la1":31.0,"la2":29.5877,"lo1":-88.7671,"lo2":-86.6584,"dy":0.0162,"dx":0.0185,"nx":115,"ny":88,"refTime":"2024-10-10T00:00:00:Z","depth":0,"parameterNumber":2,"parameterNumberName":"U-component_of_WINDS"},"data":[0.0,0.0,0.0,0.0,0.0,0.0,0.0,0.0,0.0,0.0,0.0,0.0,0.0,0.0,0.0,0.0,0.0,0.0,0.0,0.0,0.0,0.0,0.0,0.0,0.0,0.0,0.0,0.0,0.0,0.0,0.0,0.0,0.0,0.0,0.0,0.0,0.0,0.0,0.0,0.0,0.0,0.0,0.0,0.0,0.0,0.0,0.0,0.0,0.0,0.0,0.0,0.0,0.0,0.0,0.0,0.0,0.0,0.0,0.0,0.0,0.0,0.0,0.0,0.0,0.0,0.0,0.0,0.0,0.0,0.0,0.0,0.0,0.0,0.0,0.0,0.0,0.0,0.0,0.0,0.0,0.0,0.0,0.0,0.0,0.0,0.0,0.0,0.0,0.0,0.0,0.0,0.0,0.0,0.0,0.0,0.0,0.0,0.0,0.0,0.0,0.0,0.0,0.0,0.0,0.0,0.0,0.0,0.0,0.0,0.0,0.0,0.0,0.0,0.0,0.0,0.0,0.0,0.0,0.0,0.0,0.0,0.0,0.0,0.0,0.0,0.0,0.0,0.0,0.0,0.0,0.0,0.0,0.0,0.0,0.0,0.0,0.0,0.0,0.0,0.0,0.0,0.0,0.0,0.0,0.0,0.0,0.0,0.0,0.0,0.0,0.0,0.0,0.0,0.0,0.0,0.0,0.0,0.0,0.0,0.0,0.0,0.0,0.0,0.0,0.0,0.0,0.0,0.0,0.0,0.0,0.0,0.0,0.0,0.0,0.0,0.0,0.0,0.0,0.0,0.0,0.0,0.0,0.0,0.0,0.0,0.0,0.0,0.0,0.0,0.0,0.0,0.0,0.0,0.0,0.0,0.0,0.0,0.0,0.0,0.0,0.0,0.0,0.0,0.0,0.0,0.0,0.0,0.0,0.0,0.0,0.0,0.0,0.0,0.0,0.0,0.0,0.0,0.0,0.0,0.0,0.0,0.0,0.0,0.0,0.0,0.0,0.0,0.0,0.0,0.0,0.0,0.0,0.0,0.0,0.0,0.0,0.0,0.0,0.0,0.0,0.0,0.0,0.0,0.0,0.0,0.0,0.0,0.0,0.0,0.0,0.0,0.0,0.0,0.0,0.0,0.0,0.0,0.0,0.0,0.0,0.0,0.0,0.0,0.0,0.0,0.0,0.0,0.0,0.0,0.0,0.0,0.0,0.0,0.0,0.0,0.0,0.0,0.0,0.0,0.0,0.0,0.0,0.0,0.0,0.0,0.0,0.0,0.0,0.0,0.0,0.0,0.0,0.0,0.0,0.0,0.0,0.0,0.0,0.0,0.0,0.0,0.0,0.0,0.0,0.0,0.0,0.0,0.0,0.0,0.0,0.0,0.0,0.0,0.0,0.0,0.0,0.0,0.0,0.0,0.0,0.0,0.0,0.0,0.0,0.0,0.0,0.0,0.0,0.0,0.0,0.0,0.0,0.0,0.0,0.0,0.0,0.0,0.0,0.0,0.0,0.0,0.0,0.0,0.0,0.0,0.0,0.0,0.0,0.0,0.0,0.0,0.0,0.0,0.0,0.0,0.0,0.0,0.0,0.0,0.0,0.0,0.0,0.0,0.0,0.0,0.0,0.0,0.0,0.0,0.0,0.0,0.0,0.0,0.0,0.0,0.0,0.0,0.0,0.0,0.0,0.0,0.0,0.0,0.0,0.0,0.0,0.0,0.0,0.0,0.0,0.0,0.0,0.0,0.0,0.0,0.0,0.0,0.0,0.0,0.0,0.0,0.0,0.0,0.0,0.0,0.0,0.0,0.0,0.0,0.0,0.0,0.0,0.0,0.0,0.0,0.0,0.0,0.0,0.0,0.0,0.0,0.0,0.0,0.0,0.0,0.0,0.0,0.0,0.0,0.0,0.0,0.0,0.0,0.0,0.0,0.0,0.0,0.0,0.0,0.0,0.0,0.0,0.0,0.0,0.0,0.0,0.0,0.0,0.0,0.0,0.0,0.0,0.0,0.0,0.0,0.0,0.0,0.0,0.0,0.0,0.0,0.0,0.0,0.0,0.0,0.0,0.0,0.0,0.0,0.0,0.0,0.0,0.0,0.0,0.0,0.0,0.0,0.0,0.0,0.0,0.0,0.0,0.0,0.0,0.0,0.0,0.0,0.0,0.0,0.0,0.0,0.0,0.0,0.0,0.0,0.0,0.0,0.0,0.0,0.0,0.0,0.0,0.0,0.0,0.0,0.0,0.0,0.0,0.0,0.0,0.0,0.0,0.0,0.0,0.0,0.0,0.0,0.0,0.0,0.0,0.0,0.0,0.0,0.0,0.0,0.0,0.0,0.0,0.0,0.0,0.0,0.0,0.0,0.0,0.0,0.0,0.0,0.0,0.0,0.0,0.0,0.0,0.0,0.0,0.0,0.0,0.0,0.0,0.0,0.0,0.0,0.0,0.0,0.0,0.0,0.0,0.0,0.0,0.0,0.0,0.0,0.0,0.0,0.0,0.0,0.0,0.0,0.0,0.0,0.0,0.0,0.0,0.0,0.0,0.0,0.0,0.0,0.0,0.0,0.0,0.0,0.0,0.0,0.0,0.0,0.0,0.0,0.0,0.0,0.0,0.0,0.0,0.0,0.0,0.0,0.0,0.0,0.0,0.0,0.0,0.0,0.0,0.0,0.0,0.0,0.0,0.0,0.0,0.0,0.0,0.0,0.0,0.0,0.0,0.0,0.0,0.0,0.0,0.0,0.0,0.0,0.0,0.0,0.0,0.0,0.0,0.0,0.0,0.0,0.0,0.0,0.0,0.0,0.0,0.0,0.0,0.0,0.0,0.0,0.0,0.0,0.0,0.0,0.0,0.0,0.0,0.0,0.0,0.0,0.0,0.0,0.0,0.0,0.0,0.0,0.0,0.0,0.0,0.0,0.0,0.0,0.0,0.0,0.0,0.0,0.0,0.0,0.0,0.0,0.0,0.0,0.0,0.0,0.0,0.0,0.0,0.0,0.0,0.0,0.0,0.0,0.0,0.0,0.0,0.0,0.0,0.0,0.0,0.0,0.0,0.0,0.0,0.0,0.0,0.0,0.0,0.0,0.0,0.0,0.0,0.0,0.0,0.0,0.0,0.0,0.0,0.0,0.0,0.0,0.0,0.0,0.0,0.0,0.0,0.0,0.0,0.0,0.0,0.0,0.0,0.0,0.0,0.0,0.0,0.0,0.0,0.0,0.0,0.0,0.0,0.0,0.0,0.0,0.0,0.0,0.0,0.0,0.0,0.0,0.0,0.0,0.0,0.0,0.0,0.0,0.0,0.0,0.0,0.0,0.0,0.0,0.0,0.0,0.0,0.0,0.0,0.0,0.0,0.0,0.0,0.0,0.0,0.0,0.0,0.0,0.0,0.0,0.0,0.0,0.0,0.0,0.0,0.0,0.0,0.0,0.0,0.0,0.0,0.0,0.0,0.0,0.0,0.0,0.0,0.0,0.0,0.0,0.0,0.0,0.0,0.0,0.0,0.0,0.0,0.0,0.0,0.0,0.0,0.0,0.0,0.0,0.0,0.0,0.0,0.0,0.0,0.0,0.0,0.0,0.0,0.0,0.0,0.0,0.0,0.0,0.0,0.0,0.0,0.0,0.0,0.0,0.0,0.0,0.0,0.0,0.0,0.0,0.0,0.0,0.0,0.0,0.0,0.0,0.0,0.0,0.0,0.0,0.0,0.0,0.0,0.0,0.0,0.0,0.0,0.0,0.0,0.0,0.0,0.0,0.0,0.0,0.0,0.0,0.0,0.0,0.0,0.0,0.0,0.0,0.0,0.0,0.0,0.0,0.0,0.0,0.0,0.0,0.0,0.0,0.0,0.0,0.0,0.0,0.0,0.0,0.0,0.0,0.0,0.0,0.0,0.0,0.0,0.0,0.0,0.0,0.0,0.0,0.0,0.0,0.0,0.0,0.0,0.0,0.0,0.0,0.0,0.0,0.0,0.0,0.0,0.0,0.0,0.0,0.0,0.0,0.0,0.0,0.0,0.0,0.0,0.0,0.0,0.0,0.0,0.0,0.0,0.0,0.0,0.0,0.0,0.0,0.0,0.0,0.0,0.0,0.0,0.0,0.0,0.0,0.0,0.0,0.0,0.0,0.0,0.0,0.0,0.0,0.0,0.0,0.0,0.0,0.0,0.0,0.0,0.0,0.0,0.0,0.0,0.0,0.0,0.0,0.0,0.0,0.0,0.0,0.0,0.0,0.0,0.0,0.0,0.0,0.0,0.0,0.0,0.0,0.0,2.7698,0.0,0.0,0.0,0.0,0.0,0.0,0.0,0.0,0.0,0.0,0.0,0.0,0.0,0.0,0.0,0.0,0.0,0.0,0.0,0.0,0.0,0.0,0.0,0.0,0.0,0.0,0.0,0.0,0.0,0.0,0.0,0.0,0.0,0.0,0.0,0.0,0.0,0.0,0.0,0.0,0.0,0.0,0.0,0.0,0.0,0.0,0.0,0.0,0.0,0.0,0.0,0.0,0.0,0.0,0.0,0.0,0.0,0.0,0.0,0.0,0.0,0.0,0.0,0.0,0.0,0.0,0.0,0.0,0.0,0.0,0.0,0.0,0.0,0.0,0.0,0.0,0.0,0.0,0.0,0.0,0.0,0.0,0.0,0.0,0.0,0.0,0.0,0.0,0.0,0.0,0.0,0.0,0.0,0.0,0.0,0.0,0.0,0.0,0.0,0.0,0.0,0.0,0.0,0.0,0.0,0.0,0.0,0.0,0.0,0.0,3.0425,3.0369,2.9675,2.9065,2.8621,0.0,0.0,0.0,0.0,0.0,0.0,0.0,0.0,0.0,0.0,0.0,0.0,0.0,0.0,0.0,0.0,0.0,0.0,0.0,0.0,0.0,0.0,0.0,0.0,0.0,0.0,0.0,0.0,0.0,0.0,0.0,0.0,0.0,0.0,0.0,0.0,0.0,0.0,0.0,0.0,0.0,0.0,0.0,0.0,0.0,0.0,0.0,0.0,0.0,0.0,0.0,0.0,0.0,0.0,0.0,0.0,0.0,0.0,0.0,0.0,0.0,0.0,0.0,0.0,0.0,0.0,0.0,0.0,0.0,0.0,0.0,0.0,0.0,0.0,0.0,0.0,0.0,0.0,0.0,0.0,0.0,0.0,0.0,0.0,0.0,0.0,0.0,0.0,0.0,0.0,0.0,0.0,0.0,0.0,0.0,0.0,0.0,0.0,0.0,0.0,0.0,0.0,0.0,0.0,0.0,0.0,0.0,0.0,0.0,0.0,0.0,0.0,3.0835,3.0352,2.9575,0.0,0.0,0.0,0.0,0.0,0.0,0.0,0.0,0.0,0.0,0.0,0.0,0.0,0.0,0.0,0.0,0.0,0.0,0.0,0.0,0.0,0.0,0.0,0.0,0.0,0.0,0.0,0.0,0.0,0.0,0.0,0.0,0.0,0.0,0.0,0.0,0.0,0.0,0.0,0.0,0.0,0.0,0.0,0.0,0.0,0.0,0.0,0.0,0.0,0.0,0.0,0.0,0.0,0.0,0.0,0.0,0.0,0.0,0.0,0.0,0.0,0.0,0.0,0.0,0.0,0.0,0.0,0.0,0.0,0.0,0.0,0.0,0.0,0.0,0.0,0.0,0.0,0.0,0.0,0.0,0.0,0.0,0.0,0.0,0.0,0.0,0.0,0.0,0.0,0.0,0.0,0.0,0.0,0.0,0.0,0.0,0.0,0.0,0.0,0.0,0.0,0.0,0.0,0.0,0.0,0.0,0.0,0.0,0.0,0.0,3.2018,3.2751,3.2048,0.0,3.0539,0.0,0.0,0.0,0.0,0.0,0.0,0.0,0.0,0.0,0.0,0.0,0.0,0.0,0.0,0.0,0.0,0.0,0.0,0.0,0.0,0.0,0.0,0.0,0.0,0.0,0.0,0.0,0.0,0.0,0.0,0.0,0.0,0.0,0.0,0.0,0.0,0.0,0.0,0.0,0.0,0.0,0.0,0.0,0.0,0.0,0.0,0.0,0.0,0.0,0.0,0.0,0.0,0.0,0.0,0.0,0.0,0.0,0.0,0.0,0.0,0.0,0.0,0.0,0.0,0.0,0.0,0.0,0.0,0.0,0.0,0.0,0.0,0.0,0.0,0.0,0.0,0.0,0.0,0.0,0.0,0.0,0.0,0.0,0.0,0.0,0.0,0.0,0.0,0.0,0.0,0.0,0.0,0.0,0.0,0.0,0.0,0.0,0.0,0.0,0.0,0.0,0.0,0.0,0.0,0.0,0.0,0.0,0.0,0.0,0.0,3.2947,3.3752,3.3455,3.3165,0.0,0.0,0.0,0.0,0.0,0.0,0.0,0.0,0.0,0.0,0.0,0.0,0.0,0.0,0.0,0.0,0.0,0.0,0.0,0.0,0.0,0.0,0.0,0.0,0.0,0.0,0.0,0.0,0.0,0.0,0.0,0.0,0.0,0.0,0.0,0.0,0.0,0.0,0.0,0.0,0.0,0.0,0.0,0.0,0.0,0.0,0.0,0.0,0.0,0.0,0.0,0.0,0.0,0.0,0.0,0.0,0.0,0.0,0.0,0.0,0.0,0.0,0.0,0.0,0.0,0.0,0.0,0.0,0.0,0.0,0.0,0.0,0.0,0.0,0.0,0.0,0.0,0.0,0.0,0.0,0.0,0.0,0.0,0.0,0.0,0.0,0.0,0.0,0.0,0.0,0.0,0.0,0.0,0.0,0.0,0.0,0.0,0.0,0.0,0.0,0.0,0.0,0.0,0.0,0.0,0.0,0.0,0.0,0.0,0.0,3.1989,3.3394,3.4578,3.4454,3.4145,3.3723,0.0,0.0,0.0,0.0,0.0,0.0,0.0,0.0,0.0,0.0,0.0,0.0,0.0,0.0,0.0,0.0,0.0,0.0,0.0,0.0,0.0,0.0,0.0,0.0,0.0,0.0,0.0,0.0,0.0,0.0,0.0,0.0,0.0,0.0,0.0,0.0,0.0,0.0,0.0,0.0,0.0,0.0,0.0,0.0,0.0,0.0,0.0,0.0,0.0,0.0,0.0,0.0,0.0,0.0,0.0,0.0,0.0,0.0,0.0,0.0,0.0,0.0,0.0,0.0,0.0,0.0,0.0,0.0,0.0,0.0,0.0,0.0,0.0,0.0,0.0,0.0,0.0,0.0,0.0,0.0,0.0,0.0,0.0,0.0,0.0,0.0,0.0,0.0,0.0,0.0,0.0,0.0,0.0,0.0,0.0,0.0,0.0,0.0,0.0,0.0,0.0,0.0,0.0,0.0,0.0,0.0,0.0,0.0,3.0453,3.1521,3.3169,3.5545,3.4829,3.3633,0.0,0.0,0.0,0.0,0.0,0.0,0.0,0.0,0.0,0.0,0.0,0.0,0.0,0.0,0.0,0.0,0.0,0.0,0.0,0.0,0.0,0.0,0.0,0.0,0.0,0.0,0.0,0.0,0.0,0.0,0.0,0.0,0.0,0.0,0.0,0.0,0.0,0.0,0.0,0.0,0.0,0.0,0.0,0.0,0.0,0.0,0.0,0.0,0.0,0.0,0.0,0.0,0.0,0.0,0.0,0.0,0.0,0.0,0.0,0.0,0.0,0.0,0.0,0.0,0.0,0.0,0.0,0.0,0.0,0.0,0.0,0.0,0.0,0.0,0.0,0.0,0.0,0.0,0.0,0.0,0.0,0.0,0.0,0.0,0.0,0.0,0.0,0.0,0.0,0.0,0.0,0.0,0.0,0.0,0.0,0.0,0.0,0.0,0.0,0.0,0.0,0.0,0.0,0.0,0.0,0.0,0.0,0.0,0.0,3.0606,3.3549,3.5615,3.6446,3.5652,3.4086,0.0,0.0,0.0,0.0,0.0,0.0,0.0,0.0,0.0,0.0,0.0,0.0,0.0,0.0,0.0,0.0,0.0,0.0,0.0,0.0,0.0,0.0,0.0,0.0,0.0,0.0,0.0,0.0,0.0,0.0,0.0,0.0,0.0,0.0,0.0,0.0,0.0,0.0,0.0,0.0,0.0,0.0,0.0,0.0,0.0,0.0,0.0,0.0,0.0,0.0,0.0,0.0,0.0,0.0,0.0,0.0,0.0,0.0,0.0,0.0,0.0,0.0,0.0,0.0,0.0,0.0,0.0,0.0,0.0,0.0,0.0,0.0,0.0,0.0,0.0,0.0,0.0,0.0,0.0,0.0,0.0,0.0,0.0,0.0,0.0,0.0,0.0,0.0,0.0,0.0,0.0,0.0,0.0,0.0,0.0,0.0,0.0,0.0,0.0,0.0,0.0,0.0,0.0,0.0,0.0,0.0,0.0,0.0,0.0,3.1464,0.0,3.6743,3.6954,3.5828,3.3932,0.0,0.0,0.0,0.0,0.0,0.0,0.0,0.0,0.0,0.0,0.0,0.0,0.0,0.0,0.0,0.0,0.0,0.0,0.0,0.0,0.0,0.0,0.0,0.0,0.0,0.0,0.0,0.0,0.0,0.0,0.0,0.0,0.0,0.0,0.0,0.0,0.0,0.0,0.0,0.0,0.0,0.0,0.0,0.0,0.0,0.0,0.0,0.0,0.0,0.0,0.0,0.0,0.0,0.0,0.0,0.0,0.0,0.0,0.0,0.0,0.0,0.0,0.0,0.0,0.0,0.0,0.0,0.0,0.0,0.0,0.0,0.0,0.0,0.0,0.0,0.0,0.0,0.0,0.0,0.0,0.0,0.0,0.0,0.0,0.0,0.0,0.0,0.0,0.0,0.0,0.0,0.0,0.0,0.0,0.0,0.0,0.0,0.0,0.0,0.0,0.0,0.0,0.0,0.0,0.0,0.0,0.0,0.0,2.9018,3.3216,3.5066,3.6394,3.6949,3.5352,3.3134,0.0,0.0,0.0,0.0,0.0,0.0,0.0,0.0,0.0,0.0,0.0,0.0,0.0,0.0,0.0,0.0,0.0,0.0,0.0,0.0,0.0,0.0,0.0,0.0,0.0,0.0,0.0,0.0,0.0,0.0,0.0,0.0,0.0,0.0,0.0,0.0,0.0,0.0,0.0,0.0,0.0,0.0,0.0,0.0,0.0,0.0,0.0,0.0,0.0,0.0,0.0,0.0,0.0,0.0,0.0,0.0,0.0,0.0,0.0,0.0,0.0,0.0,0.0,0.0,0.0,0.0,0.0,0.0,0.0,0.0,0.0,0.0,0.0,0.0,0.0,0.0,0.0,0.0,0.0,0.0,0.0,0.0,0.0,0.0,0.0,0.0,0.0,0.0,0.0,0.0,0.0,0.0,0.0,0.0,0.0,0.0,0.0,0.0,0.0,0.0,0.0,0.0,0.0,0.0,0.0,0.0,0.0,0.0,0.0,3.6531,3.8167,3.8808,3.8392,3.6748,3.4331,0.0,0.0,0.0,0.0,0.0,0.0,0.0,0.0,0.0,0.0,0.0,0.0,0.0,0.0,0.0,0.0,0.0,0.0,0.0,0.0,0.0,0.0,0.0,0.0,0.0,0.0,0.0,0.0,0.0,0.0,0.0,0.0,0.0,0.0,0.0,0.0,0.0,0.0,0.0,0.0,0.0,0.0,0.0,0.0,0.0,0.0,0.0,0.0,0.0,0.0,0.0,0.0,0.0,0.0,0.0,0.0,0.0,0.0,0.0,0.0,0.0,0.0,0.0,0.0,0.0,0.0,0.0,0.0,0.0,0.0,0.0,0.0,0.0,0.0,0.0,0.0,0.0,0.0,0.0,0.0,0.0,0.0,0.0,0.0,0.0,0.0,0.0,0.0,0.0,0.0,0.0,0.0,0.0,0.0,0.0,0.0,0.0,0.0,0.0,0.0,0.0,0.0,0.0,0.0,0.0,0.0,0.0,0.0,0.0,4.1356,4.1816,4.1757,4.1184,3.9183,3.6214,3.2255,0.0,0.0,0.0,0.0,0.0,0.0,0.0,0.0,0.0,0.0,0.0,0.0,0.0,0.0,0.0,0.0,0.0,0.0,0.0,0.0,0.0,0.0,0.0,0.0,0.0,0.0,0.0,0.0,0.0,0.0,0.0,0.0,0.0,0.0,0.0,0.0,0.0,0.0,0.0,0.0,0.0,0.0,0.0,0.0,0.0,0.0,0.0,0.0,0.0,0.0,0.0,0.0,0.0,0.0,0.0,0.0,0.0,0.0,0.0,0.0,0.0,0.0,0.0,0.0,0.0,0.0,0.0,0.0,0.0,0.0,0.0,0.0,0.0,0.0,0.0,0.0,0.0,0.0,0.0,0.0,0.0,0.0,0.0,0.0,0.0,0.0,0.0,0.0,0.0,0.0,0.0,0.0,0.0,0.0,0.0,0.0,0.0,0.0,0.0,0.0,0.0,0.0,0.0,0.0,0.0,0.0,0.0,0.0,4.7294,4.598,4.5221,4.5,4.2419,3.8736,0.0,0.0,0.0,0.0,0.0,0.0,0.0,0.0,0.0,0.0,0.0,0.0,0.0,0.0,0.0,0.0,0.0,0.0,0.0,0.0,0.0,0.0,0.0,0.0,0.0,0.0,0.0,0.0,0.0,0.0,0.0,0.0,0.0,0.0,0.0,0.0,0.0,0.0,0.0,0.0,0.0,0.0,0.0,0.0,0.0,0.0,0.0,0.0,0.0,0.0,0.0,0.0,0.0,0.0,0.0,0.0,0.0,0.0,0.0,0.0,0.0,0.0,0.0,0.0,0.0,0.0,0.0,0.0,0.0,0.0,0.0,0.0,0.0,0.0,0.0,0.0,0.0,0.0,0.0,0.0,0.0,0.0,0.0,0.0,0.0,0.0,0.0,0.0,0.0,0.0,0.0,0.0,0.0,0.0,0.0,0.0,0.0,0.0,0.0,0.0,0.0,0.0,0.0,0.0,0.0,0.0,0.0,0.0,0.0,4.9937,5.0847,5.0467,4.8917,4.5655,4.1835,0.0,0.0,0.0,0.0,0.0,0.0,0.0,0.0,0.0,0.0,0.0,0.0,0.0,0.0,0.0,0.0,0.0,0.0,0.0,0.0,0.0,0.0,0.0,0.0,0.0,0.0,0.0,0.0,0.0,0.0,0.0,0.0,0.0,0.0,0.0,0.0,0.0,0.0,0.0,0.0,0.0,0.0,0.0,0.0,0.0,0.0,0.0,0.0,0.0,0.0,0.0,0.0,0.0,0.0,0.0,0.0,0.0,0.0,0.0,0.0,0.0,0.0,0.0,0.0,0.0,0.0,0.0,0.0,0.0,0.0,0.0,0.0,0.0,0.0,0.0,0.0,0.0,0.0,0.0,0.0,0.0,0.0,0.0,0.0,0.0,0.0,0.0,0.0,0.0,0.0,0.0,0.0,0.0,0.0,0.0,0.0,0.0,0.0,0.0,0.0,0.0,0.0,0.0,0.0,0.0,0.0,0.0,0.0,4.7821,5.1951,5.3592,5.3833,5.2596,4.8434,4.4088,0.0,0.0,0.0,0.0,0.0,0.0,0.0,0.0,0.0,0.0,0.0,0.0,0.0,0.0,0.0,0.0,0.0,0.0,0.0,0.0,0.0,0.0,0.0,0.0,0.0,0.0,0.0,0.0,0.0,0.0,0.0,0.0,0.0,0.0,0.0,0.0,0.0,0.0,0.0,0.0,0.0,0.0,0.0,0.0,0.0,0.0,0.0,0.0,0.0,0.0,0.0,0.0,0.0,0.0,0.0,0.0,0.0,0.0,0.0,0.0,0.0,0.0,0.0,0.0,0.0,0.0,0.0,0.0,0.0,0.0,0.0,0.0,0.0,0.0,0.0,0.0,0.0,0.0,0.0,0.0,0.0,0.0,0.0,0.0,0.0,0.0,0.0,0.0,0.0,0.0,0.0,0.0,0.0,0.0,0.0,0.0,0.0,0.0,0.0,0.0,0.0,0.0,0.0,0.0,0.0,0.0,0.0,0.0,4.9767,5.3266,5.4967,5.5736,5.5474,5.0668,4.582,0.0,0.0,0.0,0.0,0.0,0.0,0.0,0.0,0.0,0.0,0.0,0.0,0.0,0.0,0.0,0.0,0.0,0.0,0.0,0.0,0.0,0.0,0.0,0.0,0.0,0.0,0.0,0.0,0.0,0.0,0.0,0.0,0.0,0.0,0.0,0.0,0.0,0.0,0.0,0.0,0.0,0.0,0.0,0.0,0.0,0.0,0.0,0.0,0.0,0.0,0.0,0.0,0.0,0.0,0.0,0.0,0.0,0.0,0.0,0.0,0.0,0.0,0.0,0.0,0.0,0.0,0.0,0.0,0.0,0.0,0.0,0.0,0.0,0.0,0.0,0.0,0.0,0.0,0.0,0.0,0.0,0.0,0.0,0.0,0.0,0.0,0.0,0.0,0.0,0.0,0.0,0.0,0.0,0.0,0.0,0.0,0.0,0.0,0.0,0.0,0.0,0.0,0.0,0.0,0.0,0.0,0.0,0.0,5.1538,5.4218,5.5804,5.6275,5.5676,5.15,4.7264,0.0,0.0,0.0,0.0,0.0,0.0,0.0,0.0,0.0,0.0,0.0,0.0,0.0,0.0,0.0,0.0,0.0,0.0,0.0,0.0,0.0,0.0,0.0,0.0,0.0,0.0,0.0,0.0,0.0,0.0,0.0,0.0,0.0,0.0,0.0,0.0,0.0,0.0,0.0,0.0,0.0,0.0,0.0,0.0,0.0,0.0,0.0,0.0,4.0928,0.0,0.0,0.0,0.0,0.0,0.0,0.0,0.0,0.0,0.0,0.0,0.0,0.0,0.0,0.0,0.0,0.0,0.0,0.0,0.0,0.0,0.0,0.0,0.0,0.0,0.0,0.0,0.0,0.0,0.0,0.0,0.0,0.0,0.0,0.0,0.0,0.0,0.0,0.0,0.0,0.0,0.0,0.0,0.0,0.0,0.0,0.0,0.0,0.0,0.0,0.0,0.0,0.0,0.0,0.0,0.0,0.0,0.0,0.0,5.2119,5.4879,5.5847,5.6097,5.5583,5.2207,4.839,0.0,0.0,0.0,0.0,0.0,0.0,0.0,0.0,0.0,0.0,0.0,0.0,0.0,0.0,0.0,0.0,0.0,0.0,0.0,0.0,0.0,0.0,0.0,0.0,0.0,0.0,0.0,0.0,0.0,0.0,0.0,0.0,0.0,0.0,0.0,0.0,0.0,0.0,0.0,0.0,0.0,0.0,0.0,0.0,0.0,0.0,0.0,0.0,0.0,0.0,0.0,0.0,0.0,0.0,0.0,0.0,0.0,0.0,0.0,0.0,0.0,0.0,0.0,0.0,0.0,0.0,0.0,0.0,0.0,0.0,0.0,0.0,0.0,0.0,0.0,0.0,0.0,0.0,0.0,0.0,0.0,0.0,0.0,0.0,0.0,0.0,0.0,0.0,0.0,0.0,0.0,0.0,0.0,0.0,0.0,0.0,0.0,0.0,0.0,0.0,0.0,0.0,0.0,0.0,0.0,0.0,0.0,4.899,5.2427,5.5465,5.5902,5.5849,5.5437,5.2775,4.906,4.4367,0.0,0.0,0.0,0.0,0.0,0.0,0.0,0.0,0.0,0.0,0.0,0.0,0.0,0.0,0.0,0.0,0.0,0.0,0.0,0.0,0.0,0.0,0.0,0.0,0.0,0.0,0.0,0.0,0.0,0.0,0.0,0.0,0.0,0.0,0.0,0.0,0.0,0.0,3.8485,4.1335,0.0,0.0,0.0,0.0,0.0,0.0,0.0,0.0,4.3241,0.0,0.0,0.0,0.0,0.0,0.0,0.0,0.0,0.0,0.0,0.0,0.0,0.0,0.0,0.0,0.0,0.0,0.0,0.0,0.0,0.0,0.0,0.0,0.0,0.0,0.0,0.0,0.0,0.0,0.0,0.0,0.0,0.0,0.0,0.0,0.0,0.0,0.0,0.0,0.0,0.0,0.0,0.0,0.0,0.0,0.0,0.0,0.0,0.0,0.0,0.0,0.0,0.0,0.0,0.0,0.0,4.6884,5.0334,5.3543,5.6477,5.72,5.653,5.4422,5.269,4.8758,4.2524,0.0,0.0,0.0,0.0,0.0,0.0,0.0,0.0,0.0,0.0,0.0,0.0,0.0,0.0,0.0,0.0,0.0,0.0,0.0,0.0,0.0,0.0,0.0,0.0,0.0,0.0,0.0,0.0,0.0,0.0,0.0,0.0,0.0,0.0,0.0,0.0,0.0,0.0,0.0,4.4127,4.5333,0.0,0.0,0.0,0.0,0.0,0.0,0.0,0.0,4.4986,0.0,0.0,0.0,0.0,0.0,0.0,0.0,0.0,0.0,0.0,0.0,0.0,0.0,0.0,0.0,0.0,0.0,0.0,0.0,0.0,0.0,0.0,0.0,0.0,0.0,0.0,0.0,0.0,0.0,0.0,0.0,0.0,0.0,0.0,0.0,0.0,0.0,0.0,0.0,0.0,0.0,0.0,0.0,0.0,0.0,0.0,0.0,0.0,0.0,0.0,0.0,0.0,0.0,0.0,0.0,4.705,5.1211,5.4437,5.6706,5.6947,5.6103,5.4152,5.211,4.8098,0.0,0.0,0.0,0.0,0.0,0.0,0.0,0.0,0.0,0.0,0.0,0.0,0.0,0.0,0.0,0.0,0.0,0.0,0.0,0.0,0.0,0.0,0.0,0.0,0.0,0.0,0.0,0.0,0.0,0.0,0.0,0.0,0.0,0.0,0.0,0.0,0.0,0.0,0.0,0.0,4.5965,4.7413,4.758,0.0,0.0,0.0,0.0,0.0,0.0,4.728,4.6574,0.0,0.0,0.0,0.0,0.0,0.0,0.0,0.0,0.0,0.0,0.0,0.0,0.0,0.0,0.0,0.0,0.0,0.0,0.0,0.0,0.0,0.0,0.0,0.0,0.0,0.0,0.0,0.0,0.0,0.0,0.0,0.0,0.0,0.0,0.0,0.0,0.0,0.0,0.0,0.0,0.0,0.0,0.0,0.0,0.0,0.0,0.0,0.0,0.0,0.0,0.0,0.0,0.0,0.0,0.0,4.7097,5.1706,5.4915,5.6569,5.6241,5.5207,5.3478,5.0853,4.6855,0.0,0.0,0.0,0.0,0.0,0.0,0.0,0.0,0.0,0.0,0.0,0.0,0.0,0.0,0.0,0.0,0.0,0.0,0.0,0.0,0.0,0.0,0.0,0.0,0.0,0.0,0.0,0.0,0.0,0.0,0.0,0.0,0.0,0.0,0.0,0.0,0.0,0.0,0.0,0.0,0.0,4.9354,4.9692,4.8876,0.0,0.0,0.0,0.0,4.9866,4.978,0.0,0.0,0.0,0.0,0.0,0.0,0.0,0.0,0.0,0.0,0.0,0.0,0.0,0.0,0.0,0.0,0.0,0.0,0.0,0.0,0.0,0.0,0.0,0.0,0.0,0.0,0.0,0.0,0.0,0.0,0.0,0.0,0.0,0.0,0.0,0.0,0.0,0.0,0.0,0.0,0.0,0.0,0.0,0.0,0.0,0.0,0.0,0.0,0.0,0.0,0.0,0.0,0.0,0.0,0.0,0.0,4.7532,5.1794,5.4699,5.6149,5.5694,5.4078,5.1351,4.8511,4.4567,0.0,0.0,0.0,0.0,0.0,0.0,0.0,0.0,0.0,0.0,0.0,0.0,0.0,0.0,0.0,0.0,0.0,0.0,0.0,0.0,0.0,0.0,0.0,0.0,0.0,0.0,0.0,0.0,0.0,0.0,0.0,0.0,0.0,0.0,0.0,0.0,0.0,0.0,0.0,0.0,0.0,5.1039,5.1893,5.1948,5.1396,0.0,0.0,5.2604,5.3577,5.4668,0.0,0.0,0.0,0.0,0.0,0.0,0.0,0.0,0.0,0.0,0.0,0.0,0.0,0.0,0.0,0.0,0.0,0.0,0.0,0.0,0.0,0.0,0.0,0.0,0.0,0.0,0.0,0.0,0.0,0.0,0.0,0.0,0.0,0.0,0.0,0.0,0.0,0.0,0.0,0.0,0.0,0.0,0.0,0.0,0.0,0.0,0.0,0.0,0.0,0.0,0.0,0.0,0.0,0.0,0.0,4.2651,4.7472,5.1779,5.4667,5.6062,5.4344,5.2575,5.092,4.791,4.3981,0.0,0.0,0.0,0.0,0.0,0.0,0.0,0.0,0.0,0.0,0.0,0.0,0.0,0.0,0.0,0.0,0.0,0.0,0.0,0.0,0.0,0.0,0.0,0.0,0.0,0.0,0.0,0.0,0.0,0.0,0.0,0.0,0.0,0.0,0.0,0.0,0.0,0.0,0.0,0.0,0.0,0.0,5.3416,5.4529,0.0,0.0,0.0,5.6231,5.6674,0.0,0.0,0.0,0.0,0.0,0.0,0.0,0.0,0.0,0.0,0.0,0.0,0.0,0.0,0.0,0.0,0.0,0.0,0.0,0.0,0.0,0.0,0.0,0.0,0.0,0.0,0.0,0.0,0.0,0.0,0.0,0.0,0.0,0.0,0.0,0.0,0.0,0.0,0.0,0.0,0.0,0.0,0.0,0.0,0.0,0.0,0.0,0.0,0.0,0.0,0.0,0.0,0.0,0.0,0.0,0.0,0.0,4.7221,5.1706,5.4425,5.5259,5.2955,5.1285,5.0482,4.7311,0.0,0.0,0.0,0.0,0.0,0.0,0.0,0.0,0.0,0.0,0.0,0.0,0.0,0.0,0.0,0.0,0.0,0.0,0.0,0.0,0.0,0.0,0.0,0.0,0.0,0.0,0.0,2.6767,0.0,0.0,0.0,0.0,0.0,0.0,0.0,0.0,0.0,0.0,0.0,0.0,0.0,0.0,5.353,5.5423,5.7492,5.8662,0.0,0.0,5.9866,5.967,5.9664,5.8078,0.0,0.0,0.0,0.0,0.0,0.0,0.0,0.0,0.0,0.0,0.0,0.0,0.0,0.0,0.0,0.0,0.0,0.0,0.0,0.0,0.0,0.0,0.0,0.0,0.0,0.0,0.0,0.0,0.0,0.0,0.0,0.0,0.0,0.0,0.0,0.0,0.0,0.0,0.0,0.0,0.0,0.0,0.0,0.0,0.0,0.0,0.0,0.0,0.0,0.0,0.0,0.0,0.0,0.0,4.2802,4.6856,5.1543,5.3721,5.3106,5.1686,5.0466,4.9389,4.6225,4.2784,0.0,0.0,0.0,0.0,0.0,0.0,0.0,0.0,0.0,0.0,0.0,0.0,0.0,0.0,0.0,0.0,0.0,0.0,0.0,0.0,0.0,0.0,0.0,0.0,0.0,0.0,0.0,0.0,0.0,0.0,0.0,0.0,0.0,0.0,0.0,0.0,0.0,0.0,0.0,0.0,0.0,5.7048,5.8419,6.1282,6.3266,0.0,6.3941,6.3999,6.2634,6.4494,6.3331,5.5127,0.0,0.0,0.0,0.0,0.0,0.0,0.0,0.0,0.0,0.0,0.0,0.0,0.0,0.0,0.0,0.0,0.0,0.0,0.0,0.0,0.0,0.0,0.0,0.0,0.0,0.0,0.0,0.0,0.0,0.0,0.0,0.0,0.0,0.0,0.0,0.0,0.0,0.0,0.0,0.0,0.0,0.0,0.0,0.0,0.0,0.0,0.0,0.0,0.0,0.0,0.0,0.0,0.0,4.257,4.6404,5.0719,5.2923,5.2852,5.1328,5.0098,4.9299,4.6793,4.3864,0.0,0.0,0.0,0.0,0.0,0.0,0.0,0.0,0.0,0.0,0.0,0.0,0.0,0.0,0.0,0.0,0.0,0.0,0.0,0.0,0.0,0.0,0.0,0.0,0.0,0.0,0.0,0.0,3.4757,3.5564,3.5002,0.0,0.0,0.0,0.0,0.0,0.0,0.0,0.0,0.0,0.0,5.9055,6.1679,6.4092,0.0,0.0,6.5684,6.6081,6.4149,6.3987,6.2261,5.6866,5.4239,0.0,0.0,0.0,0.0,0.0,0.0,0.0,0.0,0.0,0.0,0.0,0.0,0.0,0.0,0.0,0.0,0.0,0.0,0.0,0.0,0.0,0.0,0.0,0.0,0.0,0.0,0.0,0.0,0.0,0.0,0.0,0.0,0.0,0.0,0.0,0.0,0.0,0.0,0.0,0.0,0.0,0.0,0.0,0.0,0.0,0.0,0.0,0.0,0.0,0.0,0.0,0.0,4.2297,4.6036,4.9895,5.2019,5.2376,5.0966,4.992,4.9299,4.7529,4.4987,0.0,0.0,0.0,0.0,0.0,0.0,0.0,0.0,0.0,0.0,0.0,0.0,0.0,0.0,0.0,0.0,0.0,0.0,0.0,0.0,0.0,0.0,0.0,0.0,0.0,0.0,0.0,0.0,3.6866,3.7246,3.5556,0.0,0.0,0.0,0.0,0.0,0.0,0.0,0.0,0.0,0.0,6.2034,6.4868,6.6729,6.7444,6.644,6.7387,6.7455,6.53,6.4038,6.2125,5.8474,0.0,0.0,0.0,0.0,0.0,0.0,0.0,0.0,0.0,0.0,0.0,0.0,0.0,0.0,0.0,0.0,0.0,0.0,0.0,0.0,0.0,0.0,0.0,0.0,0.0,0.0,0.0,2.8039,0.0,0.0,2.5923,0.0,0.0,0.0,0.0,0.0,0.0,0.0,0.0,0.0,0.0,0.0,0.0,0.0,0.0,0.0,0.0,0.0,0.0,0.0,0.0,0.0,0.0,4.1985,4.5678,4.9134,5.0982,5.1233,5.0548,4.992,4.9299,4.8177,4.5923,4.2458,0.0,0.0,0.0,0.0,0.0,0.0,0.0,0.0,0.0,0.0,0.0,0.0,0.0,0.0,0.0,0.0,0.0,0.0,0.0,0.0,0.0,0.0,0.0,0.0,0.0,0.0,3.5191,3.6341,3.647,0.0,0.0,0.0,0.0,0.0,0.0,0.0,0.0,0.0,5.7206,6.2588,6.6545,6.7897,6.9243,7.0037,7.0003,6.9485,6.8301,6.6011,6.5649,6.4177,0.0,0.0,0.0,0.0,0.0,0.0,0.0,0.0,0.0,0.0,0.0,0.0,0.0,0.0,0.0,0.0,0.0,0.0,0.0,0.0,0.0,0.0,0.0,0.0,0.0,0.0,0.0,3.376,3.3443,0.0,0.0,0.0,0.0,0.0,0.0,0.0,0.0,0.0,0.0,0.0,4.1224,4.1259,0.0,0.0,0.0,0.0,0.0,0.0,0.0,0.0,0.0,0.0,0.0,0.0,4.2307,4.5915,4.916,5.0936,5.1193,5.0996,5.0361,4.9318,4.8506,4.6383,4.2825,0.0,0.0,0.0,0.0,0.0,0.0,0.0,0.0,0.0,0.0,0.0,0.0,0.0,0.0,0.0,0.0,0.0,0.0,0.0,0.0,0.0,0.0,0.0,0.0,0.0,3.566,0.0,0.0,0.0,0.0,0.0,0.0,0.0,0.0,0.0,0.0,5.1382,5.6466,6.1907,6.5447,6.8192,7.0012,7.0635,7.077,0.0,0.0,0.0,0.0,0.0,0.0,0.0,0.0,0.0,0.0,0.0,0.0,0.0,0.0,6.3898,5.9935,5.816,5.749,5.8198,0.0,0.0,0.0,0.0,0.0,0.0,0.0,0.0,0.0,0.0,0.0,0.0,0.0,0.0,3.7814,3.7393,3.6636,0.0,0.0,0.0,0.0,0.0,0.0,0.0,0.0,4.3123,4.4904,4.5695,4.553,4.5674,4.6013,4.4143,4.1007,0.0,0.0,0.0,0.0,0.0,0.0,0.0,0.0,4.294,4.6325,4.9158,5.081,5.1193,5.1217,5.0679,4.9625,4.8596,4.6711,4.3892,4.2395,4.017,0.0,0.0,0.0,0.0,0.0,0.0,0.0,0.0,0.0,0.0,0.0,0.0,0.0,0.0,0.0,0.0,0.0,0.0,0.0,0.0,0.0,0.0,0.0,3.7491,0.0,0.0,0.0,0.0,0.0,0.0,0.0,0.0,0.0,5.1728,5.6226,6.1096,6.5537,6.7923,6.9751,7.1109,0.0,0.0,0.0,0.0,0.0,0.0,0.0,6.7825,6.6224,6.7267,6.8552,6.9354,7.0584,7.1955,7.3428,0.0,0.0,6.6981,6.5164,6.4686,6.5292,6.6234,6.7232,6.8189,6.9818,7.1495,0.0,0.0,0.0,0.0,3.7371,0.0,0.0,0.0,4.1455,4.1222,0.0,4.0492,0.0,0.0,0.0,0.0,3.6194,4.1163,0.0,0.0,4.8887,5.0725,4.9855,4.9652,4.96,4.9517,4.8281,4.7215,4.6103,3.9152,3.5057,0.0,0.0,0.0,0.0,0.0,4.3818,4.69,4.9087,5.0518,5.1176,5.1217,5.0865,5.017,4.8571,4.7034,4.5677,4.5464,4.4096,4.1183,3.9242,0.0,0.0,0.0,0.0,0.0,0.0,0.0,0.0,0.0,0.0,0.0,0.0,0.0,0.0,0.0,0.0,0.0,0.0,0.0,0.0,3.782,0.0,0.0,0.0,0.0,0.0,0.0,0.0,0.0,0.0,5.6559,5.6953,6.1648,6.5895,6.8048,0.0,0.0,0.0,0.0,7.2214,7.1526,7.2045,7.1988,7.059,7.0996,7.1233,7.0477,0.0,0.0,7.6995,7.6711,7.6815,7.847,7.853,7.7154,7.3048,7.2426,7.2789,7.327,7.3272,7.3888,7.531,7.5651,7.6189,4.6206,0.0,0.0,0.0,0.0,4.413,4.5924,4.7688,4.8439,4.8315,4.758,4.7181,0.0,0.0,0.0,0.0,0.0,0.0,4.6817,4.8264,5.1161,5.2717,5.3217,5.3669,5.3898,5.3839,5.2184,5.0958,5.01,4.6225,4.2772,3.991,0.0,0.0,0.0,0.0,4.5265,4.7691,4.9361,5.0536,5.1217,5.1217,5.0877,5.0207,4.9313,4.8484,4.7803,4.727,4.6311,4.484,4.1773,0.0,0.0,0.0,0.0,0.0,0.0,0.0,0.0,0.0,0.0,0.0,0.0,0.0,0.0,0.0,0.0,0.0,0.0,0.0,3.9075,3.9656,4.0317,0.0,0.0,0.0,0.0,0.0,0.0,0.0,0.0,0.0,6.4683,6.629,6.8359,0.0,0.0,7.2311,7.2287,7.308,7.3614,7.3411,7.4138,0.0,7.351,7.4458,7.5033,7.4255,7.6593,7.8948,7.995,8.0378,8.0762,8.1279,8.1703,8.1588,8.0406,7.8111,7.7026,7.7937,7.8998,8.016,8.161,8.2732,8.3582,5.2623,4.9293,4.7036,4.6467,4.7305,4.8839,5.0339,5.1798,5.2232,5.2136,5.1661,5.1666,4.9651,4.6243,4.6089,0.0,0.0,0.0,5.027,5.1808,5.2907,5.3716,5.435,5.4334,5.4357,5.4329,5.3207,5.2427,5.1957,4.9972,4.8025,4.5971,0.0,4.2509,4.3689,4.5259,4.7099,4.9142,5.0373,5.1337,5.1977,5.1726,5.1146,5.0237,4.9841,4.9437,4.8979,4.8901,4.8435,4.7484,4.5147,4.2187,0.0,0.0,0.0,0.0,0.0,0.0,0.0,0.0,0.0,0.0,0.0,3.3625,3.3861,0.0,0.0,0.0,3.7256,3.9518,4.3292,4.3694,0.0,0.0,0.0,0.0,0.0,0.0,0.0,6.0994,6.4685,6.7534,6.8891,6.9359,7.0196,7.187,7.2581,7.2985,7.2993,0.0,7.4995,7.5612,7.6695,7.7333,7.6893,7.7841,7.8665,7.8788,8.0255,8.1713,8.2477,8.2987,8.3274,8.3342,8.3896,8.4417,8.4417,8.2793,8.1663,8.2319,8.3118,8.4133,8.5303,8.6284,8.6961,5.806,5.769,5.3286,5.1647,5.2063,5.3621,5.4134,5.3856,5.3864,5.3635,5.3361,5.4322,5.332,5.079,5.0041,0.0,5.0055,5.2062,5.3489,5.4475,5.4125,5.3991,5.3986,5.2974,5.2516,5.259,5.2457,5.247,5.2471,5.1431,5.1194,5.1612,4.779,4.5997,4.6344,4.767,4.9209,5.0974,5.1818,5.2588,5.3169,5.2546,5.1606,5.0387,5.0267,4.9912,4.937,5.0123,5.0123,4.9117,4.8593,4.6271,4.1944,0.0,0.0,0.0,0.0,0.0,0.0,0.0,0.0,0.0,0.0,0.0,0.0,0.0,0.0,4.0369,4.2181,0.0,4.8214,4.9314,0.0,0.0,0.0,5.603,5.8841,6.18,6.4248,6.5778,0.0,0.0,7.0431,7.1263,7.1652,7.128,7.2493,7.3487,7.3669,7.5023,7.6483,7.7965,7.9418,8.0344,8.0175,8.0818,8.1731,8.2949,8.3592,8.3748,8.433,8.4512,8.458,8.4647,8.5283,8.5804,8.5872,8.6163,8.6724,8.6041,8.5939,8.6176,8.6907,8.7231,8.7536,5.9582,5.9481,5.8363,5.7288,5.6455,5.7387,5.7437,5.6876,5.6842,5.6508,5.5919,5.618,5.5891,5.521,5.448,5.372,5.3008,5.3506,5.3747,5.3752,5.3646,5.39,5.4436,5.418,5.4334,5.474,5.3928,5.3792,5.4213,5.3155,5.2432,5.2069,5.1564,5.0815,4.9933,5.0562,5.1205,5.1891,5.2606,5.3037,5.3156,5.2546,5.2037,5.1738,5.0715,4.9931,4.9318,4.9034,4.8887,4.8846,4.7863,4.6924,4.6011,4.1874,0.0,0.0,0.0,0.0,0.0,0.0,0.0,0.0,0.0,4.117,4.195,0.0,4.6276,0.0,4.6958,4.9841,5.3467,5.455,0.0,0.0,6.1176,6.3026,6.5393,6.7302,6.8863,6.9941,7.0788,7.14,7.1797,7.327,7.3861,7.2707,7.3059,7.411,7.5833,7.7121,7.8393,7.9885,8.1078,8.1853,8.1921,8.2509,8.3253,8.4187,8.4323,8.4424,8.458,8.458,8.4796,8.5384,8.5669,8.6007,8.6569,8.6792,8.7299,8.8037,8.7868,8.7699,8.8443,8.9004,8.9464,6.1424,6.1139,6.1129,6.0655,5.9887,5.9597,5.9259,5.8906,5.8872,5.8646,5.8244,5.7917,5.7461,5.6943,5.6535,5.5737,5.4685,5.498,5.5021,5.4825,5.4346,5.4362,5.472,5.4213,5.4154,5.4505,5.3914,5.3791,5.4098,5.3525,5.3156,5.3114,5.3473,5.3416,5.2957,5.259,5.2623,5.3084,5.3755,5.3785,5.3228,5.2827,5.2217,5.1337,5.0596,4.977,4.8887,4.8498,4.8416,4.8651,4.8388,4.7944,4.7325,4.455,4.1753,0.0,0.0,0.0,0.0,0.0,0.0,0.0,0.0,0.0,0.0,0.0,5.2498,5.2116,5.3599,5.5953,5.9327,6.0917,6.2854,6.5605,6.6895,6.8392,7.0572,7.1211,7.1781,7.2563,7.2818,7.2829,7.2629,7.3503,7.4008,7.339,7.3551,7.4283,7.588,7.697,7.8343,8.0582,8.1751,8.2617,8.3244,8.3714,8.412,8.4478,8.458,8.4695,8.5033,8.5148,8.5384,8.6129,8.6535,8.7022,8.7732,8.8192,8.8767,8.9661,8.9763,8.9661,8.9999,9.0391,9.0696,6.316,6.2443,6.2443,6.232,6.2055,6.0725,6.0174,6.015,6.0049,5.9884,5.9595,5.8959,5.8097,5.7124,5.7102,5.6487,5.5387,5.6001,5.6221,5.6023,5.5118,5.4676,5.4649,5.3663,5.3258,5.3348,5.3348,5.3378,5.3468,5.3456,5.3785,5.4418,5.4461,5.476,5.5251,5.4156,5.3815,5.4341,5.491,5.461,5.3486,5.3288,5.2306,5.0566,5.0207,4.9471,4.8248,4.8098,4.8104,4.8285,4.9064,4.8901,4.7622,4.6977,4.5372,0.0,4.131,0.0,0.0,0.0,0.0,0.0,0.0,0.0,0.0,5.6625,5.8787,5.9964,6.0877,6.255,6.5358,6.734,6.9063,7.058,7.1235,7.2382,7.4248,7.3909,7.3659,7.4175,7.4126,7.3796,7.316,7.3086,7.3402,7.3928,7.4042,7.4381,7.5084,7.5987,7.7635,8.0525,8.1674,8.2701,8.409,8.4512,8.4546,8.458,8.4762,8.4999,8.5669,8.5872,8.6163,8.6907,8.7516,8.8206,8.9086,8.9748,9.0425,9.1169,9.1338,9.1305,9.1237,9.1474,9.1575,6.3699,6.2678,6.2623,6.2027,6.1016,6.0703,6.0533,6.0459,5.9873,5.871,5.7203,5.703,5.6825,5.6638,5.6649,5.6031,5.5011,5.5155,5.4711,5.3813,5.3615,5.3507,5.3525,5.3296,5.3486,5.3982,5.4,5.4281,5.4832,5.4832,5.5149,5.5803,5.5833,5.5893,5.5983,0.0,0.0,0.0,5.5132,5.5072,5.479,5.3755,5.2767,5.1828,5.0272,0.0,4.7559,4.6969,4.6763,4.6953,4.7548,0.0,0.0,0.0,0.0,0.0,0.0,0.0,0.0,0.0,0.0,0.0,5.9321,5.9728,5.8046,6.1254,6.3811,6.4673,6.6883,6.9022,7.0759,7.1237,7.2056,7.3485,7.3695,7.4127,7.5075,7.4971,7.4874,7.4949,7.4393,7.3891,7.3786,7.4168,7.4527,7.4646,7.4706,7.4766,7.4925,7.613,7.7809,7.9748,8.132,8.2816,8.4352,8.4614,8.4695,8.4647,8.5168,8.5601,8.5872,8.6366,8.6941,8.7651,8.7922,8.8463,8.9715,9.0106,9.0648,9.1933,9.2203,9.2,9.144,9.23,9.3146,6.267,6.1729,6.1718,6.131,0.0,6.07,6.0329,5.9729,5.9692,5.8862,5.7635,5.7642,5.7316,5.6749,5.6749,5.6124,5.5031,5.5061,5.4928,5.4678,5.4324,5.4354,5.4695,5.4665,5.4845,5.5192,5.5466,5.582,5.6107,5.6137,5.6299,5.6641,5.6658,5.6628,5.6641,5.6641,5.6179,5.5222,5.5222,5.5029,5.47,5.4054,5.3054,5.1738,5.0451,0.0,0.0,0.0,0.0,0.0,0.0,0.0,0.0,0.0,0.0,5.1514,5.2518,5.3606,5.481,5.7676,6.0155,6.1931,6.4865,6.5714,6.3586,6.6296,6.8542,6.9661,7.1672,7.3074,7.339,7.4362,7.5002,7.4977,7.4823,7.5029,7.5567,7.5052,7.4712,7.4965,7.4661,7.4407,7.4407,7.4646,7.4886,7.4886,7.4886,7.4886,7.4954,7.559,7.6929,7.9436,8.1925,8.3627,8.4426,8.4999,8.5202,8.5283,8.5824,8.6433,8.6853,8.7177,8.7671,8.8375,8.8545,8.9004,9.0357,9.0763,9.1203,9.259,9.2996,9.3049,9.2962,9.3605,9.4248,6.1567,6.0765,6.0765,6.0622,6.0407,6.0439,5.9795,5.88,5.9162,0.0,0.0,5.8483,5.7952,5.7037,5.6994,5.6469,5.5576,5.5551,5.582,5.6299,5.579,5.582,5.6342,5.6372,5.6359,5.6359,5.6868,5.7094,5.7094,5.7094,5.7167,5.7274,5.7274,5.7274,5.7274,5.7154,5.6585,5.5611,5.5551,5.5281,5.473,5.4491,5.3521,5.1786,5.0966,4.971,4.7897,4.7287,4.722,4.7716,4.8507,4.9666,5.1256,5.2576,5.3533,5.4264,5.6625,5.8458,5.9343,6.2,6.4285,6.5865,6.8595,6.9962,6.9354,7.0783,7.2195,7.3565,7.4896,7.5355,7.4734,7.6207,7.6823,7.5479,7.5122,7.5167,7.561,7.4863,7.4372,7.4796,7.489,7.4886,7.4856,7.4886,7.4886,7.4886,7.4886,7.4993,7.5087,7.5406,7.6755,7.9834,8.2486,8.4352,8.5013,8.5554,8.5973,8.6027,8.6602,8.7299,8.782,8.8091,8.8443,8.8917,8.9154,8.9816,9.0966,9.1372,9.1981,9.3315,9.3601,9.3857,9.465,9.489,9.5127,6.2114,6.0963,6.0963,6.0319,5.9318,5.9318,5.891,5.8179,5.7708,5.7423,5.732,5.7333,5.7243,5.7093,5.708,5.7019,5.6838,5.6825,5.6898,5.6958,5.6885,5.6898,5.6958,5.6987,5.6958,5.6987,5.7077,5.7094,5.7094,5.7124,5.7393,5.7889,5.7949,5.7965,5.7905,5.7393,5.7017,5.6838,5.6825,5.6795,5.6675,5.5611,5.467,5.379,5.2564,5.1277,4.9848,4.9699,5.0075,5.0909,5.1238,5.2574,5.5108,5.5625,5.664,5.8421,6.0541,6.2366,6.378,6.6542,6.9045,7.103,7.0679,7.1238,7.3447,7.3314,7.3447,7.4313,7.5036,7.5384,7.5296,7.5498,7.5588,7.52,7.455,7.4148,7.4352,7.4598,7.4766,7.4886,7.4886,7.4886,7.4886,7.4916,7.4946,7.4916,7.4976,7.5125,7.5781,7.6465,7.8221,8.0899,8.2631,8.4276,8.5916,8.6623,8.6738,8.6758,8.7347,8.7888,8.8057,8.8511,8.8917,8.9086,8.9579,9.0309,9.1203,9.1831,9.2522,9.3417,9.362,9.4089,9.5266,9.5627,9.592,6.1621,6.1078,6.1051,6.0717,6.0162,6.0206,6.0013,5.9714,5.9428,5.8441,5.7154,5.7094,5.7094,5.7094,5.7094,5.7094,5.7094,5.7094,5.7304,5.759,5.7274,5.7304,5.762,5.7649,5.7649,5.7649,5.8022,5.8201,5.8171,5.8201,5.8338,5.8637,5.8637,5.8667,5.8637,5.8351,5.8171,5.8171,5.7453,5.7094,5.7107,5.6526,5.5927,5.5311,5.4311,5.3384,5.2402,5.2025,5.2342,5.3512,5.3634,5.4755,5.7,5.7622,5.8429,5.9788,6.2749,6.463,6.4918,6.7552,6.9846,7.1547,7.1164,7.1853,7.4373,7.3505,7.3474,7.4812,7.525,7.5357,7.531,7.5574,7.5418,7.457,7.4409,7.4454,7.4467,7.4676,7.4886,7.4886,7.4886,7.4886,7.4886,7.5215,7.5275,7.5035,7.5185,7.5801,7.6847,7.8605,8.0238,8.1785,8.3767,8.5474,8.675,8.7265,8.7448,8.7516,8.8139,8.8545,8.8612,8.8965,8.9221,8.9613,9.0005,9.0648,9.1628,9.2136,9.2725,9.3417,9.3943,9.4597,9.5552,9.6387,9.724,6.1112,6.109,6.109,6.109,6.109,6.109,6.109,6.109,6.109,5.9923,5.8141,5.7842,5.7693,5.7543,5.7556,5.7543,5.7543,5.7543,5.7842,5.8234,5.7782,5.7902,5.8504,5.8547,5.8534,5.8607,5.9099,5.9235,5.9129,5.9099,5.9189,5.9338,5.9474,5.9564,5.9548,5.9534,5.9534,5.9474,5.853,5.7842,5.7543,5.7436,5.7154,5.6851,5.6209,5.57,5.5329,5.479,5.5072,5.6196,5.6296,5.7133,5.8852,5.9488,6.0068,6.0985,6.4164,6.6146,6.6143,6.7886,6.9704,7.1055,7.0887,7.1637,7.3546,7.2797,7.294,7.4741,7.489,7.4808,7.491,7.5483,7.5406,7.429,7.4587,7.4856,7.4886,7.4886,7.4886,7.4886,7.4886,7.4946,7.5185,7.5557,7.5736,7.5557,7.6228,7.7327,7.8465,8.0932,8.277,8.3462,8.5384,8.7052,8.738,8.7868,8.8206,8.8226,8.868,8.8998,8.91,8.9187,8.9526,9.0087,9.0546,9.129,9.2373,9.288,9.332,9.4079,9.4654,9.5191,9.5977,9.7049,9.8172,6.1127,6.1106,6.115,6.109,6.115,6.115,6.115,6.115,6.112,6.1,6.0581,6.0086,5.9458,5.8979,5.8919,5.8919,5.8919,5.8906,5.8966,5.9009,5.8949,5.9279,5.9847,5.9891,5.9921,5.9891,5.998,5.9741,5.9249,5.9175,5.9428,6.001,6.0625,6.088,6.088,6.088,6.088,6.091,6.0791,6.0133,5.8949,5.8338,5.8278,5.883,5.8188,5.8098,5.8487,5.8577,5.886,5.9548,5.958,6.0268,6.1509,6.1781,6.211,6.2777,6.4883,6.6845,6.8498,6.8959,6.9708,7.0929,7.0041,7.0204,7.2117,7.1623,7.1982,7.3739,7.3605,7.3554,7.4001,7.4669,7.4983,7.4809,7.4826,7.4886,7.4886,7.4886,7.4886,7.4886,7.4946,7.5125,7.5647,7.5886,7.6155,7.6634,7.8032,7.9252,7.9902,8.2923,8.5327,8.5827,8.7147,8.8053,8.8612,8.8931,8.8917,8.8917,8.9018,8.9134,8.9201,8.9627,9.0174,9.0425,9.129,9.2305,9.3267,9.3977,9.462,9.506,9.5533,9.592,9.6646,9.7443,9.824,6.2274,6.2271,6.2285,6.2285,6.2285,6.2271,6.2285,6.2285,6.2271,6.2061,6.1702,6.1373,6.0894,6.0282,6.0282,6.0282,6.0282,6.0296,6.0296,6.0282,6.0282,6.0432,6.0685,6.0715,6.0685,6.0685,6.0715,6.0565,6.0342,6.0282,6.0446,6.0671,6.097,6.109,6.109,6.109,6.109,6.109,6.109,6.0821,6.0312,6.0013,6.0013,6.0222,6.0013,5.9983,6.0222,6.0282,6.0595,6.1208,6.1297,6.1716,6.2644,6.2674,6.2974,6.3691,6.554,6.7354,6.8986,6.9065,6.9474,7.043,7.027,7.0671,7.1848,7.2026,7.2655,7.3672,7.3667,7.3762,7.439,7.4736,7.4886,7.4886,7.4886,7.4886,7.4886,7.4886,7.4886,7.4916,7.5245,7.5574,7.5874,7.6213,7.6842,7.7663,7.8725,7.914,7.9646,8.2651,8.4709,8.5334,8.7013,8.8579,8.9052,8.9134,8.9134,8.9134,8.9134,8.9134,8.9221,8.9715,9.0309,9.0763,9.1764,9.288,9.403,9.4417,9.4924,9.5635,9.6323,9.6677,9.7409,9.78,9.8409,6.3108,6.3108,6.3108,6.3108,6.3108,6.3108,6.3108,6.3108,6.3108,6.2824,6.2405,6.2375,6.2121,6.1628,6.1299,6.109,6.109,6.109,6.109,6.109,6.109,6.1166,6.1373,6.1359,6.1359,6.1359,6.1359,6.1269,6.115,6.1299,6.1359,6.1389,6.1553,6.1672,6.1642,6.1628,6.1642,6.1658,6.1628,6.1628,6.1672,6.1628,6.1569,6.1389,6.1359,6.1449,6.1642,6.1642,6.1882,6.2331,6.2375,6.2674,6.3303,6.3363,6.3782,6.4784,6.6161,6.7592,6.8995,6.9208,6.9542,7.0201,7.0799,7.1474,7.2116,7.2804,7.3373,7.3812,7.4078,7.4407,7.4796,7.4886,7.4886,7.4886,7.4886,7.4886,7.4886,7.5035,7.5215,7.5245,7.5766,7.6228,7.6472,7.7009,7.7776,7.8501,7.8818,7.9224,8.0295,8.2891,8.4946,8.5351,8.7631,8.8855,8.9134,8.9134,8.9134,8.9187,8.9221,8.9492,8.9526,9.0154,9.085,9.1628,9.2271,9.3184,9.4586,9.506,9.5432,9.6176,9.6815,9.732,9.7815,9.8003,9.863,6.3108,6.3108,6.3108,6.3108,6.3108,6.3108,6.3108,6.3108,6.3108,6.3078,6.3018,6.3003,6.3018,6.2854,6.1732,6.115,6.115,6.121,6.121,6.121,6.121,6.1493,6.2032,6.2076,6.2061,6.2061,6.2061,6.1792,6.1283,6.1748,6.2061,6.2091,6.2614,6.2958,6.2898,6.2868,6.2988,6.2868,6.2854,6.2958,6.2944,6.2958,6.2644,6.2121,6.2061,6.2331,6.2868,6.2988,6.3003,6.3048,6.3033,6.3333,6.3857,6.4006,6.4874,6.6505,6.6969,6.7658,6.8921,6.9698,7.0277,7.0859,7.1547,7.2146,7.2804,7.3462,7.3881,7.3928,7.4467,7.4826,7.4886,7.4886,7.4886,7.4916,7.4916,7.4946,7.4946,7.5527,7.5826,7.5946,7.6377,7.6976,7.7592,7.831,7.8555,7.9034,8.009,8.1404,8.2781,8.4867,8.6468,8.781,8.87,8.9134,8.9134,8.9289,8.9221,8.9357,8.9782,9.0154,9.0648,9.1189,9.1831,9.2406,9.2928,9.3808,9.5161,9.6041,9.6514,9.7089,9.7495,9.7935,9.8206,9.807,9.8731,6.3108,6.3108,6.3108,6.3108,6.3108,6.3108,6.3108,6.3108,6.3108,6.3108,6.3108,6.3108,6.3108,6.3063,6.2614,6.2375,6.2361,6.2405,6.2361,6.2375,6.2375,6.2495,6.2704,6.2734,6.2734,6.2734,6.2734,6.2614,6.2435,6.2644,6.2734,6.2764,6.2988,6.3108,6.3108,6.3108,6.3108,6.3108,6.3108,6.3108,6.3108,6.3108,6.2974,6.2778,6.2748,6.2854,6.3108,6.3108,6.3108,6.3108,6.3452,6.3782,6.4096,6.5248,6.6206,6.7014,6.8211,6.9303,7.0141,7.0845,7.1487,7.2129,7.2804,7.3223,7.3582,7.4138,7.4527,7.4587,7.4706,7.4886,7.4886,7.4886,7.4886,7.4946,7.5275,7.5514,7.5647,7.6078,7.6467,7.6557,7.7065,7.7694,7.825,7.8657,7.8807,7.8831,7.9395,8.0633,8.2145,8.3818,8.5738,8.7205,8.8381,8.9255,8.9816,8.9816,8.985,9.0053,9.0357,9.0763,9.1203,9.1764,9.2373,9.2575,9.3199,9.4229,9.5466,9.6717,9.7258,9.7548,9.7987,9.819,9.8612,9.851,9.9322,6.3108,6.3108,6.3108,6.3108,6.3108,6.3108,6.3108,6.3108,6.3108,6.3108,6.3108,6.3108,6.3108,6.3108,6.3108,6.3108,6.3108,6.3108,6.3108,6.3108,6.3108,6.3108,6.3108,6.3108,6.3108,6.3108,6.3108,6.3108,6.3108,6.3108,6.3108,6.3108,6.3108,6.3108,6.3108,6.3108,6.3108,6.3108,6.3108,6.3108,6.3108,6.3108,6.3108,6.3138,6.3303,6.3273,6.3138,6.3273,6.3393,6.3482,6.3977,6.4515,6.5084,6.667,6.7762,6.8092,6.9229,7.0366,7.1128,7.1637,7.2282,7.3133,7.3612,7.3971,7.418,7.4646,7.4856,7.4886,7.4886,7.4886,7.4886,7.4886,7.4886,7.4946,7.5288,7.5677,7.5916,7.6437,7.6976,7.7424,7.7843,7.831,7.8687,7.8777,7.91,7.9516,7.9658,8.0505,8.2959,8.4347,8.5917,8.7668,8.9168,9.0035,9.056,9.0797,9.0696,9.0831,9.1203,9.1508,9.188,9.2406,9.2812,9.2914,9.3556,9.462,9.5804,9.7108,9.7683,9.7953,9.8055,9.8206,9.8612,9.9018,9.9829,6.3108,6.3108,6.3108,6.3108,6.3108,6.3108,6.3108,6.3108,6.3108,6.3108,6.3108,6.3108,6.3108,6.3108,6.3108,6.3108,6.3108,6.3108,6.3108,6.3108,6.3108,6.3108,6.3108,6.3108,6.3108,6.3108,6.3108,6.3108,6.3108,6.3108,6.3108,6.3108,6.3108,6.3108,6.3108,6.3108,6.3108,6.3108,6.3108,6.3108,6.3108,6.3108,6.3138,6.3227,6.3647,6.3707,6.3257,6.3707,6.4006,6.4096,6.468,6.5637,6.6879,6.8196,6.9243,6.9738,7.0037,7.0666,7.1773,7.2042,7.2701,7.3642,7.3941,7.424,7.4676,7.4856,7.4886,7.4886,7.4886,7.4886,7.4886,7.4976,7.4976,7.4916,7.5125,7.5467,7.5929,7.6497,7.7305,7.837,7.8669,7.8759,7.8807,7.9076,7.9706,8.0827,8.1405,8.268,8.5768,8.6819,8.8409,9.0243,9.0818,9.087,9.1372,9.1812,9.1677,9.1643,9.2068,9.2474,9.2793,9.3252,9.3673,9.3909,9.4518,9.5533,9.6191,9.736,9.7784,9.8021,9.8089,9.8273,9.8747,9.9254,10.0048,6.3108,6.3108,6.3108,6.3108,6.3108,6.3108,6.3108,6.3108,6.3108,6.3108,6.3108,6.3108,6.3108,6.3108,6.3108,6.3108,6.3108,6.3108,6.3108,6.3108,6.3108,6.3108,6.3108,6.3108,6.3108,6.3108,6.3108,6.3108,6.3108,6.3108,6.3108,6.3108,6.3108,6.3108,6.3138,6.3108,6.3108,6.3108,6.3108,6.3108,6.3108,6.3108,6.3303,6.3692,6.3931,6.4082,6.4381,6.459,6.468,6.471,6.5772,6.6999,6.8256,6.9183,6.9977,7.056,7.1085,7.1893,7.3043,7.33,7.3599,7.4377,7.4557,7.4646,7.4856,7.4886,7.4886,7.4886,7.4886,7.4886,7.4976,7.5365,7.5377,7.4963,7.5677,7.6198,7.6557,7.7454,7.825,7.8669,7.8789,7.8968,7.9491,7.9957,8.0837,8.1897,8.2701,8.4459,8.6775,8.7887,8.8548,9.0722,9.103,9.1711,9.2252,9.2542,9.2489,9.2522,9.2895,9.3218,9.359,9.3861,9.4315,9.4958,9.5601,9.621,9.6868,9.736,9.7818,9.7987,9.8021,9.8427,9.8984,9.9593,10.0303,6.3108,6.3108,6.3108,6.3227,6.3363,6.3213,6.3213,6.3363,6.3197,6.3108,6.3108,6.3108,6.3108,6.3108,6.3108,6.3108,6.3108,6.3108,6.3108,6.3108,6.3108,6.3108,6.3108,6.3108,6.3108,6.3108,6.3108,6.3108,6.3108,6.3108,6.3108,6.3108,6.3108,6.3257,6.3393,6.3452,6.3512,6.3737,6.3797,6.3797,6.3797,6.3797,6.3977,6.4351,6.4605,6.5084,6.5697,6.5966,6.6011,6.6056,6.7238,6.8585,6.9662,7.0336,7.0995,7.1577,7.2056,7.2744,7.3732,7.3821,7.4197,7.4736,7.4886,7.4886,7.4886,7.4886,7.4886,7.4886,7.5155,7.5275,7.5365,7.5856,7.5988,7.5677,7.6305,7.6868,7.7245,7.813,7.8861,7.9077,7.919,7.9531,8.0182,8.067,8.166,8.2599,8.3947,8.5663,8.7712,8.9054,9.0501,9.1686,9.2285,9.2861,9.3184,9.3286,9.3233,9.3402,9.3654,9.3909,9.4199,9.4368,9.4673,9.5669,9.6428,9.6751,9.736,9.7631,9.7987,9.7987,9.819,9.8596,9.9171,9.9746,10.0456,6.3227,6.3183,6.3213,6.3588,6.3977,6.3542,6.3617,6.3917,6.3542,6.3347,6.3317,6.3393,6.3347,6.3287,6.3422,6.3422,6.3257,6.3377,6.3393,6.3393,6.3363,6.3422,6.3422,6.3333,6.3287,6.3227,6.3227,6.3197,6.3257,6.3168,6.3168,6.3333,6.3333,6.3482,6.3947,6.4066,6.4321,6.4725,6.4874,6.4874,6.4874,6.4919,6.5039,6.5144,6.5697,6.634,6.7059,6.7657,6.7762,6.7523,6.896,7.0111,7.0889,7.1593,7.2176,7.2787,7.2937,7.3296,7.3791,7.4061,7.4287,7.4826,7.5006,7.4963,7.5065,7.5185,7.5275,7.5275,7.5647,7.5946,7.6066,7.6497,7.6808,7.6988,7.7155,7.7394,7.7873,7.8579,7.9286,7.9731,7.988,8.013,8.0782,8.1037,8.1956,8.3299,8.5014,8.7178,8.8918,9.0547,9.2676,9.3387,9.347,9.3808,9.4064,9.3895,9.3943,9.4364,9.4582,9.4785,9.5127,9.533,9.5552,9.648,9.7071,9.7428,9.78,9.8138,9.8427,9.863,9.8833,9.9036,9.9476,10.0084,10.0659,6.45,6.45,6.45,6.459,6.4725,6.456,6.4545,6.4695,6.456,6.4425,6.4485,6.45,6.4396,6.447,6.447,6.45,6.4441,6.4441,6.45,6.45,6.45,6.45,6.4351,6.3977,6.3782,6.3767,6.3782,6.3752,6.3722,6.3393,6.3602,6.4441,6.3977,6.4096,6.462,6.474,6.4815,6.4964,6.5024,6.5084,6.5129,6.5144,6.5518,6.643,6.667,6.7358,6.8375,6.9093,6.9409,6.9319,7.0097,7.0979,7.1637,7.2295,7.2954,7.3492,7.3672,7.3911,7.4467,7.4616,7.4736,7.4886,7.5335,7.5599,7.5647,7.6048,7.6245,7.6317,7.6497,7.6587,7.6676,7.7215,7.7933,7.8771,7.8591,7.8549,7.916,7.9836,8.0377,8.0511,8.0533,8.0916,8.1516,8.2341,8.3082,8.4291,8.6271,8.8331,8.9948,9.1477,9.332,9.3909,9.418,9.4586,9.4789,9.4586,9.4736,9.5259,9.5578,9.5827,9.6289,9.6766,9.7089,9.7698,9.7732,9.8003,9.8442,9.8848,9.9085,9.9273,9.9509,9.9712,10.0084,10.0592,10.1014,6.4994,6.4994,6.4994,6.5174,6.5368,6.5114,6.5144,6.5323,6.5114,6.4994,6.5008,6.4994,6.5009,6.4994,6.4994,6.4994,6.4994,6.4994,6.4994,6.4994,6.4964,6.4964,6.4874,6.456,6.4411,6.4411,6.4425,6.4411,6.4395,6.4036,6.4351,6.4755,6.4605,6.48,6.5368,6.5428,6.5727,6.6161,6.6281,6.6355,6.6654,6.6684,6.7013,6.7747,6.7867,6.8465,6.9692,7.0709,7.0979,7.0666,7.0979,7.1727,7.2671,7.3073,7.3642,7.4257,7.4317,7.4527,7.4796,7.4886,7.5035,7.5305,7.5736,7.5988,7.6258,7.6617,7.6826,7.6766,7.7275,7.7574,7.7813,7.8489,7.9357,7.9986,8.0105,8.0075,8.0255,8.0494,8.0904,8.1165,8.1499,8.1882,8.2548,8.3782,8.4623,8.5656,8.7783,8.9363,9.0771,9.2309,9.3726,9.462,9.5026,9.533,9.5669,9.5582,9.5796,9.6285,9.6985,9.7132,9.7206,9.7818,9.8037,9.8273,9.8375,9.8645,9.9187,9.9593,9.9678,9.9881,10.0152,10.0423,10.0777,10.1014,10.1435,6.5203,6.5203,6.5203,6.5607,6.6086,6.5607,6.5877,6.6176,6.5891,6.5652,6.5652,6.5413,6.5607,6.5307,6.5547,6.5278,6.5308,6.5428,6.5338,6.5368,6.5398,6.5383,6.5428,6.5218,6.5129,6.5084,6.5084,6.5084,6.5039,6.4994,6.5084,6.5323,6.5308,6.5607,6.6251,6.6355,6.6969,6.7732,6.7882,6.8046,6.8405,6.8525,6.8645,6.8914,6.9379,6.9931,7.1068,7.2039,7.2325,7.1262,7.1803,7.2671,7.3748,7.3898,7.4257,7.4676,7.4796,7.4856,7.5035,7.5125,7.5335,7.5856,7.6096,7.6305,7.6856,7.7215,7.7454,7.7514,7.831,7.8878,7.9196,8.0165,8.0853,8.1212,8.162,8.177,8.1362,8.1153,8.1335,8.1997,8.2669,8.325,8.4268,8.5386,8.6615,8.7434,8.9389,9.0878,9.2113,9.3399,9.4872,9.6123,9.6244,9.6108,9.6379,9.6597,9.6929,9.7415,9.8338,9.8661,9.8128,9.8417,9.8614,9.8815,9.8984,9.9457,10.0134,10.0355,10.0389,10.0659,10.1031,10.1183,10.1318,10.1521,10.1875,6.658,6.658,6.658,6.6954,6.7493,6.7433,6.7717,6.8256,6.8166,6.79,6.7963,6.757,6.7316,6.7258,6.6791,6.658,6.658,6.658,6.658,6.655,6.658,6.658,6.646,6.6116,6.5817,6.5787,6.5787,6.5787,6.5727,6.5547,6.5577,6.649,6.661,6.6879,6.7493,6.7897,6.8435,6.878,6.8764,6.8884,6.9123,6.9213,6.9423,6.9887,7.0755,7.1607,7.2295,7.2727,7.2997,7.3223,7.3389,7.3582,7.3988,7.4407,7.4706,7.4826,7.4946,7.5155,7.5574,7.5677,7.5976,7.6617,7.7065,7.7454,7.7604,7.8561,7.901,7.9279,7.9878,8.0285,8.0554,8.159,8.2219,8.2548,8.3247,8.3876,8.3767,8.3318,8.3312,8.392,8.428,8.4925,8.6484,8.7135,8.829,8.9474,9.0915,9.2415,9.3603,9.4723,9.5915,9.7274,9.7292,9.7225,9.7766,9.7966,9.8126,9.8511,9.9348,9.9737,9.9204,9.9366,9.973,9.9712,9.9593,10.0202,10.098,10.1149,10.1183,10.1589,10.1859,10.1893,10.1961,10.213,10.213,6.7942,6.7926,6.7926,6.8136,6.8451,6.8481,6.8645,6.8944,6.9004,6.8991,6.895,6.8602,6.8485,6.8444,6.8094,6.7926,6.7926,6.7926,6.7926,6.7926,6.7926,6.7926,6.7912,6.7537,6.7178,6.664,6.646,6.661,6.6729,6.667,6.6999,6.7837,6.7926,6.8092,6.8421,6.8854,6.9123,6.9409,6.9498,6.9738,7.0277,7.038,7.0679,7.1354,7.2312,7.3043,7.3296,7.3702,7.4018,7.4287,7.4347,7.4347,7.4377,7.4676,7.4886,7.4916,7.5275,7.5484,7.5856,7.6228,7.6736,7.7664,7.81,7.8639,7.9058,7.9956,8.0177,8.0405,8.0853,8.1452,8.2091,8.3008,8.3606,8.3756,8.4295,8.4833,8.5002,8.4594,8.472,8.5713,8.6341,8.7536,8.8608,8.955,9.0677,9.2161,9.3134,9.455,9.5279,9.6307,9.7043,9.7984,9.8138,9.8427,9.9153,9.9385,9.9324,9.9694,10.0239,10.0262,9.989,10.0419,10.1031,10.0777,10.0438,10.1047,10.1656,10.1825,10.1893,10.2096,10.2265,10.2418,10.2452,10.2367,10.2333,6.9004,6.9004,6.9004,6.9034,6.9123,6.9153,6.9243,6.9333,6.9303,6.9468,6.9273,6.9229,6.9153,6.9106,6.8944,6.8974,6.8944,6.8914,6.8764,6.8764,6.8764,6.8764,6.8764,6.8645,6.8286,6.7358,6.7358,6.7673,6.7972,6.8167,6.8181,6.8884,6.9123,6.9093,6.9153,6.9303,6.9632,7.0067,7.0157,7.0606,7.1474,7.1713,7.2026,7.2864,7.3343,7.3838,7.4061,7.4467,7.4826,7.4886,7.4886,7.4946,7.5053,7.5035,7.5125,7.5215,7.5796,7.6245,7.6664,7.7006,7.7724,7.8956,7.9136,7.9615,8.0453,8.0764,8.0913,8.1212,8.1661,8.2529,8.3568,8.4485,8.4893,8.5103,8.5162,8.5708,8.6271,8.6069,8.6891,8.7495,8.8647,8.9982,9.1472,9.2697,9.3762,9.476,9.5663,9.6413,9.7105,9.7781,9.8476,9.8815,9.9036,9.9457,10.0134,10.0709,10.0666,10.0732,10.1172,10.1002,10.08,10.1263,10.1708,10.1453,10.1402,10.1893,10.213,10.2198,10.2333,10.2486,10.252,10.252,10.252,10.252,10.252,6.9004,6.9004,6.9004,6.9303,6.9798,6.9828,7.0097,7.056,7.05,7.059,7.047,7.0051,6.9835,6.9709,6.9239,6.9034,6.9183,6.9213,6.9153,6.9153,6.9153,6.9153,6.9213,6.9243,6.8928,6.8764,6.8645,6.8764,6.8794,6.8854,6.8974,6.9153,6.9572,6.9812,6.9961,7.026,7.05,7.0709,7.0769,7.1234,7.1893,7.2252,7.2671,7.3629,7.3941,7.418,7.4587,7.4796,7.4886,7.4886,7.4886,7.5245,7.5694,7.5826,7.6036,7.6275,7.6527,7.7006,7.7831,7.831,7.9148,8.0094,8.0405,8.0464,8.0943,8.1381,8.174,8.208,8.272,8.3557,8.3737,8.5282,8.6289,8.6628,8.7465,8.8631,8.9932,9.0395,9.0051,9.0214,9.1244,9.2432,9.3983,9.5094,9.5498,9.6295,9.7153,9.7698,9.8153,9.8916,9.9712,9.9915,9.9983,10.0472,10.1063,10.1656,10.1959,10.1806,10.2009,10.1991,10.1917,10.2168,10.2249,10.1893,10.1927,10.2231,10.2434,10.252,10.252,10.252,10.252,10.252,10.252,10.252,10.252,6.9991,6.9975,6.9991,7.0171,7.041,7.047,7.062,7.0873,7.0903,7.0903,7.0813,7.0573,7.0481,7.0371,7.0166,6.9991,6.9961,6.9991,6.9991,6.9991,6.9991,6.9991,6.9931,6.9945,6.9975,6.9975,6.9991,6.9752,6.9512,6.9512,6.9662,7.0021,7.035,7.044,7.05,7.0709,7.1098,7.1294,7.1474,7.1923,7.2851,7.318,7.3868,7.4197,7.4407,7.4587,7.4766,7.4886,7.5095,7.5335,7.5407,7.5993,7.6604,7.7113,7.7185,7.7006,7.7185,7.7724,7.8699,7.9088,7.9926,8.1081,8.1332,8.1691,8.2151,8.266,8.2858,8.3397,8.4055,8.4893,8.5312,8.6508,8.7703,8.9051,8.9896,9.1134,9.272,9.3909,9.3858,9.3341,9.4112,9.5301,9.6576,9.7263,9.7252,9.7851,9.8685,9.9018,9.927,9.9999,10.0795,10.0862,10.093,10.1268,10.169,10.2062,10.252,10.252,10.252,10.252,10.252,10.2486,10.2434,10.2198,10.2367,10.2486,10.252,10.252,10.252,10.252,10.252,10.252,10.252,10.252,10.252,7.0979,7.1098,7.0932,7.1068,7.1248,7.0992,7.1098,7.1248,7.1188,7.1131,7.1103,7.1101,7.1038,7.0919,7.0873,7.0843,7.0903,7.0859,7.0783,7.0769,7.0769,7.0829,7.0873,7.0903,7.0783,7.0663,7.0739,7.0649,7.026,7.0171,7.0486,7.0649,7.0843,7.1009,7.1098,7.1188,7.1517,7.1906,7.2116,7.2761,7.3762,7.4527,7.4886,7.4886,7.4886,7.4856,7.4886,7.5095,7.5377,7.5736,7.6048,7.6557,7.7652,7.843,7.834,7.7694,7.8053,7.8699,7.9387,7.9896,8.0823,8.189,8.2129,8.2739,8.3288,8.3647,8.4036,8.4694,8.5252,8.5821,8.6408,8.7795,8.9427,9.1099,9.2238,9.3372,9.5288,9.6684,9.765,9.7482,9.7492,9.7821,9.8707,9.8776,9.8621,9.8839,9.966,9.9931,10.0251,10.098,10.1622,10.1724,10.1893,10.2114,10.2333,10.2265,10.252,10.252,10.252,10.252,10.252,10.252,10.2434,10.2367,10.2434,10.252,10.252,10.252,10.252,10.252,10.252,10.252,10.252,10.257,10.2637,7.1248,7.1743,7.1158,7.1561,7.2368,7.1457,7.1607,7.2458,7.2013,7.1784,7.1765,7.1722,7.1398,7.1009,7.0903,7.0903,7.0903,7.0962,7.1009,7.1038,7.1009,7.1052,7.0962,7.0903,7.1098,7.1142,7.1082,7.0873,7.0859,7.0859,7.0859,7.1038,7.1188,7.1188,7.1757,7.1787,7.2116,7.2684,7.2804,7.3193,7.3911,7.4587,7.4826,7.4886,7.4886,7.4946,7.5065,7.5425,7.5826,7.6036,7.6467,7.7035,7.7753,7.843,7.9058,7.9459,8.0057,8.0734,8.1171,8.1351,8.174,8.2578,8.3098,8.3497,8.4066,8.4574,8.4874,8.4664,8.5412,8.624,8.7405,8.9458,9.1207,9.2999,9.4623,9.6482,9.8408,9.8756,9.9802,10.0317,9.993,9.9804,10.0177,10.0055,9.9967,10.0253,10.0506,10.0777,10.1131,10.1724,10.213,10.2198,10.2198,10.2418,10.252,10.252,10.252,10.252,10.252,10.252,10.252,10.252,10.2486,10.2502,10.252,10.252,10.252,10.252,10.252,10.2637,10.2806,10.2705,10.252,10.2637,10.2976,7.1623,7.1893,7.198,7.2355,7.2787,7.2249,7.2339,7.2727,7.2595,7.2481,7.2384,7.2048,7.1534,7.1068,7.0903,7.0903,7.0979,7.1278,7.1457,7.1474,7.1504,7.1667,7.1906,7.1697,7.1577,7.1906,7.2009,7.2146,7.1936,7.1697,7.1623,7.195,7.2009,7.2159,7.2445,7.2475,7.2864,7.3373,7.3821,7.4168,7.4467,7.4736,7.4886,7.4886,7.4916,7.5095,7.5455,7.5677,7.6335,7.6736,7.7275,7.7873,7.8801,7.9578,8.0225,8.0913,8.1882,8.2181,8.1871,8.2189,8.2698,8.3277,8.3916,8.4594,8.5233,8.5921,8.6569,8.6988,8.7227,8.7726,8.8567,9.0679,9.2825,9.4775,9.6858,9.8736,10.0397,10.0919,10.1482,10.1974,10.2198,10.1656,10.1099,10.0727,10.0524,10.0558,10.0844,10.1165,10.1487,10.1927,10.2265,10.2434,10.2434,10.2502,10.252,10.252,10.252,10.252,10.252,10.252,10.252,10.252,10.252,10.252,10.252,10.252,10.252,10.2553,10.2587,10.284,10.3145,10.3179,10.3246,10.372,10.4142,7.2252,7.2415,7.2757,7.3086,7.3326,7.3057,7.3086,7.3402,7.3223,7.3143,7.299,7.2498,7.1887,7.1517,7.1471,7.1531,7.1487,7.1936,7.2086,7.2162,7.2222,7.2415,7.2488,7.2355,7.2385,7.2924,7.2698,7.2864,7.2924,7.2744,7.2624,7.2907,7.2698,7.2937,7.3086,7.3223,7.3492,7.4108,7.4557,7.4766,7.4856,7.4856,7.4886,7.4946,7.5095,7.5395,7.5826,7.6365,7.7006,7.7771,7.825,7.8897,7.9854,8.0573,8.11,8.177,8.269,8.3109,8.2858,8.2978,8.3457,8.4006,8.4844,8.5821,8.6978,8.7706,8.8035,8.8355,8.9217,8.9691,9.0736,9.2603,9.5033,9.7171,9.9044,10.0768,10.1996,10.2012,10.2045,10.2223,10.2401,10.2434,10.1877,10.1302,10.1031,10.0964,10.1183,10.1571,10.1859,10.2181,10.2317,10.252,10.252,10.252,10.252,10.252,10.252,10.252,10.252,10.252,10.252,10.252,10.252,10.252,10.252,10.2773,10.2908,10.2756,10.2689,10.3077,10.3465,10.3905,10.4244,10.4717,10.5056,7.3193,7.3719,7.3146,7.3642,7.4616,7.3432,7.3642,7.4527,7.4061,7.3806,7.364,7.315,7.2794,7.2651,7.2518,7.2565,7.2714,7.2787,7.2817,7.2817,7.2847,7.2937,7.3027,7.3027,7.2924,7.3057,7.3223,7.3492,7.3672,7.3732,7.3373,7.2997,7.3253,7.3432,7.3642,7.3851,7.4091,7.4587,7.4856,7.4886,7.4886,7.4916,7.4916,7.5095,7.5467,7.5886,7.5976,7.6916,7.7861,7.8657,7.9125,7.9797,8.0639,8.1245,8.1695,8.2309,8.3198,8.3647,8.3737,8.4085,8.4534,8.4993,8.5831,8.7077,8.8235,8.8504,8.8714,8.9289,9.0588,9.165,9.3238,9.5469,9.7559,9.8747,10.0092,10.1403,10.229,10.2356,10.2389,10.247,10.252,10.252,10.2486,10.1877,10.1742,10.1674,10.1708,10.2062,10.2164,10.2384,10.2418,10.252,10.252,10.252,10.252,10.252,10.252,10.252,10.252,10.252,10.252,10.2536,10.2773,10.2603,10.2671,10.2976,10.3212,10.3077,10.3077,10.3382,10.3838,10.4514,10.5022,10.5462,10.5665,7.3911,7.4497,7.4227,7.4437,7.4873,7.4347,7.4407,7.4796,7.4616,7.4266,7.3908,7.3621,7.3296,7.3043,7.2924,7.2924,7.2984,7.3402,7.3462,7.3522,7.3522,7.3762,7.3821,7.3778,7.3719,7.3971,7.4091,7.4197,7.4467,7.4467,7.4407,7.4197,7.4018,7.4257,7.4467,7.4437,7.4646,7.4766,7.4886,7.4886,7.4886,7.4916,7.5095,7.5527,7.5677,7.6365,7.6993,7.7502,7.84,7.9172,7.9689,8.0457,8.1257,8.1713,8.2234,8.2847,8.3797,8.4425,8.4863,8.5222,8.5641,8.6629,8.7437,8.8304,8.9222,8.9374,9.0386,9.1319,9.2423,9.3606,9.5306,9.7383,9.9177,9.9907,10.0869,10.2111,10.257,10.257,10.252,10.2536,10.252,10.252,10.252,10.2452,10.2418,10.2418,10.2486,10.252,10.252,10.257,10.257,10.2689,10.2723,10.2655,10.2671,10.2587,10.252,10.252,10.252,10.252,10.257,10.3111,10.3212,10.2976,10.2908,10.3314,10.3483,10.3348,10.3618,10.4295,10.4836,10.5377,10.5817,10.6172,10.6325,7.4317,7.4856,7.4886,7.4886,7.4886,7.4886,7.4886,7.4886,7.4886,7.4676,7.4197,7.4175,7.3949,7.3599,7.3522,7.3552,7.3732,7.4001,7.4151,7.418,7.4287,7.4497,7.4587,7.4527,7.4407,7.4826,7.4886,7.4856,7.4826,7.4886,7.4796,7.4766,7.4886,7.4826,7.4826,7.4886,7.4886,7.4886,7.4886,7.4886,7.4886,7.5155,7.5365,7.5929,7.6258,7.6874,7.7664,7.8232,7.904,7.9831,8.045,8.1027,8.1732,8.2376,8.2866,8.3636,8.4515,8.5282,8.5821,8.6329,8.6898,8.8065,8.8564,8.9282,8.9823,9.0443,9.1946,9.3111,9.4378,9.5926,9.7537,9.9307,10.0501,10.122,10.1585,10.2536,10.2671,10.2739,10.2637,10.2553,10.2671,10.284,10.2553,10.2553,10.2637,10.2587,10.252,10.252,10.252,10.2603,10.2705,10.2824,10.2977,10.2926,10.2858,10.2943,10.2943,10.252,10.252,10.252,10.2705,10.3246,10.3551,10.328,10.3348,10.3754,10.4092,10.4413,10.4904,10.5479,10.5851,10.6122,10.6291,10.6612,10.69,7.4317,7.4856,7.4886,7.4886,7.4886,7.4886,7.4886,7.4886,7.4886,7.4856,7.4766,7.4783,7.4783,7.4646,7.4527,7.4527,7.4557,7.4706,7.4766,7.4736,7.4676,7.4826,7.4856,7.4796,7.4736,7.4856,7.4886,7.4886,7.4886,7.4886,7.4886,7.4886,7.4886,7.4886,7.4886,7.4886,7.4886,7.4916,7.4976,7.5006,7.5245,7.5647,7.5929,7.6377,7.6976,7.7592,7.8262,7.895,7.9788,8.0651,8.1193,8.1841,8.2646,8.316,8.3579,8.3927,8.4993,8.5881,8.6648,8.7287,8.8245,8.9163,8.9492,8.989,9.0781,9.2002,9.3369,9.4337,9.6625,9.8605,10.0024,10.0936,10.1684,10.2111,10.2405,10.2536,10.2671,10.3009,10.2942,10.2806,10.3145,10.3348,10.2892,10.2621,10.2723,10.2705,10.2553,10.2553,10.2671,10.2806,10.3009,10.3348,10.3568,10.3568,10.3568,10.3502,10.3333,10.2808,10.2587,10.2671,10.284,10.328,10.3483,10.3483,10.3957,10.4464,10.5123,10.5715,10.6138,10.6494,10.6528,10.6731,10.6866,10.7069,10.7407,7.4706,7.4886,7.4886,7.4886,7.4886,7.4886,7.4886,7.4886,7.4886,7.4886,7.4886,7.4886,7.4886,7.4886,7.4886,7.4886,7.4886,7.4886,7.4886,7.4886,7.4886,7.4886,7.4886,7.4886,7.4886,7.4886,7.4886,7.4886,7.4886,7.4886,7.4886,7.4886,7.4886,7.4886,7.4886,7.4946,7.5065,7.5467,7.5617,7.5736,7.6096,7.6377,7.6676,7.7065,7.7622,7.822,7.892,7.9668,8.0345,8.1261,8.1803,8.2384,8.3158,8.372,8.4138,8.4705,8.5701,8.6449,8.7666,8.8654,8.9133,8.9701,9.007,9.0339,9.0806,9.2495,9.3942,9.5696,9.8108,9.999,10.1436,10.1865,10.2356,10.2356,10.252,10.252,10.2671,10.3179,10.3382,10.3179,10.3314,10.3957,10.3889,10.3517,10.3483,10.3314,10.3212,10.3179,10.3246,10.3382,10.3551,10.4041,10.4311,10.4329,10.4295,10.4194,10.4093,10.3787,10.3314,10.3043,10.3246,10.3585,10.3957,10.4278,10.4735,10.5226,10.5885,10.6528,10.7069,10.7407,10.7407,10.7475,10.761,10.7813,10.8016,7.4886,7.4886,7.4886,7.4886,7.4886,7.4886,7.4886,7.4886,7.4886,7.4886,7.4886,7.4886,7.4886,7.4886,7.4886,7.4886,7.4886,7.4886,7.4886,7.4886,7.4886,7.4886,7.4886,7.4886,7.4886,7.4886,7.4886,7.4886,7.4886,7.4886,7.4886,7.4886,7.4886,7.4886,7.4886,7.4946,7.5215,7.5647,7.5856,7.6108,7.6587,7.7006,7.7335,7.7682,7.813,7.8651,7.9519,8.0147,8.0644,8.1579,8.2316,8.2795,8.3557,8.4286,8.4745,8.5472,8.6599,8.7457,8.8744,8.9591,8.992,9.007,9.0438,9.0921,9.177,9.3728,9.5639,9.7465,9.9319,10.1002,10.2481,10.284,10.2976,10.2976,10.3179,10.3212,10.3145,10.3702,10.3957,10.3754,10.399,10.4582,10.4853,10.465,10.4379,10.4142,10.3889,10.3939,10.3939,10.4041,10.4261,10.4785,10.509,10.5073,10.5005,10.487,10.4769,10.4717,10.421,10.3618,10.3889,10.4278,10.4684,10.5022,10.531,10.5767,10.6562,10.7221,10.7745,10.805,10.8168,10.8236,10.8371,10.8524,10.8693,7.4886,7.4886,7.4886,7.4886,7.4886,7.4886,7.4886,7.4886,7.4886,7.4886,7.4886,7.4886,7.4886,7.4886,7.4886,7.4886,7.4886,7.4886,7.4886,7.4886,7.4886,7.4886,7.4886,7.4886,7.4886,7.4886,7.4886,7.4886,7.4886,7.4886,7.4886,7.4946,7.5035,7.5095,7.5095,7.5275,7.5557,7.5976,7.6335,7.6694,7.7245,7.7622,7.7831,7.816,7.8549,7.9208,7.9937,8.0554,8.1212,8.208,8.2978,8.3497,8.4186,8.5013,8.5462,8.6289,8.7686,8.9038,9.0012,9.0737,9.1425,9.1759,9.1445,9.2144,9.3366,9.518,9.7294,9.91,10.0883,10.2206,10.3449,10.3652,10.3871,10.4075,10.4379,10.4244,10.4007,10.421,10.4498,10.4701,10.5073,10.5411,10.5293,10.5157,10.5293,10.5225,10.5056,10.5056,10.4988,10.4751,10.5039,10.5614,10.5817,10.5817,10.5716,10.5513,10.5513,10.5462,10.4853,10.4379,10.47,10.4988,10.5293,10.558,10.575,10.6274,10.7103,10.7796,10.8354,10.8675,10.9081,10.9149,10.9302,10.9234,10.9403,7.4886,7.4886,7.4886,7.4886,7.4886,7.4886,7.4886,7.4886,7.4886,7.4886,7.4886,7.4886,7.4886,7.4886,7.4886,7.4886,7.4886,7.4886,7.4886,7.4886,7.4886,7.4886,7.4886,7.4886,7.4886,7.4886,7.4886,7.4886,7.4886,7.4886,7.4886,7.4916,7.5318,7.5497,7.5736,7.6018,7.6288,7.6557,7.6904,7.7412,7.7891,7.831,7.846,7.8669,7.9088,7.9758,8.0464,8.1093,8.1901,8.3049,8.3438,8.3976,8.5222,8.5551,8.593,8.7326,8.9232,9.1123,9.1975,9.3685,9.4588,9.4414,9.4607,9.3981,9.4901,9.6592,9.9025,10.0659,10.2123,10.339,10.4126,10.4413,10.4616,10.4887,10.5056,10.492,10.4751,10.5005,10.5242,10.5242,10.5648,10.5953,10.5868,10.6037,10.6138,10.624,10.6206,10.6105,10.5969,10.5665,10.5665,10.6223,10.6392,10.6325,10.6257,10.6054,10.6156,10.6122,10.5563,10.5293,10.5732,10.6003,10.602,10.6122,10.6291,10.6883,10.7678,10.8303,10.8827,10.9774,11.0249,11.0215,11.0181,11.008,11.0131,7.4886,7.4886,7.4886,7.4886,7.4886,7.4886,7.4886,7.4886,7.4886,7.4886,7.4886,7.4886,7.4886,7.4886,7.4886,7.4886,7.4886,7.4886,7.4886,7.4886,7.4886,7.4886,7.4886,7.4886,7.4886,7.4886,7.4886,7.4886,7.4916,7.4946,7.4946,7.5347,7.5766,7.6036,7.6317,7.6796,7.7125,7.7305,7.7622,7.816,7.8549,7.8819,7.8938,7.9219,7.9668,8.0285,8.1063,8.168,8.2469,8.3568,8.3807,8.4574,8.5701,8.615,8.7587,8.908,9.076,9.2724,9.4075,9.5423,9.6316,9.6846,9.7371,9.735,9.7492,9.8754,10.0408,10.1888,10.3161,10.4261,10.4751,10.5157,10.536,10.5597,10.5529,10.5496,10.5665,10.5885,10.5851,10.5766,10.6003,10.6392,10.6629,10.6832,10.6866,10.6697,10.6629,10.6595,10.6528,10.6375,10.6341,10.6595,10.6731,10.6764,10.6663,10.6528,10.6561,10.6528,10.6341,10.6274,10.6747,10.6697,10.6494,10.6595,10.6798,10.7475,10.8168,10.8726,10.9335,11.0265,11.0959,11.0858,11.079,11.079,11.0892,7.4886,7.4886,7.4886,7.4886,7.4886,7.4886,7.4886,7.4886,7.4886,7.4886,7.4886,7.4886,7.4886,7.4886,7.4886,7.4886,7.4886,7.4886,7.4886,7.4886,7.4886,7.4886,7.4886,7.4886,7.4886,7.4886,7.4916,7.4976,7.5006,7.5155,7.5455,7.5946,7.6185,7.6467,7.6946,7.7544,7.7843,7.7921,7.8011,7.831,7.8669,7.8908,7.913,7.9668,8.0087,8.0554,8.1452,8.205,8.248,8.3557,8.4425,8.5132,8.66,8.7919,8.9762,9.1464,9.3065,9.4696,9.6315,9.7577,9.7682,9.8162,9.8691,9.9665,10.0343,10.0628,10.1937,10.3213,10.4501,10.5141,10.5614,10.5868,10.6071,10.624,10.6274,10.6172,10.6156,10.6358,10.6426,10.6341,10.6443,10.6764,10.6764,10.69,10.69,10.69,10.69,10.69,10.6866,10.6798,10.6815,10.6883,10.6866,10.69,10.6866,10.6764,10.6798,10.6815,10.6714,10.6714,10.6798,10.6866,10.69,10.69,10.6967,10.783,10.8557,10.903,10.969,11.0756,11.1264,11.1331,11.1331,11.1264,11.1264,7.4886,7.4886,7.4886,7.4886,7.4886,7.4886,7.4886,7.4886,7.4886,7.4886,7.4886,7.4886,7.4886,7.4886,7.4886,7.4886,7.4886,7.4886,7.4886,7.4886,7.4886,7.4886,7.4886,7.4886,7.4886,7.4886,7.4946,7.5185,7.5467,7.5677,7.5976,7.6587,7.6886,7.7305,7.7574,7.819,7.843,7.843,7.8579,7.8639,7.8849,7.9327,7.9698,8.0147,8.0554,8.1261,8.2099,8.2798,8.3517,8.4425,8.5103,8.6799,8.928,9.1025,9.28,9.4492,9.5922,9.7295,9.8585,9.9749,10.0279,10.0718,10.1403,10.2071,10.2589,10.2757,10.3412,10.462,10.5513,10.5986,10.6358,10.6494,10.6629,10.6798,10.69,10.6731,10.6595,10.6731,10.69,10.69,10.69,10.69,10.69,10.69,10.69,10.69,10.69,10.69,10.69,10.6866,10.6832,10.6917,10.69,10.69,10.69,10.69,10.69,10.69,10.6849,10.6883,10.69,10.69,10.69,10.69,10.7103,10.8016,10.8709,10.9046,10.9858,11.0976,11.1399,11.1399,11.1399,11.1331,11.1331,7.4886,7.4886,7.4886,7.4886,7.4886,7.4886,7.4886,7.4886,7.4886,7.4886,7.4886,7.4886,7.4886,7.4886,7.4886,7.4886,7.4886,7.4886,7.4886,7.4886,7.4886,7.4886,7.4886,7.4886,7.4886,7.4916,7.5258,7.5587,7.5946,7.6258,7.6617,7.7185,7.7711,7.7981,7.819,7.8609,7.8807,7.8789,7.9076,7.9238,7.9267,7.9656,8.0255,8.0704,8.1302,8.1949,8.2518,8.3217,8.3916,8.5388,8.6726,8.8333,9.0712,9.2763,9.4985,9.6644,9.8081,9.9508,10.0702,10.1684,10.2536,10.2553,10.2892,10.3103,10.3844,10.4065,10.4487,10.5614,10.6122,10.6595,10.6629,10.6764,10.6798,10.6866,10.69,10.6832,10.6764,10.6832,10.69,10.69,10.69,10.69,10.69,10.69,10.69,10.69,10.69,10.69,10.69,10.69,10.69,10.69,10.69,10.69,10.69,10.69,10.69,10.69,10.69,10.69,10.69,10.69,10.69,10.7069,10.7475,10.8287,10.8895,10.9317,11.0044,11.1128,11.1365,11.1399,11.1399,11.1399,11.1399,7.4886,7.4886,7.4886,7.4886,7.4886,7.4886,7.4886,7.4886,7.4886,7.4886,7.4886,7.4886,7.4886,7.4886,7.4886,7.4886,7.4886,7.4886,7.4886,7.4886,7.4886,7.4886,7.4886,7.4886,7.4886,7.5125,7.5497,7.5826,7.6138,7.6647,7.7215,7.7801,7.8041,7.822,7.8639,7.8837,7.8867,7.9118,7.9447,7.9848,7.9967,8.0057,8.0794,8.1441,8.1991,8.2338,8.2937,8.3606,8.4295,8.6175,8.8566,9.0931,9.2959,9.5246,9.7212,9.8991,9.9712,10.0903,10.1898,10.2308,10.2587,10.2756,10.3314,10.3939,10.465,10.5208,10.5648,10.6156,10.6629,10.6832,10.6866,10.69,10.69,10.69,10.69,10.69,10.69,10.69,10.69,10.69,10.6934,10.6934,10.6967,10.6967,10.6967,10.6934,10.6934,10.69,10.69,10.69,10.69,10.69,10.69,10.69,10.69,10.69,10.69,10.69,10.69,10.69,10.69,10.69,10.7069,10.7458,10.7965,10.8591,10.9268,10.9808,11.0587,11.1264,11.1331,11.1399,11.1399,11.1399,11.1399,7.4886,7.4886,7.4886,7.4886,7.4886,7.4886,7.4886,7.4886,7.4886,7.4886,7.4886,7.4886,7.4886,7.4886,7.4886,7.4886,7.4886,7.4886,7.4886,7.4886,7.4886,7.4886,7.4946,7.5035,7.4916,7.5245,7.5736,7.6185,7.6676,7.7322,7.7921,7.8489,7.8549,7.8639,7.8699,7.8897,7.9118,7.9447,7.9896,8.0326,8.1153,8.1332,8.1471,8.211,8.2809,8.3198,8.3797,8.4743,8.5222,8.693,9.0134,9.3347,9.5761,9.7943,9.9902,10.0652,10.1402,10.1732,10.2405,10.252,10.2587,10.3077,10.3618,10.4244,10.4904,10.558,10.6054,10.6528,10.6866,10.6866,10.69,10.69,10.69,10.69,10.69,10.69,10.69,10.69,10.6934,10.6967,10.7035,10.7103,10.7204,10.7204,10.7204,10.717,10.7103,10.7103,10.7289,10.7153,10.6934,10.7001,10.7001,10.69,10.69,10.69,10.69,10.69,10.7001,10.7238,10.7238,10.6934,10.717,10.7813,10.8134,10.8574,10.9302,11.035,11.0689,11.123,11.1331,11.1399,11.1399,11.1399,11.1399]},{"header":{"parameterUnit":"m.s-1","parameterCategory":1,"la1":31.0,"la2":29.5877,"lo1":-88.7671,"lo2":-86.6584,"dy":0.0162,"dx":0.0185,"nx":115,"ny":88,"refTime":"2024-10-10T00:00:00:Z","depth":0,"parameterNumber":3,"parameterNumberName":"V-component_of_WINDS"},"data":[0.0,0.0,0.0,0.0,0.0,0.0,0.0,0.0,0.0,0.0,0.0,0.0,0.0,0.0,0.0,0.0,0.0,0.0,0.0,0.0,0.0,0.0,0.0,0.0,0.0,0.0,0.0,0.0,0.0,0.0,0.0,0.0,0.0,0.0,0.0,0.0,0.0,0.0,0.0,0.0,0.0,0.0,0.0,0.0,0.0,0.0,0.0,0.0,0.0,0.0,0.0,0.0,0.0,0.0,0.0,0.0,0.0,0.0,0.0,0.0,0.0,0.0,0.0,0.0,0.0,0.0,0.0,0.0,0.0,0.0,0.0,0.0,0.0,0.0,0.0,0.0,0.0,0.0,0.0,0.0,0.0,0.0,0.0,0.0,0.0,0.0,0.0,0.0,0.0,0.0,0.0,0.0,0.0,0.0,0.0,0.0,0.0,0.0,0.0,0.0,0.0,0.0,0.0,0.0,0.0,0.0,0.0,0.0,0.0,0.0,0.0,0.0,0.0,0.0,0.0,0.0,0.0,0.0,0.0,0.0,0.0,0.0,0.0,0.0,0.0,0.0,0.0,0.0,0.0,0.0,0.0,0.0,0.0,0.0,0.0,0.0,0.0,0.0,0.0,0.0,0.0,0.0,0.0,0.0,0.0,0.0,0.0,0.0,0.0,0.0,0.0,0.0,0.0,0.0,0.0,0.0,0.0,0.0,0.0,0.0,0.0,0.0,0.0,0.0,0.0,0.0,0.0,0.0,0.0,0.0,0.0,0.0,0.0,0.0,0.0,0.0,0.0,0.0,0.0,0.0,0.0,0.0,0.0,0.0,0.0,0.0,0.0,0.0,0.0,0.0,0.0,0.0,0.0,0.0,0.0,0.0,0.0,0.0,0.0,0.0,0.0,0.0,0.0,0.0,0.0,0.0,0.0,0.0,0.0,0.0,0.0,0.0,0.0,0.0,0.0,0.0,0.0,0.0,0.0,0.0,0.0,0.0,0.0,0.0,0.0,0.0,0.0,0.0,0.0,0.0,0.0,0.0,0.0,0.0,0.0,0.0,0.0,0.0,0.0,0.0,0.0,0.0,0.0,0.0,0.0,0.0,0.0,0.0,0.0,0.0,0.0,0.0,0.0,0.0,0.0,0.0,0.0,0.0,0.0,0.0,0.0,0.0,0.0,0.0,0.0,0.0,0.0,0.0,0.0,0.0,0.0,0.0,0.0,0.0,0.0,0.0,0.0,0.0,0.0,0.0,0.0,0.0,0.0,0.0,0.0,0.0,0.0,0.0,0.0,0.0,0.0,0.0,0.0,0.0,0.0,0.0,0.0,0.0,0.0,0.0,0.0,0.0,0.0,0.0,0.0,0.0,0.0,0.0,0.0,0.0,0.0,0.0,0.0,0.0,0.0,0.0,0.0,0.0,0.0,0.0,0.0,0.0,0.0,0.0,0.0,0.0,0.0,0.0,0.0,0.0,0.0,0.0,0.0,0.0,0.0,0.0,0.0,0.0,0.0,0.0,0.0,0.0,0.0,0.0,0.0,0.0,0.0,0.0,0.0,0.0,0.0,0.0,0.0,0.0,0.0,0.0,0.0,0.0,0.0,0.0,0.0,0.0,0.0,0.0,0.0,0.0,0.0,0.0,0.0,0.0,0.0,0.0,0.0,0.0,0.0,0.0,0.0,0.0,0.0,0.0,0.0,0.0,0.0,0.0,0.0,0.0,0.0,0.0,0.0,0.0,0.0,0.0,0.0,0.0,0.0,0.0,0.0,0.0,0.0,0.0,0.0,0.0,0.0,0.0,0.0,0.0,0.0,0.0,0.0,0.0,0.0,0.0,0.0,0.0,0.0,0.0,0.0,0.0,0.0,0.0,0.0,0.0,0.0,0.0,0.0,0.0,0.0,0.0,0.0,0.0,0.0,0.0,0.0,0.0,0.0,0.0,0.0,0.0,0.0,0.0,0.0,0.0,0.0,0.0,0.0,0.0,0.0,0.0,0.0,0.0,0.0,0.0,0.0,0.0,0.0,0.0,0.0,0.0,0.0,0.0,0.0,0.0,0.0,0.0,0.0,0.0,0.0,0.0,0.0,0.0,0.0,0.0,0.0,0.0,0.0,0.0,0.0,0.0,0.0,0.0,0.0,0.0,0.0,0.0,0.0,0.0,0.0,0.0,0.0,0.0,0.0,0.0,0.0,0.0,0.0,0.0,0.0,0.0,0.0,0.0,0.0,0.0,0.0,0.0,0.0,0.0,0.0,0.0,0.0,0.0,0.0,0.0,0.0,0.0,0.0,0.0,0.0,0.0,0.0,0.0,0.0,0.0,0.0,0.0,0.0,0.0,0.0,0.0,0.0,0.0,0.0,0.0,0.0,0.0,0.0,0.0,0.0,0.0,0.0,0.0,0.0,0.0,0.0,0.0,0.0,0.0,0.0,0.0,0.0,0.0,0.0,0.0,0.0,0.0,0.0,0.0,0.0,0.0,0.0,0.0,0.0,0.0,0.0,0.0,0.0,0.0,0.0,0.0,0.0,0.0,0.0,0.0,0.0,0.0,0.0,0.0,0.0,0.0,0.0,0.0,0.0,0.0,0.0,0.0,0.0,0.0,0.0,0.0,0.0,0.0,0.0,0.0,0.0,0.0,0.0,0.0,0.0,0.0,0.0,0.0,0.0,0.0,0.0,0.0,0.0,0.0,0.0,0.0,0.0,0.0,0.0,0.0,0.0,0.0,0.0,0.0,0.0,0.0,0.0,0.0,0.0,0.0,0.0,0.0,0.0,0.0,0.0,0.0,0.0,0.0,0.0,0.0,0.0,0.0,0.0,0.0,0.0,0.0,0.0,0.0,0.0,0.0,0.0,0.0,0.0,0.0,0.0,0.0,0.0,0.0,0.0,0.0,0.0,0.0,0.0,0.0,0.0,0.0,0.0,0.0,0.0,0.0,0.0,0.0,0.0,0.0,0.0,0.0,0.0,0.0,0.0,0.0,0.0,0.0,0.0,0.0,0.0,0.0,0.0,0.0,0.0,0.0,0.0,0.0,0.0,0.0,0.0,0.0,0.0,0.0,0.0,0.0,0.0,0.0,0.0,0.0,0.0,0.0,0.0,0.0,0.0,0.0,0.0,0.0,0.0,0.0,0.0,0.0,0.0,0.0,0.0,0.0,0.0,0.0,0.0,0.0,0.0,0.0,0.0,0.0,0.0,0.0,0.0,0.0,0.0,0.0,0.0,0.0,0.0,0.0,0.0,0.0,0.0,0.0,0.0,0.0,0.0,0.0,0.0,0.0,0.0,0.0,0.0,0.0,0.0,0.0,0.0,0.0,0.0,0.0,0.0,0.0,0.0,0.0,0.0,0.0,0.0,0.0,0.0,0.0,0.0,0.0,0.0,0.0,0.0,0.0,0.0,0.0,0.0,0.0,0.0,0.0,0.0,0.0,0.0,0.0,0.0,0.0,0.0,0.0,0.0,0.0,0.0,0.0,0.0,0.0,0.0,0.0,0.0,0.0,0.0,0.0,0.0,0.0,0.0,0.0,0.0,0.0,0.0,0.0,0.0,0.0,0.0,0.0,0.0,0.0,0.0,0.0,0.0,0.0,0.0,0.0,0.0,0.0,0.0,0.0,0.0,0.0,0.0,0.0,0.0,0.0,0.0,0.0,0.0,0.0,0.0,0.0,0.0,0.0,0.0,0.0,0.0,0.0,0.0,0.0,0.0,0.0,0.0,0.0,0.0,0.0,0.0,0.0,0.0,0.0,0.0,0.0,0.0,0.0,0.0,0.0,0.0,0.0,0.0,0.0,0.0,0.0,0.0,0.0,0.0,0.0,0.0,0.0,0.0,0.0,0.0,0.0,0.0,0.0,0.0,0.0,0.0,0.0,0.0,0.0,0.0,0.0,0.0,0.0,0.0,0.0,0.0,0.0,0.0,0.0,0.0,0.0,0.0,0.0,0.0,0.0,0.0,0.0,0.0,0.0,0.0,0.0,0.0,0.0,0.0,0.0,0.0,0.0,0.0,0.0,0.0,0.0,0.0,0.0,0.0,0.0,0.0,0.0,0.0,0.0,0.0,0.0,0.0,0.0,0.0,0.0,0.0,0.0,0.0,0.0,0.0,0.0,0.0,0.0,0.0,0.0,0.0,0.0,0.0,0.0,0.0,0.0,0.0,0.0,0.0,0.0,0.0,0.0,0.0,0.0,0.0,0.0,0.0,0.0,0.0,0.0,0.0,0.0,0.0,0.0,0.0,0.0,0.0,0.0,0.0,0.0,0.0,0.0,0.0,0.0,0.4651,0.0,0.0,0.0,0.0,0.0,0.0,0.0,0.0,0.0,0.0,0.0,0.0,0.0,0.0,0.0,0.0,0.0,0.0,0.0,0.0,0.0,0.0,0.0,0.0,0.0,0.0,0.0,0.0,0.0,0.0,0.0,0.0,0.0,0.0,0.0,0.0,0.0,0.0,0.0,0.0,0.0,0.0,0.0,0.0,0.0,0.0,0.0,0.0,0.0,0.0,0.0,0.0,0.0,0.0,0.0,0.0,0.0,0.0,0.0,0.0,0.0,0.0,0.0,0.0,0.0,0.0,0.0,0.0,0.0,0.0,0.0,0.0,0.0,0.0,0.0,0.0,0.0,0.0,0.0,0.0,0.0,0.0,0.0,0.0,0.0,0.0,0.0,0.0,0.0,0.0,0.0,0.0,0.0,0.0,0.0,0.0,0.0,0.0,0.0,0.0,0.0,0.0,0.0,0.0,0.0,0.0,0.0,0.0,0.0,0.0,0.516,0.5253,0.4908,0.4766,0.4814,0.0,0.0,0.0,0.0,0.0,0.0,0.0,0.0,0.0,0.0,0.0,0.0,0.0,0.0,0.0,0.0,0.0,0.0,0.0,0.0,0.0,0.0,0.0,0.0,0.0,0.0,0.0,0.0,0.0,0.0,0.0,0.0,0.0,0.0,0.0,0.0,0.0,0.0,0.0,0.0,0.0,0.0,0.0,0.0,0.0,0.0,0.0,0.0,0.0,0.0,0.0,0.0,0.0,0.0,0.0,0.0,0.0,0.0,0.0,0.0,0.0,0.0,0.0,0.0,0.0,0.0,0.0,0.0,0.0,0.0,0.0,0.0,0.0,0.0,0.0,0.0,0.0,0.0,0.0,0.0,0.0,0.0,0.0,0.0,0.0,0.0,0.0,0.0,0.0,0.0,0.0,0.0,0.0,0.0,0.0,0.0,0.0,0.0,0.0,0.0,0.0,0.0,0.0,0.0,0.0,0.0,0.0,0.0,0.0,0.0,0.0,0.0,0.5074,0.4884,0.4792,0.0,0.0,0.0,0.0,0.0,0.0,0.0,0.0,0.0,0.0,0.0,0.0,0.0,0.0,0.0,0.0,0.0,0.0,0.0,0.0,0.0,0.0,0.0,0.0,0.0,0.0,0.0,0.0,0.0,0.0,0.0,0.0,0.0,0.0,0.0,0.0,0.0,0.0,0.0,0.0,0.0,0.0,0.0,0.0,0.0,0.0,0.0,0.0,0.0,0.0,0.0,0.0,0.0,0.0,0.0,0.0,0.0,0.0,0.0,0.0,0.0,0.0,0.0,0.0,0.0,0.0,0.0,0.0,0.0,0.0,0.0,0.0,0.0,0.0,0.0,0.0,0.0,0.0,0.0,0.0,0.0,0.0,0.0,0.0,0.0,0.0,0.0,0.0,0.0,0.0,0.0,0.0,0.0,0.0,0.0,0.0,0.0,0.0,0.0,0.0,0.0,0.0,0.0,0.0,0.0,0.0,0.0,0.0,0.0,0.0,0.5098,0.5215,0.4906,0.0,0.4436,0.0,0.0,0.0,0.0,0.0,0.0,0.0,0.0,0.0,0.0,0.0,0.0,0.0,0.0,0.0,0.0,0.0,0.0,0.0,0.0,0.0,0.0,0.0,0.0,0.0,0.0,0.0,0.0,0.0,0.0,0.0,0.0,0.0,0.0,0.0,0.0,0.0,0.0,0.0,0.0,0.0,0.0,0.0,0.0,0.0,0.0,0.0,0.0,0.0,0.0,0.0,0.0,0.0,0.0,0.0,0.0,0.0,0.0,0.0,0.0,0.0,0.0,0.0,0.0,0.0,0.0,0.0,0.0,0.0,0.0,0.0,0.0,0.0,0.0,0.0,0.0,0.0,0.0,0.0,0.0,0.0,0.0,0.0,0.0,0.0,0.0,0.0,0.0,0.0,0.0,0.0,0.0,0.0,0.0,0.0,0.0,0.0,0.0,0.0,0.0,0.0,0.0,0.0,0.0,0.0,0.0,0.0,0.0,0.0,0.0,0.497,0.5138,0.5009,0.4836,0.0,0.0,0.0,0.0,0.0,0.0,0.0,0.0,0.0,0.0,0.0,0.0,0.0,0.0,0.0,0.0,0.0,0.0,0.0,0.0,0.0,0.0,0.0,0.0,0.0,0.0,0.0,0.0,0.0,0.0,0.0,0.0,0.0,0.0,0.0,0.0,0.0,0.0,0.0,0.0,0.0,0.0,0.0,0.0,0.0,0.0,0.0,0.0,0.0,0.0,0.0,0.0,0.0,0.0,0.0,0.0,0.0,0.0,0.0,0.0,0.0,0.0,0.0,0.0,0.0,0.0,0.0,0.0,0.0,0.0,0.0,0.0,0.0,0.0,0.0,0.0,0.0,0.0,0.0,0.0,0.0,0.0,0.0,0.0,0.0,0.0,0.0,0.0,0.0,0.0,0.0,0.0,0.0,0.0,0.0,0.0,0.0,0.0,0.0,0.0,0.0,0.0,0.0,0.0,0.0,0.0,0.0,0.0,0.0,0.0,0.4505,0.461,0.4888,0.4928,0.4884,0.4796,0.0,0.0,0.0,0.0,0.0,0.0,0.0,0.0,0.0,0.0,0.0,0.0,0.0,0.0,0.0,0.0,0.0,0.0,0.0,0.0,0.0,0.0,0.0,0.0,0.0,0.0,0.0,0.0,0.0,0.0,0.0,0.0,0.0,0.0,0.0,0.0,0.0,0.0,0.0,0.0,0.0,0.0,0.0,0.0,0.0,0.0,0.0,0.0,0.0,0.0,0.0,0.0,0.0,0.0,0.0,0.0,0.0,0.0,0.0,0.0,0.0,0.0,0.0,0.0,0.0,0.0,0.0,0.0,0.0,0.0,0.0,0.0,0.0,0.0,0.0,0.0,0.0,0.0,0.0,0.0,0.0,0.0,0.0,0.0,0.0,0.0,0.0,0.0,0.0,0.0,0.0,0.0,0.0,0.0,0.0,0.0,0.0,0.0,0.0,0.0,0.0,0.0,0.0,0.0,0.0,0.0,0.0,0.0,0.4204,0.387,0.3907,0.4433,0.4489,0.4596,0.0,0.0,0.0,0.0,0.0,0.0,0.0,0.0,0.0,0.0,0.0,0.0,0.0,0.0,0.0,0.0,0.0,0.0,0.0,0.0,0.0,0.0,0.0,0.0,0.0,0.0,0.0,0.0,0.0,0.0,0.0,0.0,0.0,0.0,0.0,0.0,0.0,0.0,0.0,0.0,0.0,0.0,0.0,0.0,0.0,0.0,0.0,0.0,0.0,0.0,0.0,0.0,0.0,0.0,0.0,0.0,0.0,0.0,0.0,0.0,0.0,0.0,0.0,0.0,0.0,0.0,0.0,0.0,0.0,0.0,0.0,0.0,0.0,0.0,0.0,0.0,0.0,0.0,0.0,0.0,0.0,0.0,0.0,0.0,0.0,0.0,0.0,0.0,0.0,0.0,0.0,0.0,0.0,0.0,0.0,0.0,0.0,0.0,0.0,0.0,0.0,0.0,0.0,0.0,0.0,0.0,0.0,0.0,0.0,0.3944,0.4017,0.4176,0.4465,0.4822,0.5018,0.0,0.0,0.0,0.0,0.0,0.0,0.0,0.0,0.0,0.0,0.0,0.0,0.0,0.0,0.0,0.0,0.0,0.0,0.0,0.0,0.0,0.0,0.0,0.0,0.0,0.0,0.0,0.0,0.0,0.0,0.0,0.0,0.0,0.0,0.0,0.0,0.0,0.0,0.0,0.0,0.0,0.0,0.0,0.0,0.0,0.0,0.0,0.0,0.0,0.0,0.0,0.0,0.0,0.0,0.0,0.0,0.0,0.0,0.0,0.0,0.0,0.0,0.0,0.0,0.0,0.0,0.0,0.0,0.0,0.0,0.0,0.0,0.0,0.0,0.0,0.0,0.0,0.0,0.0,0.0,0.0,0.0,0.0,0.0,0.0,0.0,0.0,0.0,0.0,0.0,0.0,0.0,0.0,0.0,0.0,0.0,0.0,0.0,0.0,0.0,0.0,0.0,0.0,0.0,0.0,0.0,0.0,0.0,0.0,0.3689,0.0,0.4288,0.4496,0.4976,0.5251,0.0,0.0,0.0,0.0,0.0,0.0,0.0,0.0,0.0,0.0,0.0,0.0,0.0,0.0,0.0,0.0,0.0,0.0,0.0,0.0,0.0,0.0,0.0,0.0,0.0,0.0,0.0,0.0,0.0,0.0,0.0,0.0,0.0,0.0,0.0,0.0,0.0,0.0,0.0,0.0,0.0,0.0,0.0,0.0,0.0,0.0,0.0,0.0,0.0,0.0,0.0,0.0,0.0,0.0,0.0,0.0,0.0,0.0,0.0,0.0,0.0,0.0,0.0,0.0,0.0,0.0,0.0,0.0,0.0,0.0,0.0,0.0,0.0,0.0,0.0,0.0,0.0,0.0,0.0,0.0,0.0,0.0,0.0,0.0,0.0,0.0,0.0,0.0,0.0,0.0,0.0,0.0,0.0,0.0,0.0,0.0,0.0,0.0,0.0,0.0,0.0,0.0,0.0,0.0,0.0,0.0,0.0,0.0,0.374,0.3482,0.3821,0.4247,0.4537,0.4998,0.5294,0.0,0.0,0.0,0.0,0.0,0.0,0.0,0.0,0.0,0.0,0.0,0.0,0.0,0.0,0.0,0.0,0.0,0.0,0.0,0.0,0.0,0.0,0.0,0.0,0.0,0.0,0.0,0.0,0.0,0.0,0.0,0.0,0.0,0.0,0.0,0.0,0.0,0.0,0.0,0.0,0.0,0.0,0.0,0.0,0.0,0.0,0.0,0.0,0.0,0.0,0.0,0.0,0.0,0.0,0.0,0.0,0.0,0.0,0.0,0.0,0.0,0.0,0.0,0.0,0.0,0.0,0.0,0.0,0.0,0.0,0.0,0.0,0.0,0.0,0.0,0.0,0.0,0.0,0.0,0.0,0.0,0.0,0.0,0.0,0.0,0.0,0.0,0.0,0.0,0.0,0.0,0.0,0.0,0.0,0.0,0.0,0.0,0.0,0.0,0.0,0.0,0.0,0.0,0.0,0.0,0.0,0.0,0.0,0.0,0.5022,0.5725,0.6179,0.6306,0.6645,0.6809,0.0,0.0,0.0,0.0,0.0,0.0,0.0,0.0,0.0,0.0,0.0,0.0,0.0,0.0,0.0,0.0,0.0,0.0,0.0,0.0,0.0,0.0,0.0,0.0,0.0,0.0,0.0,0.0,0.0,0.0,0.0,0.0,0.0,0.0,0.0,0.0,0.0,0.0,0.0,0.0,0.0,0.0,0.0,0.0,0.0,0.0,0.0,0.0,0.0,0.0,0.0,0.0,0.0,0.0,0.0,0.0,0.0,0.0,0.0,0.0,0.0,0.0,0.0,0.0,0.0,0.0,0.0,0.0,0.0,0.0,0.0,0.0,0.0,0.0,0.0,0.0,0.0,0.0,0.0,0.0,0.0,0.0,0.0,0.0,0.0,0.0,0.0,0.0,0.0,0.0,0.0,0.0,0.0,0.0,0.0,0.0,0.0,0.0,0.0,0.0,0.0,0.0,0.0,0.0,0.0,0.0,0.0,0.0,0.0,0.8332,0.8424,0.8519,0.859,0.8788,0.8621,0.8042,0.0,0.0,0.0,0.0,0.0,0.0,0.0,0.0,0.0,0.0,0.0,0.0,0.0,0.0,0.0,0.0,0.0,0.0,0.0,0.0,0.0,0.0,0.0,0.0,0.0,0.0,0.0,0.0,0.0,0.0,0.0,0.0,0.0,0.0,0.0,0.0,0.0,0.0,0.0,0.0,0.0,0.0,0.0,0.0,0.0,0.0,0.0,0.0,0.0,0.0,0.0,0.0,0.0,0.0,0.0,0.0,0.0,0.0,0.0,0.0,0.0,0.0,0.0,0.0,0.0,0.0,0.0,0.0,0.0,0.0,0.0,0.0,0.0,0.0,0.0,0.0,0.0,0.0,0.0,0.0,0.0,0.0,0.0,0.0,0.0,0.0,0.0,0.0,0.0,0.0,0.0,0.0,0.0,0.0,0.0,0.0,0.0,0.0,0.0,0.0,0.0,0.0,0.0,0.0,0.0,0.0,0.0,0.0,1.2908,1.1918,1.1419,1.1337,1.1329,1.0731,0.0,0.0,0.0,0.0,0.0,0.0,0.0,0.0,0.0,0.0,0.0,0.0,0.0,0.0,0.0,0.0,0.0,0.0,0.0,0.0,0.0,0.0,0.0,0.0,0.0,0.0,0.0,0.0,0.0,0.0,0.0,0.0,0.0,0.0,0.0,0.0,0.0,0.0,0.0,0.0,0.0,0.0,0.0,0.0,0.0,0.0,0.0,0.0,0.0,0.0,0.0,0.0,0.0,0.0,0.0,0.0,0.0,0.0,0.0,0.0,0.0,0.0,0.0,0.0,0.0,0.0,0.0,0.0,0.0,0.0,0.0,0.0,0.0,0.0,0.0,0.0,0.0,0.0,0.0,0.0,0.0,0.0,0.0,0.0,0.0,0.0,0.0,0.0,0.0,0.0,0.0,0.0,0.0,0.0,0.0,0.0,0.0,0.0,0.0,0.0,0.0,0.0,0.0,0.0,0.0,0.0,0.0,0.0,0.0,1.582,1.7663,1.7208,1.4345,1.4067,1.3454,0.0,0.0,0.0,0.0,0.0,0.0,0.0,0.0,0.0,0.0,0.0,0.0,0.0,0.0,0.0,0.0,0.0,0.0,0.0,0.0,0.0,0.0,0.0,0.0,0.0,0.0,0.0,0.0,0.0,0.0,0.0,0.0,0.0,0.0,0.0,0.0,0.0,0.0,0.0,0.0,0.0,0.0,0.0,0.0,0.0,0.0,0.0,0.0,0.0,0.0,0.0,0.0,0.0,0.0,0.0,0.0,0.0,0.0,0.0,0.0,0.0,0.0,0.0,0.0,0.0,0.0,0.0,0.0,0.0,0.0,0.0,0.0,0.0,0.0,0.0,0.0,0.0,0.0,0.0,0.0,0.0,0.0,0.0,0.0,0.0,0.0,0.0,0.0,0.0,0.0,0.0,0.0,0.0,0.0,0.0,0.0,0.0,0.0,0.0,0.0,0.0,0.0,0.0,0.0,0.0,0.0,0.0,0.0,1.6495,1.9101,2.1891,2.223,1.9943,1.8577,1.7145,0.0,0.0,0.0,0.0,0.0,0.0,0.0,0.0,0.0,0.0,0.0,0.0,0.0,0.0,0.0,0.0,0.0,0.0,0.0,0.0,0.0,0.0,0.0,0.0,0.0,0.0,0.0,0.0,0.0,0.0,0.0,0.0,0.0,0.0,0.0,0.0,0.0,0.0,0.0,0.0,0.0,0.0,0.0,0.0,0.0,0.0,0.0,0.0,0.0,0.0,0.0,0.0,0.0,0.0,0.0,0.0,0.0,0.0,0.0,0.0,0.0,0.0,0.0,0.0,0.0,0.0,0.0,0.0,0.0,0.0,0.0,0.0,0.0,0.0,0.0,0.0,0.0,0.0,0.0,0.0,0.0,0.0,0.0,0.0,0.0,0.0,0.0,0.0,0.0,0.0,0.0,0.0,0.0,0.0,0.0,0.0,0.0,0.0,0.0,0.0,0.0,0.0,0.0,0.0,0.0,0.0,0.0,0.0,1.9887,2.2371,2.5014,2.6417,2.6423,2.361,2.1063,0.0,0.0,0.0,0.0,0.0,0.0,0.0,0.0,0.0,0.0,0.0,0.0,0.0,0.0,0.0,0.0,0.0,0.0,0.0,0.0,0.0,0.0,0.0,0.0,0.0,0.0,0.0,0.0,0.0,0.0,0.0,0.0,0.0,0.0,0.0,0.0,0.0,0.0,0.0,0.0,0.0,0.0,0.0,0.0,0.0,0.0,0.0,0.0,0.0,0.0,0.0,0.0,0.0,0.0,0.0,0.0,0.0,0.0,0.0,0.0,0.0,0.0,0.0,0.0,0.0,0.0,0.0,0.0,0.0,0.0,0.0,0.0,0.0,0.0,0.0,0.0,0.0,0.0,0.0,0.0,0.0,0.0,0.0,0.0,0.0,0.0,0.0,0.0,0.0,0.0,0.0,0.0,0.0,0.0,0.0,0.0,0.0,0.0,0.0,0.0,0.0,0.0,0.0,0.0,0.0,0.0,0.0,0.0,2.1744,2.4584,2.7444,2.877,2.8483,2.531,2.2766,0.0,0.0,0.0,0.0,0.0,0.0,0.0,0.0,0.0,0.0,0.0,0.0,0.0,0.0,0.0,0.0,0.0,0.0,0.0,0.0,0.0,0.0,0.0,0.0,0.0,0.0,0.0,0.0,0.0,0.0,0.0,0.0,0.0,0.0,0.0,0.0,0.0,0.0,0.0,0.0,0.0,0.0,0.0,0.0,0.0,0.0,0.0,0.0,1.4897,0.0,0.0,0.0,0.0,0.0,0.0,0.0,0.0,0.0,0.0,0.0,0.0,0.0,0.0,0.0,0.0,0.0,0.0,0.0,0.0,0.0,0.0,0.0,0.0,0.0,0.0,0.0,0.0,0.0,0.0,0.0,0.0,0.0,0.0,0.0,0.0,0.0,0.0,0.0,0.0,0.0,0.0,0.0,0.0,0.0,0.0,0.0,0.0,0.0,0.0,0.0,0.0,0.0,0.0,0.0,0.0,0.0,0.0,0.0,2.4286,2.7287,2.9675,3.0776,3.0494,2.8034,2.5645,0.0,0.0,0.0,0.0,0.0,0.0,0.0,0.0,0.0,0.0,0.0,0.0,0.0,0.0,0.0,0.0,0.0,0.0,0.0,0.0,0.0,0.0,0.0,0.0,0.0,0.0,0.0,0.0,0.0,0.0,0.0,0.0,0.0,0.0,0.0,0.0,0.0,0.0,0.0,0.0,0.0,0.0,0.0,0.0,0.0,0.0,0.0,0.0,0.0,0.0,0.0,0.0,0.0,0.0,0.0,0.0,0.0,0.0,0.0,0.0,0.0,0.0,0.0,0.0,0.0,0.0,0.0,0.0,0.0,0.0,0.0,0.0,0.0,0.0,0.0,0.0,0.0,0.0,0.0,0.0,0.0,0.0,0.0,0.0,0.0,0.0,0.0,0.0,0.0,0.0,0.0,0.0,0.0,0.0,0.0,0.0,0.0,0.0,0.0,0.0,0.0,0.0,0.0,0.0,0.0,0.0,0.0,2.3138,2.6857,3.0057,3.1608,3.2407,3.2492,3.0777,2.854,2.5809,0.0,0.0,0.0,0.0,0.0,0.0,0.0,0.0,0.0,0.0,0.0,0.0,0.0,0.0,0.0,0.0,0.0,0.0,0.0,0.0,0.0,0.0,0.0,0.0,0.0,0.0,0.0,0.0,0.0,0.0,0.0,0.0,0.0,0.0,0.0,0.0,0.0,0.0,0.9852,1.5147,0.0,0.0,0.0,0.0,0.0,0.0,0.0,0.0,1.641,0.0,0.0,0.0,0.0,0.0,0.0,0.0,0.0,0.0,0.0,0.0,0.0,0.0,0.0,0.0,0.0,0.0,0.0,0.0,0.0,0.0,0.0,0.0,0.0,0.0,0.0,0.0,0.0,0.0,0.0,0.0,0.0,0.0,0.0,0.0,0.0,0.0,0.0,0.0,0.0,0.0,0.0,0.0,0.0,0.0,0.0,0.0,0.0,0.0,0.0,0.0,0.0,0.0,0.0,0.0,0.0,2.2018,2.5198,2.8601,3.2177,3.2879,3.3486,3.3945,3.1914,2.966,2.7254,0.0,0.0,0.0,0.0,0.0,0.0,0.0,0.0,0.0,0.0,0.0,0.0,0.0,0.0,0.0,0.0,0.0,0.0,0.0,0.0,0.0,0.0,0.0,0.0,0.0,0.0,0.0,0.0,0.0,0.0,0.0,0.0,0.0,0.0,0.0,0.0,0.0,0.0,0.0,1.8306,2.0719,0.0,0.0,0.0,0.0,0.0,0.0,0.0,0.0,1.8476,0.0,0.0,0.0,0.0,0.0,0.0,0.0,0.0,0.0,0.0,0.0,0.0,0.0,0.0,0.0,0.0,0.0,0.0,0.0,0.0,0.0,0.0,0.0,0.0,0.0,0.0,0.0,0.0,0.0,0.0,0.0,0.0,0.0,0.0,0.0,0.0,0.0,0.0,0.0,0.0,0.0,0.0,0.0,0.0,0.0,0.0,0.0,0.0,0.0,0.0,0.0,0.0,0.0,0.0,0.0,2.3027,2.6659,2.9904,3.2719,3.4006,3.457,3.4374,3.2998,3.079,0.0,0.0,0.0,0.0,0.0,0.0,0.0,0.0,0.0,0.0,0.0,0.0,0.0,0.0,0.0,0.0,0.0,0.0,0.0,0.0,0.0,0.0,0.0,0.0,0.0,0.0,0.0,0.0,0.0,0.0,0.0,0.0,0.0,0.0,0.0,0.0,0.0,0.0,0.0,0.0,2.0555,2.2726,2.2647,0.0,0.0,0.0,0.0,0.0,0.0,2.0573,2.0433,0.0,0.0,0.0,0.0,0.0,0.0,0.0,0.0,0.0,0.0,0.0,0.0,0.0,0.0,0.0,0.0,0.0,0.0,0.0,0.0,0.0,0.0,0.0,0.0,0.0,0.0,0.0,0.0,0.0,0.0,0.0,0.0,0.0,0.0,0.0,0.0,0.0,0.0,0.0,0.0,0.0,0.0,0.0,0.0,0.0,0.0,0.0,0.0,0.0,0.0,0.0,0.0,0.0,0.0,0.0,2.3723,2.7728,3.0971,3.3342,3.4867,3.5553,3.5271,3.3859,3.1474,0.0,0.0,0.0,0.0,0.0,0.0,0.0,0.0,0.0,0.0,0.0,0.0,0.0,0.0,0.0,0.0,0.0,0.0,0.0,0.0,0.0,0.0,0.0,0.0,0.0,0.0,0.0,0.0,0.0,0.0,0.0,0.0,0.0,0.0,0.0,0.0,0.0,0.0,0.0,0.0,0.0,2.4272,2.4996,2.4619,0.0,0.0,0.0,0.0,2.2923,2.3478,0.0,0.0,0.0,0.0,0.0,0.0,0.0,0.0,0.0,0.0,0.0,0.0,0.0,0.0,0.0,0.0,0.0,0.0,0.0,0.0,0.0,0.0,0.0,0.0,0.0,0.0,0.0,0.0,0.0,0.0,0.0,0.0,0.0,0.0,0.0,0.0,0.0,0.0,0.0,0.0,0.0,0.0,0.0,0.0,0.0,0.0,0.0,0.0,0.0,0.0,0.0,0.0,0.0,0.0,0.0,0.0,2.4843,2.8305,3.182,3.5235,3.5225,3.6134,3.8237,3.4304,3.1152,0.0,0.0,0.0,0.0,0.0,0.0,0.0,0.0,0.0,0.0,0.0,0.0,0.0,0.0,0.0,0.0,0.0,0.0,0.0,0.0,0.0,0.0,0.0,0.0,0.0,0.0,0.0,0.0,0.0,0.0,0.0,0.0,0.0,0.0,0.0,0.0,0.0,0.0,0.0,0.0,0.0,2.4379,2.4492,2.5812,2.6471,0.0,0.0,2.7366,2.5951,2.7967,0.0,0.0,0.0,0.0,0.0,0.0,0.0,0.0,0.0,0.0,0.0,0.0,0.0,0.0,0.0,0.0,0.0,0.0,0.0,0.0,0.0,0.0,0.0,0.0,0.0,0.0,0.0,0.0,0.0,0.0,0.0,0.0,0.0,0.0,0.0,0.0,0.0,0.0,0.0,0.0,0.0,0.0,0.0,0.0,0.0,0.0,0.0,0.0,0.0,0.0,0.0,0.0,0.0,0.0,0.0,2.1952,2.5458,3.0159,3.3623,3.5737,3.7066,3.8088,3.8874,3.5532,3.2304,0.0,0.0,0.0,0.0,0.0,0.0,0.0,0.0,0.0,0.0,0.0,0.0,0.0,0.0,0.0,0.0,0.0,0.0,0.0,0.0,0.0,0.0,0.0,0.0,0.0,0.0,0.0,0.0,0.0,0.0,0.0,0.0,0.0,0.0,0.0,0.0,0.0,0.0,0.0,0.0,0.0,0.0,2.6632,2.8575,0.0,0.0,0.0,3.0611,2.9699,0.0,0.0,0.0,0.0,0.0,0.0,0.0,0.0,0.0,0.0,0.0,0.0,0.0,0.0,0.0,0.0,0.0,0.0,0.0,0.0,0.0,0.0,0.0,0.0,0.0,0.0,0.0,0.0,0.0,0.0,0.0,0.0,0.0,0.0,0.0,0.0,0.0,0.0,0.0,0.0,0.0,0.0,0.0,0.0,0.0,0.0,0.0,0.0,0.0,0.0,0.0,0.0,0.0,0.0,0.0,0.0,0.0,2.6563,3.1802,3.5323,3.6967,3.8695,3.9553,3.9441,3.6262,0.0,0.0,0.0,0.0,0.0,0.0,0.0,0.0,0.0,0.0,0.0,0.0,0.0,0.0,0.0,0.0,0.0,0.0,0.0,0.0,0.0,0.0,0.0,0.0,0.0,0.0,0.0,0.9249,0.0,0.0,0.0,0.0,0.0,0.0,0.0,0.0,0.0,0.0,0.0,0.0,0.0,0.0,2.7533,2.914,3.148,3.2915,0.0,0.0,3.3484,3.3033,3.3285,3.2359,0.0,0.0,0.0,0.0,0.0,0.0,0.0,0.0,0.0,0.0,0.0,0.0,0.0,0.0,0.0,0.0,0.0,0.0,0.0,0.0,0.0,0.0,0.0,0.0,0.0,0.0,0.0,0.0,0.0,0.0,0.0,0.0,0.0,0.0,0.0,0.0,0.0,0.0,0.0,0.0,0.0,0.0,0.0,0.0,0.0,0.0,0.0,0.0,0.0,0.0,0.0,0.0,0.0,0.0,2.4062,2.8801,3.258,3.6385,4.0064,3.9415,3.9651,4.0985,3.5751,3.1821,0.0,0.0,0.0,0.0,0.0,0.0,0.0,0.0,0.0,0.0,0.0,0.0,0.0,0.0,0.0,0.0,0.0,0.0,0.0,0.0,0.0,0.0,0.0,0.0,0.0,0.0,0.0,0.0,0.0,0.0,0.0,0.0,0.0,0.0,0.0,0.0,0.0,0.0,0.0,0.0,0.0,2.9995,3.1246,3.3991,3.5885,0.0,3.6199,3.6255,3.5414,3.6885,3.6243,3.0754,0.0,0.0,0.0,0.0,0.0,0.0,0.0,0.0,0.0,0.0,0.0,0.0,0.0,0.0,0.0,0.0,0.0,0.0,0.0,0.0,0.0,0.0,0.0,0.0,0.0,0.0,0.0,0.0,0.0,0.0,0.0,0.0,0.0,0.0,0.0,0.0,0.0,0.0,0.0,0.0,0.0,0.0,0.0,0.0,0.0,0.0,0.0,0.0,0.0,0.0,0.0,0.0,0.0,2.4547,2.9669,3.3849,3.7467,4.0463,4.0828,4.1046,4.1275,3.743,3.3696,0.0,0.0,0.0,0.0,0.0,0.0,0.0,0.0,0.0,0.0,0.0,0.0,0.0,0.0,0.0,0.0,0.0,0.0,0.0,0.0,0.0,0.0,0.0,0.0,0.0,0.0,0.0,0.0,1.4286,1.4686,1.4914,0.0,0.0,0.0,0.0,0.0,0.0,0.0,0.0,0.0,0.0,3.1794,3.3838,3.6169,0.0,0.0,3.7637,3.7888,3.678,3.6827,3.5675,3.1806,2.9776,0.0,0.0,0.0,0.0,0.0,0.0,0.0,0.0,0.0,0.0,0.0,0.0,0.0,0.0,0.0,0.0,0.0,0.0,0.0,0.0,0.0,0.0,0.0,0.0,0.0,0.0,0.0,0.0,0.0,0.0,0.0,0.0,0.0,0.0,0.0,0.0,0.0,0.0,0.0,0.0,0.0,0.0,0.0,0.0,0.0,0.0,0.0,0.0,0.0,0.0,0.0,0.0,2.5698,3.0942,3.5323,3.8778,4.1267,4.1897,4.1934,4.1275,3.851,3.499,0.0,0.0,0.0,0.0,0.0,0.0,0.0,0.0,0.0,0.0,0.0,0.0,0.0,0.0,0.0,0.0,0.0,0.0,0.0,0.0,0.0,0.0,0.0,0.0,0.0,0.0,0.0,0.0,1.572,1.5726,1.5207,0.0,0.0,0.0,0.0,0.0,0.0,0.0,0.0,0.0,0.0,3.4165,3.6304,3.8091,3.8964,3.8359,3.8906,3.8945,3.7677,3.6973,3.5598,3.2852,0.0,0.0,0.0,0.0,0.0,0.0,0.0,0.0,0.0,0.0,0.0,0.0,0.0,0.0,0.0,0.0,0.0,0.0,0.0,0.0,0.0,0.0,0.0,0.0,0.0,0.0,0.0,0.8757,0.0,0.0,0.709,0.0,0.0,0.0,0.0,0.0,0.0,0.0,0.0,0.0,0.0,0.0,0.0,0.0,0.0,0.0,0.0,0.0,0.0,0.0,0.0,0.0,0.0,2.7723,3.2959,3.6962,4.0259,4.2799,4.2462,4.1934,4.1275,3.8515,3.5119,3.1078,0.0,0.0,0.0,0.0,0.0,0.0,0.0,0.0,0.0,0.0,0.0,0.0,0.0,0.0,0.0,0.0,0.0,0.0,0.0,0.0,0.0,0.0,0.0,0.0,0.0,0.0,1.5461,1.6898,1.7359,0.0,0.0,0.0,0.0,0.0,0.0,0.0,0.0,0.0,3.0197,3.4293,3.7386,3.8488,3.9676,4.041,4.0391,4.0117,3.9434,3.8087,3.7855,3.6889,0.0,0.0,0.0,0.0,0.0,0.0,0.0,0.0,0.0,0.0,0.0,0.0,0.0,0.0,0.0,0.0,0.0,0.0,0.0,0.0,0.0,0.0,0.0,0.0,0.0,0.0,0.0,1.1738,1.0967,0.0,0.0,0.0,0.0,0.0,0.0,0.0,0.0,0.0,0.0,0.0,1.9732,2.0375,0.0,0.0,0.0,0.0,0.0,0.0,0.0,0.0,0.0,0.0,0.0,0.0,2.8856,3.4092,3.7445,4.038,4.2908,4.2838,4.2258,4.1314,4.003,3.6565,3.0705,0.0,0.0,0.0,0.0,0.0,0.0,0.0,0.0,0.0,0.0,0.0,0.0,0.0,0.0,0.0,0.0,0.0,0.0,0.0,0.0,0.0,0.0,0.0,0.0,0.0,1.5656,0.0,0.0,0.0,0.0,0.0,0.0,0.0,0.0,0.0,0.0,2.7753,3.034,3.4073,3.6629,3.868,4.0142,4.0704,4.0859,0.0,0.0,0.0,0.0,0.0,0.0,0.0,0.0,0.0,0.0,0.0,0.0,0.0,0.0,3.4087,3.0621,2.9974,2.9908,2.9814,0.0,0.0,0.0,0.0,0.0,0.0,0.0,0.0,0.0,0.0,0.0,0.0,0.0,0.0,1.4848,1.3414,1.321,0.0,0.0,0.0,0.0,0.0,0.0,0.0,0.0,1.9823,2.1992,2.355,2.4034,2.4429,2.4707,2.3564,2.1219,0.0,0.0,0.0,0.0,0.0,0.0,0.0,0.0,3.0611,3.5107,3.8471,4.1099,4.2908,4.3,4.2548,4.1617,4.0104,3.7031,3.2294,2.8866,2.5422,0.0,0.0,0.0,0.0,0.0,0.0,0.0,0.0,0.0,0.0,0.0,0.0,0.0,0.0,0.0,0.0,0.0,0.0,0.0,0.0,0.0,0.0,0.0,1.7482,0.0,0.0,0.0,0.0,0.0,0.0,0.0,0.0,0.0,2.9621,3.1508,3.3844,3.6867,3.86,3.9967,4.1055,0.0,0.0,0.0,0.0,0.0,0.0,0.0,3.9085,3.7874,3.7455,3.7633,3.8766,3.9126,3.9552,4.044,0.0,0.0,3.5943,3.5197,3.5259,3.5289,3.5682,3.6219,3.6831,3.8006,3.9173,0.0,0.0,0.0,0.0,1.8189,0.0,0.0,0.0,2.0331,1.8813,0.0,1.6669,0.0,0.0,0.0,0.0,1.4692,1.7393,0.0,0.0,2.4943,2.6829,2.6964,2.7417,2.7671,2.766,2.6505,2.5686,2.5032,2.1134,1.8935,0.0,0.0,0.0,0.0,0.0,3.2982,3.6028,4.0061,4.2436,4.2989,4.3,4.2752,4.2121,3.896,3.6747,3.5566,3.1503,2.8347,2.6522,2.3274,0.0,0.0,0.0,0.0,0.0,0.0,0.0,0.0,0.0,0.0,0.0,0.0,0.0,0.0,0.0,0.0,0.0,0.0,0.0,0.0,1.8869,0.0,0.0,0.0,0.0,0.0,0.0,0.0,0.0,0.0,3.1553,3.1569,3.4458,3.7187,3.8696,0.0,0.0,0.0,0.0,4.1719,4.1348,4.1621,4.1562,4.0704,4.1015,4.1152,4.0664,0.0,0.0,4.4453,4.3927,4.3349,4.3833,4.4205,4.3624,4.0883,4.0794,4.1025,4.0484,4.0642,4.1062,4.1557,4.2312,4.3188,2.5333,0.0,0.0,0.0,0.0,2.2577,2.31,2.3501,2.392,2.3013,2.1153,2.0012,0.0,0.0,0.0,0.0,0.0,0.0,2.2882,2.4874,2.7256,2.8978,3.0166,3.0635,3.0864,3.0888,3.1316,3.1303,3.0908,3.0234,2.7446,2.2825,0.0,0.0,0.0,0.0,3.4949,3.7808,4.0712,4.2475,4.3,4.3,4.2738,4.2199,4.0832,3.913,3.7159,3.554,3.2881,2.9067,2.6469,0.0,0.0,0.0,0.0,0.0,0.0,0.0,0.0,0.0,0.0,0.0,0.0,0.0,0.0,0.0,0.0,0.0,0.0,0.0,2.0193,2.1434,2.2262,0.0,0.0,0.0,0.0,0.0,0.0,0.0,0.0,0.0,4.1108,4.0449,4.0417,0.0,0.0,4.302,4.306,4.3101,4.3119,4.3,4.3073,0.0,4.2441,4.2988,4.332,4.2871,4.4054,4.5523,4.683,4.664,4.6364,4.6484,4.6845,4.6809,4.6043,4.4785,4.4164,4.446,4.5122,4.5844,4.6614,4.7405,4.8044,2.9867,2.75,2.5688,2.5181,2.5685,2.6379,2.6889,2.7306,2.7572,2.6996,2.5775,2.4333,2.4553,2.5831,2.2324,0.0,0.0,0.0,2.6518,2.8441,3.0315,3.172,3.2717,3.3643,3.4049,3.4093,3.476,3.4948,3.4737,3.5214,3.3569,2.9836,0.0,2.9869,3.1578,3.4572,3.7297,3.9683,4.1756,4.3101,4.3614,4.3427,4.2964,4.2224,4.1845,4.0866,3.92,3.8292,3.6004,3.201,2.9741,2.6618,0.0,0.0,0.0,0.0,0.0,0.0,0.0,0.0,0.0,0.0,0.0,1.2792,1.3584,0.0,0.0,0.0,1.8246,2.0695,2.3904,2.4627,0.0,0.0,0.0,0.0,0.0,0.0,0.0,3.7354,4.0224,4.3465,4.7486,4.6591,4.575,4.6256,4.5574,4.4999,4.506,0.0,4.5229,4.4345,4.4503,4.4648,4.4394,4.4941,4.5389,4.5488,4.6306,4.7296,4.8159,4.8215,4.8109,4.8148,4.8437,4.8707,4.8707,4.777,4.7148,4.7497,4.7988,4.8574,4.9281,4.9848,5.0238,3.35,3.3203,2.9803,2.8813,2.9587,3.0164,3.0686,3.1094,3.1079,3.0616,2.975,2.8883,2.7683,2.6282,2.5859,0.0,2.7657,2.8951,3.0398,3.2048,3.3903,3.477,3.485,3.6302,3.7029,3.7059,3.718,3.7297,3.7362,3.7603,3.7925,3.8278,3.589,3.4957,3.5661,3.7834,3.9849,4.1578,4.3073,4.4102,4.4564,4.4091,4.3327,4.235,4.2249,4.1882,4.1312,3.9959,3.7921,3.5136,3.295,2.9514,2.4614,0.0,0.0,0.0,0.0,0.0,0.0,0.0,0.0,0.0,0.0,0.0,0.0,0.0,0.0,1.8424,2.1841,0.0,2.7819,2.8257,0.0,0.0,0.0,3.1138,3.2995,3.4587,3.7468,4.2513,0.0,0.0,5.1524,5.2372,5.2237,5.1285,4.907,4.7496,4.7357,4.7996,4.7734,4.5582,4.5881,4.6387,4.6289,4.666,4.7187,4.7891,4.8262,4.8382,4.878,4.8855,4.8894,4.8933,4.9238,4.9508,4.9547,4.9746,5.0102,4.9644,4.9586,4.9722,5.0176,5.0395,5.0571,3.4378,3.432,3.3442,3.2805,3.2451,3.2945,3.3015,3.2816,3.2797,3.2358,3.1497,3.0048,2.9173,2.8874,2.9986,3.1328,3.2742,3.305,3.4282,3.6128,3.6633,3.7023,3.7347,3.7717,3.8111,3.8552,3.9746,4.0581,4.1061,4.2234,4.2696,4.24,4.2153,4.1218,3.9696,4.0785,4.1976,4.3229,4.4019,4.4478,4.4579,4.4091,4.3664,4.3413,4.2626,4.192,4.1314,4.0556,3.9127,3.6954,3.5135,3.2552,2.9049,2.5114,0.0,0.0,0.0,0.0,0.0,0.0,0.0,0.0,0.0,1.7277,1.8527,0.0,2.1933,0.0,2.5912,2.8595,3.0908,3.1455,0.0,0.0,3.5054,3.6068,3.7517,4.0589,4.3634,4.6211,4.948,5.2713,5.5874,5.5495,5.5879,5.8126,5.4867,5.1682,5.0401,5.0292,4.9612,4.7556,4.7224,4.7288,4.7327,4.7637,4.8066,4.8636,4.8714,4.8773,4.8894,4.8894,4.8988,4.9297,4.943,4.9625,4.998,5.0141,5.0434,5.0796,5.0699,5.0601,5.103,5.1387,5.1684,3.5485,3.5276,3.5293,3.5019,3.4554,3.443,3.4235,3.3988,3.3968,3.3498,3.2702,3.2166,3.2262,3.2855,3.3781,3.5083,3.6561,3.6823,3.7529,3.8634,3.9372,3.9814,4.0053,4.0737,4.1203,4.1517,4.2407,4.3003,4.3369,4.4196,4.4579,4.4568,4.4869,4.445,4.3412,4.3304,4.3693,4.4543,4.5081,4.5106,4.4614,4.4303,4.3815,4.3101,4.2526,4.1808,4.0976,4.065,3.9338,3.6953,3.7424,3.5355,3.0113,2.7703,2.5165,0.0,0.0,0.0,0.0,0.0,0.0,0.0,0.0,0.0,0.0,0.0,2.6372,2.861,3.0441,3.2305,3.4274,3.5192,3.6289,3.7853,3.9823,4.1578,4.2956,4.6052,4.9075,5.164,5.3882,5.6264,5.8846,5.8631,5.9001,6.1241,5.9196,5.6614,5.4657,5.4271,5.3248,5.0018,4.9608,4.9305,4.8394,4.8363,4.8597,4.8835,4.8894,4.8929,4.9125,4.916,4.9297,4.9726,4.9961,5.0211,5.062,5.0918,5.125,5.1733,5.1792,5.1733,5.1928,5.2187,5.2363,3.6696,3.653,3.653,3.6663,3.6804,3.606,3.5534,3.5189,3.513,3.4792,3.4277,3.5208,3.6171,3.7119,3.7082,3.8011,3.9598,4.0014,4.0311,4.0586,4.1936,4.2574,4.2672,4.3967,4.464,4.4715,4.4715,4.474,4.4815,4.483,4.5106,4.5688,4.5698,4.5949,4.6336,4.5392,4.5131,4.5598,4.6075,4.5824,4.4855,4.4665,4.389,4.25,4.2199,4.1557,4.0462,4.0337,3.9041,3.653,3.9093,3.7333,3.0156,2.9641,2.8008,0.0,2.3209,0.0,0.0,0.0,0.0,0.0,0.0,0.0,0.0,2.8425,3.1052,3.3947,3.4948,3.6113,3.7734,3.9222,4.0453,4.1419,4.4485,4.7118,4.8476,5.0945,5.3793,5.6949,5.7588,5.8766,6.0846,6.1361,6.1592,6.1999,6.1923,6.0839,5.9026,5.8373,5.6761,5.2795,5.2314,5.1271,4.9347,4.8855,4.8874,4.8894,4.8968,4.9105,4.943,4.9547,4.9746,5.0176,5.0527,5.0894,5.1401,5.1816,5.2207,5.2637,5.2734,5.2715,5.2676,5.2812,5.2871,3.8014,3.9308,3.9322,4.0185,4.1495,4.1331,3.9971,3.7848,3.7458,3.7832,3.8766,4.0049,4.0137,3.9314,3.9299,4.0174,4.1689,4.1822,4.2529,4.3723,4.4026,4.4157,4.4196,4.4473,4.4855,4.5296,4.5336,4.5547,4.5984,4.5984,4.6276,4.6772,4.6798,4.6848,4.6923,0.0,0.0,0.0,4.6235,4.6185,4.5974,4.5081,4.4252,4.3489,4.2183,0.0,3.9885,3.9434,3.8828,3.7979,3.761,0.0,0.0,0.0,0.0,0.0,0.0,0.0,0.0,0.0,0.0,0.0,3.2042,3.1779,3.0782,3.3475,3.5713,3.673,3.8372,3.9825,4.0879,4.3441,4.5382,4.6338,4.9242,5.1453,5.2142,5.4845,5.7064,5.7673,5.9707,6.125,6.1742,6.2199,6.2501,6.2601,6.2651,6.2458,6.19,6.0286,5.8169,5.5549,5.3506,5.153,4.9285,4.8913,4.8929,4.8933,4.9203,4.9391,4.9547,4.9863,5.0195,5.0605,5.0762,5.1074,5.1797,5.2056,5.2368,5.3111,5.3267,5.315,5.2793,5.3256,5.3744,4.0771,4.1417,4.1433,4.1965,0.0,4.2775,4.2488,4.1847,4.0524,4.0148,4.0615,4.188,4.2194,4.1777,4.1777,4.2678,4.4266,4.429,4.4828,4.5804,4.5558,4.5583,4.5844,4.5819,4.5969,4.6286,4.6567,4.6813,4.7079,4.7104,4.7214,4.7475,4.7516,4.749,4.7475,4.7475,4.7114,4.6311,4.6311,4.6175,4.5899,4.5332,4.4518,4.3413,4.2333,0.0,0.0,0.0,0.0,0.0,0.0,0.0,0.0,0.0,0.0,3.3494,3.2717,3.2589,3.3239,3.3383,3.3926,3.515,3.6629,3.6872,3.5314,3.7509,3.9249,3.989,4.125,4.2803,4.4561,4.6777,4.8678,5.0276,5.3248,5.536,5.6012,5.8242,5.9996,6.0368,6.1545,6.24,6.24,6.2601,6.2802,6.2802,6.2802,6.2802,6.272,6.1829,5.9901,5.64,5.2791,5.0279,4.9236,4.9105,4.9222,4.9238,4.9551,4.9902,5.0113,5.0332,5.0649,5.0991,5.1089,5.1387,5.2168,5.2402,5.2656,5.3457,5.3691,5.3756,5.3672,5.4043,5.4414,4.3511,4.3493,4.3493,4.3692,4.3989,4.4012,4.4753,4.5862,4.3902,0.0,0.0,4.3374,4.4018,4.4437,4.4429,4.522,4.6557,4.6587,4.6813,4.7214,4.6788,4.6813,4.7224,4.7249,4.7265,4.7265,4.7691,4.7908,4.7908,4.7908,4.7942,4.8058,4.8058,4.8058,4.8058,4.7958,4.7481,4.6637,4.6587,4.6361,4.5924,4.5723,4.4934,4.3478,4.2813,4.1758,4.0212,3.9723,3.9316,3.8899,3.8476,3.8326,3.8624,4.0116,4.034,3.8952,3.7947,3.7646,3.8148,3.7277,3.7092,3.8027,4.0557,4.1314,3.9639,4.115,4.2526,4.3279,4.4558,4.6291,4.8446,5.0261,5.194,5.3808,5.6737,5.8793,5.9306,6.0928,6.2199,6.2727,6.2736,6.2802,6.2777,6.2802,6.2802,6.2802,6.2802,6.2857,6.2866,6.2299,6.0441,5.6716,5.293,4.9749,4.9237,4.9394,4.9605,4.9668,5.0,5.0434,5.0703,5.0859,5.103,5.1304,5.144,5.1855,5.2519,5.2754,5.3105,5.3842,5.3972,5.4154,5.4577,5.4785,5.4922,4.4896,4.6253,4.6253,4.7153,4.8654,4.8654,4.8534,4.8253,4.7413,4.7021,4.6963,4.7131,4.724,4.7299,4.7315,4.7449,4.7666,4.7682,4.7716,4.7767,4.7732,4.7716,4.7767,4.7792,4.7767,4.7792,4.7867,4.7908,4.7908,4.7933,4.8159,4.8601,4.8652,4.8693,4.8642,4.8159,4.7817,4.7666,4.7682,4.7657,4.7556,4.6637,4.5874,4.516,4.4131,4.3051,4.1897,4.1772,4.1809,4.1966,4.212,4.2148,4.2143,4.3264,4.329,4.1936,4.0524,4.0091,4.0853,3.9958,3.9863,4.1268,4.5435,4.6512,4.294,4.4762,4.6398,4.7002,4.9695,5.1901,5.2509,5.4852,5.6637,5.7281,5.9699,6.1429,6.1428,6.2111,6.2701,6.2802,6.2802,6.2802,6.2802,6.2827,6.2852,6.2827,6.2877,6.3003,6.3132,6.137,5.9245,5.724,5.4498,5.1993,5.0325,5.0043,5.0078,5.0121,5.043,5.0742,5.084,5.1069,5.1304,5.1401,5.1719,5.2173,5.2656,5.3052,5.3418,5.39,5.4017,5.422,5.476,5.5071,5.5345,4.8279,4.9212,4.9246,4.9719,5.051,5.0519,5.0385,5.0134,4.9866,4.9038,4.7958,4.7908,4.7908,4.7908,4.7908,4.7908,4.7908,4.7908,4.8083,4.835,4.8058,4.8083,4.8375,4.84,4.84,4.84,4.8686,4.8837,4.8812,4.8837,4.8978,4.9229,4.9229,4.9254,4.9229,4.8962,4.8812,4.8812,4.8209,4.7908,4.7892,4.7431,4.6928,4.6386,4.5573,4.4794,4.4019,4.3678,4.3847,4.458,4.5104,4.559,4.6055,4.7579,4.7951,4.6817,4.4681,4.4238,4.6012,4.5217,4.5142,4.6324,4.8454,4.9383,4.8212,4.8681,4.9501,5.0521,5.2233,5.3845,5.5505,5.7305,5.879,6.0049,6.1543,6.2405,6.245,6.2626,6.2802,6.2802,6.2802,6.2802,6.2802,6.3078,6.3128,6.2927,6.3053,6.3534,6.4232,6.0863,5.8029,5.7134,5.4043,5.1453,5.0369,5.0414,5.0488,5.0527,5.0855,5.1089,5.1128,5.1299,5.1479,5.1738,5.1997,5.2368,5.2935,5.3228,5.3535,5.39,5.4238,5.4512,5.4889,5.5474,5.6106,5.108,5.1289,5.1289,5.1289,5.1289,5.1289,5.1289,5.1289,5.1289,5.0309,4.8786,4.8535,4.841,4.8284,4.8269,4.8284,4.8284,4.8284,4.8535,4.8919,4.8485,4.8586,4.9145,4.9154,4.917,4.9204,4.959,4.9732,4.9615,4.959,4.9665,4.9791,4.9933,5.0008,4.9967,4.9983,4.9983,4.9933,4.9113,4.8535,4.8284,4.8168,4.7958,4.7651,4.7139,4.6712,4.6426,4.5974,4.6185,4.7154,4.7763,4.8527,4.952,5.1004,5.1587,5.0805,4.8626,4.792,4.9504,4.9776,4.9863,5.0188,5.1296,5.2257,5.2885,5.292,5.3055,5.3899,5.4692,5.618,5.8362,5.934,6.0317,6.1992,6.2551,6.2777,6.2802,6.2802,6.2802,6.2802,6.2802,6.2852,6.3053,6.34,6.355,6.34,6.3082,6.3284,6.3681,6.0057,5.7086,5.5998,5.3095,5.0704,5.0449,5.0699,5.0894,5.0937,5.1167,5.1319,5.1377,5.146,5.1655,5.2012,5.231,5.274,5.3365,5.3658,5.3912,5.4316,5.4648,5.4889,5.5168,5.589,5.668,5.1548,5.1331,5.1339,5.1289,5.1339,5.1339,5.1339,5.1339,5.1314,5.1214,5.0862,5.0419,4.9891,4.949,4.9439,4.9439,4.9439,4.9455,4.9506,4.9515,4.9464,4.9741,5.0218,5.0226,5.0252,5.0226,5.0302,5.0101,4.9715,4.9681,4.9866,5.0327,5.087,5.1113,5.1113,5.1113,5.1113,5.1138,5.1038,5.0485,4.9464,4.8978,4.8928,4.9364,4.8853,4.8777,4.9104,4.9179,4.9389,4.9967,5.0049,5.0627,5.1641,5.1984,5.2261,5.256,5.1207,5.0001,4.9198,5.1348,5.2172,5.0769,5.4568,5.6502,5.5588,5.7355,5.8031,5.7385,5.8942,6.0431,6.1546,6.1964,6.2259,6.2529,6.2752,6.2802,6.2802,6.2802,6.2802,6.2802,6.2852,6.3003,6.3475,6.3676,6.3902,6.4304,6.2662,6.1814,6.2251,5.891,5.5943,5.5173,5.2687,5.1158,5.1128,5.128,5.1304,5.1304,5.1362,5.1397,5.1436,5.1714,5.2095,5.2207,5.274,5.3326,5.3848,5.4258,5.4629,5.4883,5.5156,5.5345,5.5728,5.6223,5.6719,5.237,5.2251,5.2234,5.2234,5.2234,5.2251,5.2234,5.2234,5.2251,5.2076,5.1774,5.1498,5.1096,5.0611,5.0611,5.0611,5.0611,5.0594,5.0594,5.0611,5.0611,5.0736,5.0921,5.0946,5.0921,5.0921,5.0946,5.082,5.0661,5.0611,5.072,5.0937,5.1188,5.1289,5.1289,5.1289,5.1289,5.1289,5.1289,5.1063,5.0636,5.0385,5.0385,5.0561,5.0385,5.036,5.0561,5.0611,5.0845,5.1331,5.1406,5.1758,5.2536,5.2561,5.2812,5.3354,5.3817,5.3247,5.1573,5.4294,5.579,5.5212,5.7413,5.8646,5.8506,5.9705,6.0293,6.0226,6.1031,6.1893,6.2421,6.2676,6.2802,6.2802,6.2802,6.2802,6.2802,6.2802,6.2802,6.2827,6.3103,6.3379,6.363,6.3773,6.4299,6.5023,6.3857,6.3092,6.3709,6.0291,5.7642,5.6783,5.3878,5.1496,5.1382,5.1397,5.1397,5.1397,5.1397,5.1397,5.1479,5.1797,5.2173,5.2402,5.3013,5.3658,5.4322,5.4512,5.4805,5.5215,5.5507,5.5676,5.6204,5.6465,5.6816,5.2895,5.2895,5.2895,5.2895,5.2895,5.2895,5.2895,5.2895,5.2895,5.2686,5.2335,5.231,5.2126,5.1741,5.1465,5.1289,5.1289,5.1289,5.1289,5.1289,5.1289,5.1381,5.1498,5.1515,5.1515,5.1515,5.1515,5.144,5.1339,5.1465,5.1515,5.154,5.1649,5.1749,5.1724,5.1741,5.1724,5.1766,5.1741,5.1741,5.1749,5.1741,5.1691,5.154,5.1515,5.159,5.1724,5.1724,5.1925,5.2302,5.231,5.2561,5.3088,5.3138,5.349,5.4361,5.5516,5.575,5.4636,5.6798,5.8353,5.8905,5.9408,5.994,6.0512,6.109,6.1567,6.1833,6.2124,6.24,6.2727,6.2802,6.2802,6.2802,6.2802,6.2802,6.2802,6.2927,6.3078,6.3103,6.3576,6.3998,6.4132,6.4404,6.5009,6.5725,6.4792,6.3798,6.3584,6.0293,5.7432,5.6828,5.347,5.1721,5.1397,5.1397,5.1397,5.146,5.1479,5.1636,5.1655,5.2051,5.2486,5.2935,5.3306,5.3834,5.4609,5.4883,5.5098,5.5527,5.5826,5.6046,5.6438,5.6582,5.698,5.2895,5.2895,5.2895,5.2895,5.2895,5.2895,5.2895,5.2895,5.2895,5.287,5.282,5.2837,5.282,5.2711,5.18,5.1339,5.1339,5.1389,5.1389,5.1389,5.1389,5.1599,5.2051,5.2059,5.2076,5.2076,5.2076,5.185,5.1423,5.1841,5.2076,5.2101,5.2511,5.277,5.2719,5.2694,5.2795,5.2694,5.2711,5.277,5.2787,5.277,5.2536,5.2126,5.2076,5.2302,5.2694,5.2795,5.2837,5.2845,5.2862,5.3113,5.3582,5.3708,5.4436,5.5774,5.6194,5.6709,5.7512,5.8289,5.8936,5.9458,6.0035,6.0537,6.109,6.1642,6.1994,6.1999,6.245,6.2752,6.2802,6.2802,6.2802,6.2827,6.2827,6.2852,6.2852,6.3375,6.3626,6.3726,6.4124,6.4626,6.5107,6.571,6.5843,6.5513,6.3528,6.1447,6.0179,5.7479,5.5186,5.3252,5.1988,5.1397,5.1397,5.1519,5.1479,5.1558,5.1836,5.2051,5.2368,5.2681,5.3052,5.3384,5.3652,5.416,5.4941,5.5449,5.5723,5.6055,5.6289,5.6543,5.6699,5.6621,5.7039,5.2895,5.2895,5.2895,5.2895,5.2895,5.2895,5.2895,5.2895,5.2895,5.2895,5.2895,5.2895,5.2895,5.2887,5.2511,5.231,5.2327,5.2335,5.2327,5.231,5.231,5.241,5.2586,5.2611,5.2611,5.2611,5.2611,5.2511,5.236,5.2536,5.2611,5.2636,5.2795,5.2895,5.2895,5.2895,5.2895,5.2895,5.2895,5.2895,5.2895,5.2895,5.2812,5.2619,5.2594,5.2711,5.2895,5.2895,5.2895,5.2895,5.3213,5.349,5.3783,5.4719,5.5523,5.62,5.7204,5.8152,5.8855,5.9413,5.9985,6.0557,6.109,6.1441,6.1743,6.2174,6.2501,6.2551,6.2651,6.2802,6.2802,6.2802,6.2802,6.2852,6.3128,6.3329,6.3475,6.3873,6.4199,6.4274,6.4701,6.5229,6.566,6.5965,6.609,6.6,6.5013,6.3281,6.1306,5.8997,5.6313,5.4162,5.2451,5.1499,5.1855,5.1855,5.1875,5.1992,5.2168,5.2402,5.2656,5.3013,5.3365,5.3482,5.3808,5.4369,5.5117,5.584,5.6152,5.6355,5.6609,5.6726,5.6933,5.6875,5.7344,5.2895,5.2895,5.2895,5.2895,5.2895,5.2895,5.2895,5.2895,5.2895,5.2895,5.2895,5.2895,5.2895,5.2895,5.2895,5.2895,5.2895,5.2895,5.2895,5.2895,5.2895,5.2895,5.2895,5.2895,5.2895,5.2895,5.2895,5.2895,5.2895,5.2895,5.2895,5.2895,5.2895,5.2895,5.2895,5.2895,5.2895,5.2895,5.2895,5.2895,5.2895,5.2895,5.2895,5.292,5.3088,5.3063,5.292,5.3063,5.3163,5.3239,5.3683,5.4135,5.4612,5.5942,5.6828,5.7104,5.8058,5.9012,5.9684,6.0111,6.0618,6.1366,6.1768,6.2069,6.2245,6.2601,6.2777,6.2802,6.2802,6.2802,6.2802,6.2802,6.2802,6.2852,6.3174,6.35,6.3701,6.4174,6.4626,6.5003,6.5354,6.571,6.599,6.6065,6.5677,6.5112,6.4938,6.3822,6.0863,5.8992,5.7036,5.4748,5.2885,5.2179,5.2285,5.2422,5.2363,5.2441,5.2656,5.2832,5.3047,5.3384,5.3619,5.3678,5.4049,5.4629,5.5312,5.6101,5.6433,5.6589,5.6648,5.6699,5.6933,5.7168,5.7637,5.2895,5.2895,5.2895,5.2895,5.2895,5.2895,5.2895,5.2895,5.2895,5.2895,5.2895,5.2895,5.2895,5.2895,5.2895,5.2895,5.2895,5.2895,5.2895,5.2895,5.2895,5.2895,5.2895,5.2895,5.2895,5.2895,5.2895,5.2895,5.2895,5.2895,5.2895,5.2895,5.2895,5.2895,5.2895,5.2895,5.2895,5.2895,5.2895,5.2895,5.2895,5.2895,5.292,5.2995,5.3406,5.3457,5.302,5.3457,5.3708,5.3783,5.4303,5.5107,5.6118,5.7223,5.8102,5.8485,5.8736,5.9263,6.0191,6.0417,6.097,6.1793,6.2044,6.2295,6.2626,6.2777,6.2802,6.2802,6.2802,6.2802,6.2802,6.2877,6.2877,6.2827,6.3003,6.3324,6.3747,6.4224,6.4902,6.576,6.6011,6.6086,6.609,6.5767,6.4941,6.354,6.2606,6.111,5.7749,5.6516,5.511,5.3523,5.2698,5.253,5.2754,5.3008,5.293,5.291,5.3189,5.3424,5.3574,5.3873,5.4082,5.4219,5.457,5.5156,5.5501,5.6211,5.6491,5.6628,5.6667,5.6738,5.7012,5.7305,5.7726,5.2895,5.2895,5.2895,5.2895,5.2895,5.2895,5.2895,5.2895,5.2895,5.2895,5.2895,5.2895,5.2895,5.2895,5.2895,5.2895,5.2895,5.2895,5.2895,5.2895,5.2895,5.2895,5.2895,5.2895,5.2895,5.2895,5.2895,5.2895,5.2895,5.2895,5.2895,5.2895,5.2895,5.2895,5.292,5.2895,5.2895,5.2895,5.2895,5.2895,5.2895,5.2895,5.3088,5.3414,5.3615,5.3801,5.4052,5.4228,5.4303,5.4328,5.5189,5.6219,5.7273,5.8052,5.8685,5.9207,5.9614,6.0292,6.1291,6.1472,6.1723,6.2375,6.2526,6.2601,6.2777,6.2802,6.2802,6.2802,6.2802,6.2802,6.2877,6.3203,6.3249,6.2832,6.35,6.3973,6.4274,6.5028,6.566,6.6011,6.6112,6.6262,6.6185,6.5437,6.3906,6.3055,6.1475,5.8899,5.6655,5.5721,5.4962,5.3173,5.2954,5.2949,5.3262,5.3463,5.3398,5.3418,5.3633,5.3853,5.4068,5.4225,5.4453,5.4824,5.5195,5.5547,5.5891,5.6211,5.6511,5.6609,5.6628,5.6863,5.7148,5.75,5.791,5.2895,5.2895,5.2895,5.2995,5.3138,5.3013,5.3013,5.3138,5.297,5.2895,5.2895,5.2895,5.2895,5.2895,5.2895,5.2895,5.2895,5.2895,5.2895,5.2895,5.2895,5.2895,5.2895,5.2895,5.2895,5.2895,5.2895,5.2895,5.2895,5.2895,5.2895,5.2895,5.2895,5.302,5.3163,5.3213,5.3264,5.3482,5.3532,5.3532,5.3532,5.3532,5.3683,5.4027,5.421,5.4612,5.5157,5.5383,5.539,5.5458,5.642,5.7549,5.8453,5.8987,5.9539,6.006,6.0462,6.104,6.1868,6.1943,6.2225,6.2676,6.2802,6.2802,6.2802,6.2802,6.2802,6.2802,6.3028,6.3128,6.3203,6.3651,6.3797,6.35,6.4028,6.4572,6.4852,6.5559,6.6026,6.6133,6.6301,6.6624,6.6392,6.5984,6.4123,6.3488,6.1166,5.86,5.6791,5.5479,5.4311,5.3537,5.3516,5.3613,5.3834,5.3893,5.3828,5.3926,5.4037,5.4219,5.442,5.4518,5.4694,5.5234,5.5638,5.5859,5.6211,5.6367,5.6609,5.6609,5.6726,5.696,5.7293,5.7625,5.8035,5.2995,5.2988,5.3013,5.3356,5.3683,5.3289,5.3381,5.3632,5.3289,5.3096,5.3071,5.3163,5.3096,5.3046,5.3188,5.3188,5.302,5.3121,5.3163,5.3163,5.3138,5.3188,5.3188,5.3113,5.3046,5.2995,5.2995,5.297,5.302,5.2945,5.2945,5.3113,5.3113,5.3239,5.3658,5.3758,5.4002,5.4371,5.4496,5.4496,5.4496,5.4504,5.4604,5.4723,5.5157,5.5666,5.6269,5.6771,5.6828,5.6627,5.7832,5.883,5.9483,6.0041,6.0563,6.111,6.1235,6.1537,6.1918,6.2144,6.23,6.2752,6.2902,6.2832,6.2952,6.3053,6.3128,6.3128,6.3475,6.3726,6.3827,6.4224,6.4521,6.4672,6.4777,6.4978,6.538,6.5936,6.6308,6.6385,6.6694,6.7126,6.726,6.7136,6.5887,6.4243,6.1625,5.8802,5.7228,5.5589,5.4319,5.3951,5.3965,5.416,5.4342,5.4244,5.4238,5.4447,5.4538,5.4655,5.4922,5.5039,5.5202,5.5703,5.6009,5.625,5.6465,5.666,5.6863,5.698,5.7097,5.7214,5.7468,5.782,5.8152,5.4152,5.4152,5.4152,5.4228,5.4371,5.4202,5.422,5.4346,5.4202,5.4059,5.411,5.4152,5.4094,5.4127,5.4127,5.4152,5.4102,5.4102,5.4152,5.4152,5.4152,5.4152,5.4027,5.3683,5.349,5.3507,5.349,5.3464,5.3439,5.3163,5.3339,5.4102,5.3683,5.3783,5.4253,5.4353,5.4446,5.4572,5.4622,5.4672,5.468,5.4723,5.5006,5.5742,5.5942,5.652,5.7374,5.7976,5.8208,5.8133,5.8786,5.9558,6.0111,6.0663,6.1215,6.1667,6.1818,6.2019,6.245,6.2576,6.2676,6.2802,6.3178,6.3471,6.3475,6.3847,6.3977,6.4073,6.4224,6.43,6.4375,6.4827,6.543,6.6133,6.5982,6.5911,6.646,6.699,6.7257,6.7035,6.7314,6.7709,6.7721,6.653,6.5349,6.4169,6.1077,5.7844,5.6993,5.5339,5.3912,5.4219,5.4375,5.4609,5.4726,5.4609,5.4662,5.4928,5.5078,5.5117,5.5488,5.5833,5.6055,5.6406,5.6426,5.6582,5.6836,5.707,5.7207,5.7351,5.7488,5.7605,5.782,5.8113,5.832,5.4597,5.4597,5.4597,5.4748,5.4881,5.4697,5.4723,5.4873,5.4697,5.4476,5.4398,5.4536,5.47,5.4779,5.4658,5.4597,5.4597,5.4597,5.4597,5.4597,5.4572,5.4572,5.4496,5.4202,5.4077,5.4077,5.4059,5.4077,5.4034,5.3733,5.4027,5.4396,5.427,5.4403,5.4881,5.4931,5.5182,5.5516,5.5616,5.5709,5.5961,5.5986,5.6262,5.6846,5.6947,5.7449,5.8478,5.9332,5.9558,5.9263,5.9558,6.0186,6.0944,6.1316,6.1793,6.2275,6.2325,6.2501,6.2727,6.2802,6.2927,6.3153,6.355,6.3797,6.4023,6.4325,6.45,6.445,6.4877,6.5128,6.5329,6.586,6.6589,6.7116,6.7216,6.7191,6.7342,6.7543,6.7662,6.7654,6.8046,6.8745,6.9228,6.6793,6.5596,6.4437,6.0756,5.8763,5.7446,5.5397,5.4147,5.4629,5.4863,5.5039,5.5234,5.515,5.5169,5.5416,5.5924,5.5903,5.6087,5.6511,5.6601,5.6738,5.6797,5.6953,5.7265,5.75,5.7586,5.7703,5.7859,5.8016,5.8183,5.832,5.8527,5.4773,5.4773,5.4773,5.5082,5.5483,5.5082,5.5308,5.5559,5.5351,5.4906,5.4724,5.4766,5.5142,5.5195,5.5092,5.4805,5.483,5.4931,5.4856,5.4881,5.4906,5.4924,5.4931,5.4755,5.468,5.4672,5.4672,5.4672,5.4604,5.4597,5.4672,5.4873,5.483,5.5082,5.5591,5.5709,5.6194,5.6803,5.6928,5.7097,5.7399,5.7499,5.76,5.7826,5.8183,5.8679,5.9633,6.0482,6.0688,5.9829,6.0217,6.0944,6.1848,6.1974,6.2275,6.2626,6.2727,6.2777,6.2927,6.3003,6.3178,6.3651,6.3852,6.4028,6.4526,6.4827,6.5028,6.5078,6.571,6.6187,6.6416,6.7267,6.7844,6.8145,6.845,6.8575,6.8271,6.8095,6.806,6.812,6.9022,6.9971,6.9542,6.8415,6.6275,6.4403,6.1041,5.9087,5.7734,5.6085,5.5362,5.5462,5.5566,5.5488,5.5644,5.5735,5.5786,5.5959,5.6704,5.6926,5.6833,5.7036,5.7007,5.7051,5.7148,5.7422,5.7812,5.7976,5.7996,5.8152,5.8367,5.8418,5.8496,5.8613,5.8781,5.5867,5.5867,5.5867,5.615,5.6602,5.6552,5.6821,5.7273,5.7198,5.6786,5.6587,5.651,5.6266,5.5969,5.592,5.5867,5.5867,5.5867,5.5867,5.5842,5.5867,5.5867,5.5767,5.5509,5.5257,5.5232,5.5232,5.5232,5.5182,5.5031,5.5056,5.5792,5.5892,5.6118,5.6602,5.6972,5.7424,5.7681,5.77,5.7801,5.8001,5.8077,5.8252,5.861,5.9338,6.0085,6.0663,6.1059,6.1285,6.1441,6.1547,6.1743,6.2049,6.24,6.2651,6.2752,6.2852,6.3028,6.3379,6.35,6.3751,6.4325,6.4701,6.5028,6.5153,6.5957,6.6334,6.656,6.7062,6.7367,6.7593,6.8424,6.8952,6.9228,6.9853,7.038,7.0328,6.9951,6.9714,6.9718,7.0017,6.9851,6.7721,6.7201,6.548,6.3785,6.1576,5.9372,5.7853,5.6459,5.6287,5.6126,5.6172,5.6133,5.6445,5.6489,5.6368,5.6482,5.7142,5.7874,5.7781,5.7658,5.7652,5.7605,5.75,5.7851,5.8301,5.8398,5.8418,5.8652,5.8808,5.8828,5.8867,5.8965,5.8965,5.6979,5.6997,5.6997,5.7173,5.7405,5.743,5.76,5.7851,5.7901,5.7794,5.76,5.7468,5.7243,5.6987,5.698,5.6997,5.6997,5.6997,5.6997,5.6997,5.6997,5.6997,5.6953,5.6671,5.6369,5.5917,5.5767,5.5892,5.5993,5.5942,5.6219,5.6922,5.6997,5.7104,5.738,5.7775,5.8001,5.8208,5.8284,5.8485,5.8936,5.9056,5.9307,5.984,6.0643,6.1291,6.1537,6.1843,6.2074,6.23,6.235,6.235,6.2375,6.2626,6.2802,6.2827,6.3128,6.3304,6.3651,6.3998,6.4425,6.5204,6.5534,6.5986,6.6338,6.7091,6.7314,6.7467,6.7844,6.8346,6.8921,6.9652,7.0154,7.028,7.0732,7.1184,7.1286,7.0983,6.9915,6.9255,6.891,6.7321,6.5904,6.495,6.364,6.1471,5.919,5.7128,5.7356,5.6235,5.6523,5.6536,5.666,5.6863,5.7246,5.7235,5.6948,5.7088,5.7473,5.8215,5.862,5.8489,5.8367,5.8183,5.7988,5.834,5.8691,5.8789,5.8828,5.8945,5.9043,5.9168,5.9188,5.9101,5.9082,5.7901,5.7901,5.7901,5.7926,5.8001,5.8027,5.8102,5.8177,5.8152,5.8259,5.8127,5.8058,5.8027,5.8083,5.7851,5.7876,5.7851,5.7826,5.77,5.77,5.77,5.77,5.77,5.76,5.7298,5.652,5.652,5.6753,5.7004,5.7136,5.7179,5.7801,5.8001,5.7976,5.8027,5.8152,5.8428,5.8761,5.8836,5.9212,5.994,6.0141,6.0437,6.114,6.1542,6.1923,6.2144,6.245,6.2752,6.2802,6.2802,6.2852,6.2907,6.2927,6.3003,6.3078,6.3601,6.3977,6.4329,6.4651,6.5254,6.6216,6.6366,6.6768,6.7471,6.7769,6.7894,6.8145,6.8522,6.925,7.02,7.093,7.1234,7.141,7.146,7.1599,7.1472,7.1226,6.966,6.7822,6.7218,6.5751,6.3457,6.1865,6.0599,5.9248,5.7019,5.5664,5.6028,5.6419,5.6855,5.7051,5.7214,5.7422,5.7812,5.8144,5.7827,5.7792,5.8044,5.8497,5.9154,5.8981,5.8758,5.8574,5.8507,5.8828,5.8965,5.9004,5.9082,5.9207,5.9227,5.9227,5.9227,5.9227,5.9227,5.7901,5.7901,5.7901,5.8152,5.8535,5.856,5.8786,5.9207,5.9156,5.9232,5.9131,5.878,5.8794,5.8883,5.8228,5.7926,5.8052,5.8077,5.8027,5.8027,5.8027,5.8027,5.8077,5.8102,5.787,5.77,5.76,5.77,5.7725,5.7775,5.7876,5.8027,5.8378,5.8579,5.8704,5.8956,5.9156,5.9332,5.9382,5.974,6.0292,6.0593,6.0944,6.1748,6.2044,6.2245,6.2551,6.2727,6.2802,6.2802,6.2802,6.3103,6.348,6.3626,6.3802,6.4002,6.4249,6.4651,6.5308,6.571,6.6413,6.7169,6.7467,6.7518,6.7919,6.8249,6.855,6.8874,6.9448,7.0152,7.0302,7.156,7.2244,7.2569,7.2663,7.2415,7.0857,6.9755,6.9177,6.7213,6.5875,6.4197,6.1691,5.9819,5.9096,5.8469,5.7263,5.6406,5.6633,5.7109,5.7605,5.7722,5.7762,5.8008,5.8312,5.8691,5.8792,5.8667,5.8784,5.8736,5.9176,5.921,5.9071,5.8828,5.8848,5.9023,5.914,5.9227,5.9227,5.9227,5.9227,5.9227,5.9227,5.9227,5.9227,5.873,5.8749,5.873,5.888,5.9081,5.9131,5.9257,5.9502,5.9527,5.9527,5.9452,5.9251,5.9239,5.931,5.9007,5.873,5.8704,5.873,5.873,5.873,5.873,5.873,5.8679,5.8724,5.8749,5.8749,5.873,5.8529,5.8328,5.8328,5.8453,5.8755,5.9031,5.9106,5.9156,5.9332,5.9659,5.979,5.994,6.0317,6.1095,6.1371,6.1948,6.2225,6.24,6.2551,6.2701,6.2802,6.2978,6.3178,6.3274,6.3731,6.4279,6.4705,6.4802,6.4651,6.4802,6.5254,6.6036,6.6363,6.7066,6.7998,6.8246,6.8547,6.8971,6.9398,6.9526,6.9978,7.0531,7.1234,7.1585,7.2469,7.2498,7.1711,7.1907,7.0842,6.8687,6.6985,6.6179,6.5624,6.3891,6.1815,5.9581,5.8225,5.7787,5.7387,5.7119,5.7168,5.7277,5.7734,5.823,5.827,5.8309,5.8504,5.8711,5.8926,5.9227,5.9227,5.9227,5.9227,5.9227,5.9207,5.914,5.9004,5.9101,5.9207,5.9227,5.9227,5.9227,5.9227,5.9227,5.9227,5.9227,5.9227,5.9227,5.9558,5.9659,5.9552,5.9633,5.9784,5.9603,5.9659,5.9784,5.9734,5.962,5.9531,5.9595,5.9608,5.9508,5.9502,5.9477,5.9527,5.9458,5.9427,5.9382,5.9382,5.9433,5.9502,5.9527,5.9427,5.9326,5.9357,5.9282,5.8956,5.888,5.9112,5.9282,5.9477,5.9583,5.9659,5.9734,6.001,6.0337,6.0512,6.102,6.1893,6.2501,6.2802,6.2802,6.2802,6.2777,6.2802,6.2978,6.3249,6.355,6.3847,6.4274,6.5157,6.581,6.5735,6.5229,6.553,6.6036,6.6614,6.7041,6.7819,6.8675,6.8876,6.9426,6.9926,7.0227,7.0554,7.1106,7.1535,7.2012,7.2345,7.2695,7.2054,7.1014,6.9981,6.8659,6.618,6.4335,6.3075,6.2252,6.1142,6.0018,5.8397,5.7894,5.7695,5.7786,5.7539,5.7695,5.7844,5.8301,5.8672,5.873,5.8828,5.8993,5.9082,5.9043,5.9227,5.9227,5.9227,5.9227,5.9227,5.9227,5.914,5.9101,5.914,5.9227,5.9227,5.9227,5.9227,5.9227,5.9227,5.9227,5.9227,5.9219,5.9258,5.9784,6.0166,5.9709,6.008,6.0758,5.996,6.0085,6.0833,6.0392,5.9935,5.9653,5.9949,5.991,5.9583,5.9527,5.9527,5.9527,5.9578,5.9583,5.9608,5.9583,5.9653,5.9578,5.9527,5.9659,5.9728,5.9678,5.9502,5.9458,5.9458,5.9458,5.9608,5.9734,5.9734,6.0211,6.0236,6.0512,6.0989,6.109,6.1416,6.2019,6.2551,6.2752,6.2802,6.2802,6.2852,6.2952,6.3254,6.3626,6.3802,6.4199,6.4676,6.5279,6.581,6.6338,6.6711,6.7213,6.7744,6.8073,6.8224,6.855,6.9253,6.9727,7.0102,7.0579,7.1006,7.1257,7.1081,7.1709,7.2364,7.2613,7.1517,7.0939,6.9881,6.8669,6.6582,6.406,6.2725,6.1346,6.0575,6.0007,5.9303,5.8129,5.7949,5.7789,5.7918,5.8027,5.8183,5.8351,5.873,5.8965,5.9004,5.9004,5.9168,5.9227,5.9227,5.9227,5.9227,5.9227,5.9227,5.9227,5.9227,5.9207,5.918,5.9227,5.9227,5.9227,5.9227,5.9227,5.9258,5.9355,5.9297,5.9227,5.9258,5.9453,6.0066,6.0292,6.0431,6.0713,6.111,6.0658,6.0733,6.1059,6.0914,6.0684,6.0435,6.0289,5.9991,5.9633,5.9527,5.9527,5.9558,5.9809,5.996,5.994,5.9966,6.0136,6.0337,6.0161,6.006,6.0337,6.0457,6.0537,6.0362,6.0161,6.0066,6.0406,6.0457,6.0582,6.0788,6.0814,6.114,6.1567,6.1943,6.2199,6.245,6.2676,6.2802,6.2802,6.2827,6.2978,6.3279,6.35,6.4053,6.4425,6.4877,6.538,6.6158,6.6811,6.7317,6.7894,6.8745,6.8996,6.8698,6.8926,6.9353,6.9878,7.0453,7.0983,7.1558,7.2136,7.264,7.2991,7.3192,7.3448,7.3293,7.1927,7.0306,6.8858,6.6725,6.4273,6.2166,6.139,6.0226,5.9544,5.9004,5.8691,5.8406,5.8191,5.8074,5.8094,5.8223,5.8371,5.8594,5.8848,5.9043,5.914,5.914,5.918,5.9227,5.9227,5.9227,5.9227,5.9227,5.9227,5.9227,5.9227,5.9227,5.9227,5.9227,5.9227,5.9227,5.9247,5.9266,5.9375,5.9551,5.957,5.9609,5.9883,6.0089,6.0593,6.0763,6.1085,6.1361,6.1562,6.1336,6.1361,6.1592,6.1441,6.1476,6.1415,6.0968,6.042,6.001,6.0004,6.0055,5.9985,6.0362,6.0487,6.0518,6.0568,6.0763,6.0858,6.0713,6.0738,6.119,6.1034,6.114,6.119,6.104,6.0939,6.121,6.1034,6.1235,6.1361,6.1441,6.1667,6.2149,6.2526,6.2701,6.2777,6.2777,6.2802,6.2852,6.2978,6.3229,6.3626,6.4078,6.4651,6.5258,6.5478,6.5983,6.6969,6.7571,6.7976,6.8575,6.9423,6.9775,6.9526,6.9627,7.0029,7.0529,7.1232,7.2012,7.2943,7.3594,7.387,7.4097,7.3056,7.3403,7.3231,7.0856,6.81,6.5852,6.4013,6.1638,5.9893,5.9865,5.981,5.9428,5.9121,5.914,5.8856,5.8524,5.8367,5.8328,5.8418,5.8605,5.8808,5.9032,5.911,5.9227,5.9227,5.9227,5.9227,5.9227,5.9227,5.9227,5.9227,5.9227,5.9227,5.9227,5.9227,5.9227,5.9227,5.9336,5.9414,5.9364,5.9325,5.9512,5.9698,5.9952,6.0147,6.0421,6.0616,6.1416,6.1823,6.1411,6.1793,6.2576,6.1617,6.1793,6.2501,6.2144,6.2205,6.2341,6.1892,6.1284,6.1029,6.0884,6.0889,6.1014,6.111,6.1135,6.1135,6.116,6.1235,6.1311,6.1311,6.119,6.1336,6.1441,6.1667,6.1818,6.1868,6.1567,6.1285,6.1466,6.1617,6.1793,6.1969,6.2169,6.2551,6.2777,6.2802,6.2802,6.2827,6.2827,6.2978,6.3324,6.3676,6.3751,6.4576,6.5333,6.5965,6.5953,6.655,6.7552,6.7984,6.836,6.9027,6.985,7.0227,7.0302,7.0556,7.0932,7.1357,7.2061,7.3067,7.3997,7.4223,7.4398,7.4014,7.2542,7.1324,6.9823,6.7081,6.4994,6.3897,6.2582,6.0741,5.9467,5.9431,5.9375,5.9235,5.9227,5.9227,5.9207,5.8856,5.8778,5.8739,5.8758,5.8926,5.8984,5.9149,5.9168,5.9227,5.9227,5.9227,5.9227,5.9227,5.9227,5.9227,5.9227,5.9227,5.9227,5.9199,5.9336,5.9238,5.9277,5.9453,5.959,5.9512,5.9512,5.9687,5.9913,6.0303,6.0596,6.085,6.0967,6.2019,6.2476,6.225,6.2425,6.2756,6.235,6.24,6.2727,6.2576,6.2386,6.2326,6.1878,6.1537,6.1291,6.119,6.119,6.124,6.1592,6.1642,6.1692,6.1692,6.1893,6.1943,6.1873,6.1823,6.2069,6.2169,6.2225,6.245,6.245,6.24,6.2225,6.2074,6.2275,6.245,6.2425,6.2601,6.2701,6.2802,6.2802,6.2802,6.2827,6.2978,6.3375,6.35,6.4078,6.4605,6.5032,6.5785,6.6323,6.6313,6.7101,6.8032,6.8338,6.8812,6.9479,7.0353,7.088,7.1209,7.151,7.1861,7.269,7.3368,7.4096,7.4825,7.4827,7.3972,7.3005,7.1602,7.0178,6.8256,6.5608,6.3373,6.2657,6.1473,5.9774,5.9219,5.9219,5.9227,5.9199,5.9227,5.9227,5.9227,5.9188,5.9168,5.9168,5.9207,5.9227,5.9227,5.9219,5.9219,5.9325,5.9344,5.9305,5.9277,5.9266,5.9227,5.9227,5.9227,5.9227,5.9219,5.9531,5.959,5.9453,5.9414,5.9648,5.9746,5.9668,5.9824,6.0215,6.0527,6.084,6.1094,6.126,6.1387,6.2325,6.2777,6.2802,6.2802,6.2802,6.2802,6.2802,6.2802,6.2802,6.2626,6.2225,6.2068,6.1913,6.1723,6.1692,6.1718,6.1868,6.2094,6.222,6.2245,6.23,6.2476,6.2551,6.2501,6.24,6.2752,6.2802,6.2777,6.2752,6.2802,6.2727,6.2701,6.2802,6.2752,6.2752,6.2802,6.2802,6.2802,6.2802,6.2802,6.2802,6.3028,6.3203,6.3747,6.4023,6.4505,6.5204,6.5681,6.6359,6.6875,6.717,6.7576,6.8316,6.9007,6.9456,7.0179,7.0956,7.156,7.2012,7.2439,7.2916,7.3895,7.4273,7.4875,7.5203,7.4763,7.3096,7.2053,7.0516,6.8463,6.6216,6.3532,6.1775,6.0969,6.0512,5.9199,5.9277,5.9316,5.9258,5.9247,5.9277,5.9375,5.9247,5.9247,5.9258,5.9266,5.9227,5.9227,5.9227,5.9238,5.9297,5.9403,5.9529,5.9462,5.9422,5.9509,5.9509,5.9227,5.9227,5.9227,5.9297,5.9609,5.9785,5.9629,5.9668,5.9902,6.0098,6.0245,6.0566,6.0898,6.1113,6.1269,6.1367,6.1514,6.1719,6.2325,6.2777,6.2802,6.2802,6.2802,6.2802,6.2802,6.2802,6.2802,6.2777,6.2701,6.2681,6.2681,6.2601,6.2501,6.2501,6.2526,6.2651,6.2701,6.2676,6.2626,6.2752,6.2777,6.2727,6.2676,6.2777,6.2802,6.2802,6.2802,6.2802,6.2802,6.2802,6.2802,6.2802,6.2802,6.2802,6.2802,6.2827,6.2877,6.2902,6.3103,6.3475,6.3747,6.4124,6.4626,6.5107,6.5706,6.6284,6.6987,6.7599,6.7865,6.8369,6.9233,6.9896,7.0248,7.0501,7.1357,7.2062,7.2666,7.3242,7.4046,7.4775,7.5051,7.5427,7.5335,7.3963,7.1847,7.0766,6.754,6.4687,6.2692,6.1363,6.0345,5.9774,5.9347,5.9199,5.9277,5.9473,5.9433,5.9355,5.9551,5.9668,5.9442,5.9286,5.9344,5.9297,5.9247,5.9247,5.9277,5.9355,5.9473,5.9668,5.9833,5.9833,5.9833,5.987,5.9772,5.9431,5.9266,5.9277,5.9375,5.9629,5.9746,5.9746,6.0019,6.0312,6.0655,6.0958,6.124,6.1484,6.1504,6.1621,6.1699,6.1816,6.2012,6.2651,6.2802,6.2802,6.2802,6.2802,6.2802,6.2802,6.2802,6.2802,6.2802,6.2802,6.2802,6.2802,6.2802,6.2802,6.2802,6.2802,6.2802,6.2802,6.2802,6.2802,6.2802,6.2802,6.2802,6.2802,6.2802,6.2802,6.2802,6.2802,6.2802,6.2802,6.2802,6.2802,6.2802,6.2802,6.2852,6.2952,6.3324,6.345,6.355,6.3852,6.4124,6.4375,6.4701,6.5132,6.5634,6.6259,6.6887,6.7417,6.8148,6.8413,6.8937,6.9777,7.0444,7.0796,7.1154,7.1912,7.2539,7.352,7.4348,7.475,7.5227,7.5578,7.5804,7.5732,7.3409,7.1354,6.8851,6.5438,6.2746,6.0685,6.0115,5.9431,5.9431,5.9227,5.9227,5.9277,5.957,5.9687,5.957,5.9648,6.0019,5.998,5.9765,5.9746,5.9648,5.959,5.957,5.9609,5.9687,5.9785,6.003,6.0186,6.0234,6.0215,6.0232,6.0174,5.9922,5.9648,5.9492,5.9609,5.9805,6.0019,6.0167,6.0469,6.079,6.1133,6.1504,6.1816,6.2012,6.2012,6.2051,6.2129,6.2246,6.2363,6.2802,6.2802,6.2802,6.2802,6.2802,6.2802,6.2802,6.2802,6.2802,6.2802,6.2802,6.2802,6.2802,6.2802,6.2802,6.2802,6.2802,6.2802,6.2802,6.2802,6.2802,6.2802,6.2802,6.2802,6.2802,6.2802,6.2802,6.2802,6.2802,6.2802,6.2802,6.2802,6.2802,6.2802,6.2802,6.2852,6.3078,6.3475,6.3651,6.3898,6.43,6.4651,6.4927,6.5183,6.5559,6.6033,6.6761,6.7288,6.7668,6.8377,6.8957,6.9358,7.0152,7.0803,7.1228,7.1759,7.2665,7.3344,7.4423,7.5176,7.5452,7.5578,7.5929,7.5534,7.4438,7.1636,6.893,6.6323,6.3731,6.178,5.9915,5.9375,5.9453,5.9453,5.957,5.959,5.9551,5.9835,6.0019,5.9902,6.0039,6.0342,6.0499,6.0381,6.0225,6.0089,5.998,5.9972,5.9972,6.003,6.0195,6.046,6.0635,6.0664,6.0625,6.0547,6.0488,6.0421,6.0128,5.9824,5.998,6.0167,6.0401,6.0596,6.0801,6.1103,6.1601,6.2021,6.2285,6.2461,6.249,6.2529,6.2608,6.2656,6.2754,6.2802,6.2802,6.2802,6.2802,6.2802,6.2802,6.2802,6.2802,6.2802,6.2802,6.2802,6.2802,6.2802,6.2802,6.2802,6.2802,6.2802,6.2802,6.2802,6.2802,6.2802,6.2802,6.2802,6.2802,6.2802,6.2802,6.2802,6.2802,6.2802,6.2802,6.2802,6.2852,6.2927,6.2978,6.2978,6.3128,6.34,6.3751,6.4053,6.4354,6.4852,6.5132,6.5308,6.5584,6.5911,6.6463,6.7113,6.7593,6.8145,6.8874,6.9627,7.0102,7.0679,7.1334,7.1711,7.2365,7.3496,7.3765,7.4242,7.4714,7.449,7.4016,7.4713,7.3912,7.217,6.9629,6.6712,6.4357,6.2048,6.0919,5.9726,5.9844,5.9932,6.005,6.0225,6.0147,6.0011,6.0128,6.0332,6.0449,6.0664,6.0859,6.0752,6.0674,6.0752,6.0713,6.0616,6.0616,6.0577,6.044,6.0644,6.0976,6.1094,6.1094,6.1035,6.0918,6.0918,6.085,6.0499,6.0225,6.0372,6.0577,6.0752,6.0957,6.1055,6.1396,6.1914,6.2354,6.2716,6.2862,6.3018,6.3057,6.3105,6.3066,6.3164,6.2802,6.2802,6.2802,6.2802,6.2802,6.2802,6.2802,6.2802,6.2802,6.2802,6.2802,6.2802,6.2802,6.2802,6.2802,6.2802,6.2802,6.2802,6.2802,6.2802,6.2802,6.2802,6.2802,6.2802,6.2802,6.2802,6.2802,6.2802,6.2802,6.2802,6.2802,6.2827,6.3199,6.335,6.355,6.3822,6.4048,6.4274,6.453,6.4957,6.5358,6.571,6.5835,6.6011,6.6363,6.6962,6.7518,6.8045,6.8723,6.9725,7.0051,7.0503,7.151,7.1786,7.2064,7.283,7.242,7.1554,7.1859,7.0918,7.0431,7.0663,7.0405,7.1303,6.9943,6.7792,6.4615,6.2708,6.121,6.0295,6.0117,6.0245,6.0362,6.0518,6.0616,6.0538,6.044,6.0625,6.0762,6.0762,6.0996,6.1172,6.1084,6.1182,6.124,6.1299,6.1279,6.1221,6.1143,6.0967,6.0967,6.1328,6.1426,6.1387,6.1348,6.123,6.1289,6.1269,6.0909,6.0752,6.1006,6.1162,6.1211,6.1269,6.1367,6.1748,6.2246,6.2647,6.299,6.3458,6.3652,6.3633,6.3613,6.3555,6.3544,6.2802,6.2802,6.2802,6.2802,6.2802,6.2802,6.2802,6.2802,6.2802,6.2802,6.2802,6.2802,6.2802,6.2802,6.2802,6.2802,6.2802,6.2802,6.2802,6.2802,6.2802,6.2802,6.2802,6.2802,6.2802,6.2802,6.2802,6.2802,6.2827,6.2852,6.2852,6.3224,6.3576,6.3802,6.4073,6.4475,6.4752,6.4902,6.5132,6.5584,6.5911,6.6137,6.6237,6.651,6.6887,6.7367,6.802,6.85,6.92,7.02,7.0401,7.1006,7.1912,7.2288,7.1841,7.2297,7.1509,7.031,6.9811,6.8695,6.7912,6.7224,6.6531,6.6907,6.7044,6.5596,6.3621,6.1903,6.0918,6.0195,6.044,6.0674,6.0791,6.0928,6.0889,6.087,6.0967,6.1133,6.1113,6.1026,6.1162,6.1426,6.1562,6.168,6.1699,6.1601,6.1562,6.1543,6.1504,6.1377,6.1358,6.1543,6.1621,6.164,6.1582,6.1504,6.1523,6.1504,6.1358,6.1319,6.1592,6.1601,6.1484,6.1543,6.166,6.2051,6.249,6.2852,6.3204,6.3702,6.4062,6.4004,6.3965,6.3965,6.4023,6.2802,6.2802,6.2802,6.2802,6.2802,6.2802,6.2802,6.2802,6.2802,6.2802,6.2802,6.2802,6.2802,6.2802,6.2802,6.2802,6.2802,6.2802,6.2802,6.2802,6.2802,6.2802,6.2802,6.2802,6.2802,6.2802,6.2827,6.2877,6.2902,6.3028,6.3279,6.3726,6.3927,6.4199,6.4601,6.5103,6.5354,6.5383,6.5459,6.571,6.6011,6.6212,6.6434,6.6887,6.7238,6.7593,6.8346,6.8848,6.9248,7.0152,7.088,7.1435,7.1626,7.1434,7.0882,7.0223,6.9337,6.8368,6.7167,6.6088,6.6003,6.5358,6.4627,6.3915,6.3503,6.3492,6.1971,6.1519,6.0638,6.0703,6.0976,6.1084,6.1201,6.1299,6.1319,6.126,6.1289,6.1406,6.1445,6.1358,6.1416,6.164,6.164,6.1719,6.1719,6.1719,6.1719,6.1719,6.1699,6.166,6.1631,6.167,6.1699,6.1719,6.1699,6.164,6.166,6.1631,6.1572,6.1572,6.166,6.1699,6.1719,6.1719,6.1758,6.2217,6.2676,6.3028,6.3449,6.3945,6.4238,6.4277,6.4277,6.4238,6.4238,6.2802,6.2802,6.2802,6.2802,6.2802,6.2802,6.2802,6.2802,6.2802,6.2802,6.2802,6.2802,6.2802,6.2802,6.2802,6.2802,6.2802,6.2802,6.2802,6.2802,6.2802,6.2802,6.2802,6.2802,6.2802,6.2802,6.2852,6.3053,6.3324,6.35,6.3751,6.43,6.4551,6.4902,6.5128,6.5609,6.581,6.581,6.5936,6.5986,6.6162,6.6564,6.6912,6.7288,6.7593,6.8148,6.8851,6.9476,7.0079,7.088,7.141,7.1076,7.0106,6.8476,6.7655,6.7245,6.6156,6.5318,6.429,6.3127,6.2357,6.1795,6.0967,6.0764,6.0656,6.0755,6.0876,6.0822,6.0918,6.1191,6.1406,6.1484,6.1562,6.166,6.1719,6.1621,6.1543,6.1621,6.1719,6.1719,6.1719,6.1719,6.1719,6.1719,6.1719,6.1719,6.1719,6.1719,6.1719,6.1699,6.168,6.1689,6.1719,6.1719,6.1719,6.1719,6.1719,6.1719,6.165,6.167,6.1719,6.1719,6.1719,6.1719,6.1836,6.2363,6.2803,6.3156,6.3626,6.4112,6.4316,6.4316,6.4316,6.4277,6.4277,6.2802,6.2802,6.2802,6.2802,6.2802,6.2802,6.2802,6.2802,6.2802,6.2802,6.2802,6.2802,6.2802,6.2802,6.2802,6.2802,6.2802,6.2802,6.2802,6.2802,6.2802,6.2802,6.2802,6.2802,6.2802,6.2827,6.3149,6.3425,6.3726,6.4023,6.4325,6.4802,6.5208,6.5434,6.5609,6.5961,6.609,6.6112,6.6316,6.6488,6.6513,6.684,6.7342,6.7719,6.8221,6.8726,6.9203,6.9828,7.0453,7.0702,7.0858,7.0421,6.9213,6.7706,6.5932,6.4957,6.3847,6.2558,6.1446,6.0345,5.9199,5.9247,5.9442,6.009,6.0447,6.0689,6.0973,6.0976,6.1269,6.1543,6.1562,6.164,6.166,6.1699,6.1719,6.168,6.164,6.168,6.1719,6.1719,6.1719,6.1719,6.1719,6.1719,6.1719,6.1719,6.1719,6.1719,6.1719,6.1719,6.1719,6.1719,6.1719,6.1719,6.1719,6.1719,6.1719,6.1719,6.1719,6.1719,6.1719,6.1719,6.1719,6.1816,6.2051,6.2519,6.295,6.3313,6.3694,6.416,6.4297,6.4316,6.4316,6.4316,6.4316,6.2802,6.2802,6.2802,6.2802,6.2802,6.2802,6.2802,6.2802,6.2802,6.2802,6.2802,6.2802,6.2802,6.2802,6.2802,6.2802,6.2802,6.2802,6.2802,6.2802,6.2802,6.2802,6.2802,6.2802,6.2802,6.3003,6.335,6.3626,6.3923,6.435,6.4827,6.5283,6.5484,6.5634,6.5986,6.6115,6.614,6.6388,6.6664,6.7037,6.7138,6.7213,6.7794,6.8299,6.8798,6.9052,6.9554,7.0154,7.0732,7.0173,6.9624,6.8211,6.7036,6.5346,6.3962,6.2572,6.2307,6.1116,6.006,5.9515,5.9266,5.9364,5.9648,5.9972,6.0381,6.0742,6.0996,6.1289,6.1562,6.168,6.1699,6.1719,6.1719,6.1719,6.1719,6.1719,6.1719,6.1719,6.1719,6.1719,6.1738,6.1738,6.1758,6.1758,6.1758,6.1738,6.1738,6.1719,6.1719,6.1719,6.1719,6.1719,6.1719,6.1719,6.1719,6.1719,6.1719,6.1719,6.1719,6.1719,6.1719,6.1719,6.1816,6.208,6.2373,6.2695,6.3086,6.3478,6.3848,6.4238,6.4277,6.4316,6.4316,6.4316,6.4316,6.2802,6.2802,6.2802,6.2802,6.2802,6.2802,6.2802,6.2802,6.2802,6.2802,6.2802,6.2802,6.2802,6.2802,6.2802,6.2802,6.2802,6.2802,6.2802,6.2802,6.2802,6.2802,6.2852,6.2927,6.2827,6.3103,6.355,6.3927,6.4375,6.4881,6.5383,6.586,6.5911,6.5986,6.6036,6.6165,6.6388,6.6664,6.7041,6.7439,6.8095,6.8246,6.8324,6.8899,6.9524,6.985,7.0353,7.1108,7.151,7.0669,6.823,6.5819,6.4099,6.2547,6.1033,6.0852,6.059,6.0187,5.9347,5.9227,5.9266,5.9512,5.9824,6.0147,6.0566,6.0957,6.123,6.1504,6.1699,6.1699,6.1719,6.1719,6.1719,6.1719,6.1719,6.1719,6.1719,6.1719,6.1738,6.1758,6.1797,6.1836,6.1894,6.1894,6.1894,6.1875,6.1836,6.1836,6.1904,6.1826,6.1738,6.1777,6.1777,6.1719,6.1719,6.1719,6.1719,6.1719,6.1777,6.1914,6.1914,6.1738,6.1875,6.2246,6.2471,6.2725,6.3105,6.3711,6.3906,6.4219,6.4277,6.4316,6.4316,6.4316,6.4316]}]]